[[{"header":{"parameterUnit":"m.s-1","parameterCategory":1,"la1":30.6,"la2":29.2853,"lo1":-89.7004,"lo2":-87.6739,"dy":0.0162,"dx":0.0183,"nx":112,"ny":82,"refTime":"2023-07-11T06:00:00:Z","depth":0,"parameterNumber":2,"parameterNumberName":"U-component_of_WINDS"},"data":[0.0,0.0,0.0,0.0,0.0,0.0,0.0,0.0,0.0,0.0,0.0,0.0,0.0,0.0,0.0,0.0,0.0,0.0,0.0,0.0,0.0,0.0,0.0,0.0,0.0,0.0,0.0,0.0,0.0,0.0,0.0,0.0,0.0,0.0,0.0,0.0,0.0,0.0,0.0,0.0,0.0,0.0,0.0,0.0,0.0,0.0,0.0,0.0,0.0,0.0,0.0,0.0,0.0,0.0,0.0,0.0,0.0,0.0,0.0,0.0,0.0,0.0,0.0,0.0,0.0,0.0,0.0,0.0,0.0,0.0,0.0,0.0,0.0,0.0,0.0,0.0,0.0,0.0,0.0,0.0,0.0,0.0,0.0,0.0,0.0,0.0,0.0,0.0,0.0,0.0,0.0,-3.955,-3.9925,-4.0283,-4.0414,-4.0882,-4.094,-4.0389,0.0,0.0,0.0,0.0,0.0,0.0,0.0,0.0,0.0,0.0,0.0,0.0,0.0,0.0,0.0,0.0,0.0,0.0,0.0,0.0,0.0,0.0,0.0,0.0,0.0,0.0,0.0,0.0,0.0,0.0,0.0,0.0,0.0,0.0,0.0,0.0,0.0,0.0,0.0,0.0,0.0,0.0,0.0,0.0,0.0,0.0,0.0,0.0,0.0,0.0,0.0,0.0,0.0,0.0,0.0,0.0,0.0,0.0,0.0,0.0,0.0,0.0,0.0,0.0,0.0,0.0,0.0,0.0,0.0,0.0,0.0,0.0,0.0,0.0,0.0,0.0,0.0,0.0,0.0,0.0,0.0,0.0,0.0,0.0,0.0,0.0,0.0,0.0,0.0,0.0,0.0,0.0,0.0,0.0,0.0,0.0,0.0,0.0,0.0,0.0,0.0,0.0,0.0,0.0,-4.0351,-4.023,-3.9806,-3.9798,-4.0411,-4.0015,-3.9681,-3.9574,0.0,0.0,0.0,0.0,0.0,0.0,0.0,0.0,0.0,0.0,0.0,0.0,0.0,0.0,0.0,0.0,0.0,0.0,0.0,0.0,0.0,0.0,0.0,0.0,0.0,0.0,0.0,0.0,0.0,0.0,0.0,0.0,0.0,0.0,0.0,0.0,0.0,0.0,0.0,0.0,0.0,0.0,0.0,0.0,0.0,0.0,0.0,0.0,0.0,0.0,0.0,0.0,0.0,0.0,0.0,0.0,0.0,0.0,0.0,0.0,0.0,0.0,0.0,0.0,0.0,0.0,0.0,0.0,0.0,0.0,0.0,0.0,0.0,0.0,0.0,0.0,0.0,0.0,0.0,0.0,0.0,0.0,0.0,0.0,0.0,0.0,0.0,0.0,0.0,0.0,0.0,0.0,0.0,0.0,0.0,0.0,0.0,0.0,0.0,0.0,0.0,0.0,0.0,-3.983,-3.9998,-4.0393,-3.9823,-3.9553,-3.9879,-3.9589,-3.9388,-3.9388,-3.9717,0.0,0.0,0.0,0.0,0.0,0.0,0.0,0.0,0.0,0.0,0.0,0.0,0.0,0.0,0.0,0.0,0.0,0.0,0.0,0.0,0.0,0.0,0.0,0.0,0.0,0.0,0.0,0.0,0.0,0.0,0.0,0.0,0.0,0.0,0.0,0.0,0.0,0.0,0.0,0.0,0.0,0.0,0.0,0.0,0.0,0.0,0.0,0.0,0.0,0.0,0.0,0.0,0.0,0.0,0.0,0.0,0.0,0.0,0.0,0.0,0.0,0.0,0.0,0.0,0.0,0.0,0.0,0.0,0.0,0.0,0.0,0.0,0.0,0.0,0.0,0.0,0.0,0.0,0.0,0.0,0.0,0.0,0.0,0.0,0.0,0.0,0.0,0.0,0.0,0.0,0.0,0.0,0.0,0.0,0.0,0.0,0.0,0.0,0.0,0.0,0.0,0.0,-3.9706,-3.9574,-4.0181,-3.9702,-3.9337,-3.9388,-3.9388,-3.9388,-3.9388,-3.9337,0.0,0.0,0.0,0.0,0.0,0.0,0.0,0.0,0.0,0.0,0.0,0.0,0.0,0.0,0.0,0.0,0.0,0.0,0.0,0.0,0.0,0.0,0.0,0.0,0.0,0.0,0.0,0.0,0.0,0.0,0.0,0.0,0.0,0.0,0.0,0.0,0.0,0.0,0.0,0.0,0.0,0.0,0.0,0.0,0.0,0.0,0.0,0.0,0.0,0.0,0.0,0.0,0.0,0.0,0.0,0.0,0.0,0.0,0.0,0.0,0.0,0.0,0.0,0.0,0.0,0.0,0.0,0.0,0.0,0.0,0.0,0.0,0.0,0.0,0.0,0.0,0.0,0.0,0.0,0.0,0.0,0.0,0.0,0.0,0.0,0.0,0.0,0.0,0.0,0.0,0.0,0.0,0.0,0.0,0.0,0.0,0.0,0.0,0.0,0.0,0.0,0.0,-3.9692,-3.9213,-3.9445,-3.925,-3.9177,-3.9388,-3.9388,-3.9388,-3.9388,-3.9228,0.0,0.0,0.0,0.0,0.0,0.0,0.0,0.0,0.0,0.0,0.0,0.0,0.0,0.0,0.0,0.0,0.0,0.0,0.0,0.0,0.0,0.0,0.0,0.0,0.0,0.0,0.0,0.0,0.0,0.0,0.0,0.0,0.0,0.0,0.0,0.0,0.0,0.0,0.0,0.0,0.0,0.0,0.0,0.0,0.0,0.0,0.0,0.0,0.0,0.0,0.0,0.0,0.0,0.0,0.0,0.0,0.0,0.0,0.0,0.0,0.0,0.0,0.0,0.0,0.0,0.0,0.0,0.0,0.0,0.0,0.0,0.0,0.0,0.0,0.0,0.0,0.0,0.0,0.0,0.0,0.0,0.0,0.0,0.0,0.0,0.0,0.0,0.0,0.0,0.0,0.0,0.0,0.0,0.0,0.0,0.0,0.0,0.0,0.0,0.0,0.0,0.0,-3.943,-3.9301,0.0,-3.9337,-3.9301,-3.9388,-3.9388,-3.9388,-3.9388,0.0,0.0,0.0,0.0,0.0,0.0,0.0,0.0,0.0,0.0,0.0,0.0,0.0,0.0,0.0,0.0,0.0,0.0,0.0,0.0,0.0,0.0,0.0,0.0,0.0,0.0,0.0,0.0,0.0,0.0,0.0,0.0,0.0,0.0,0.0,0.0,0.0,0.0,0.0,0.0,0.0,0.0,0.0,0.0,0.0,0.0,0.0,0.0,0.0,0.0,0.0,0.0,0.0,0.0,0.0,0.0,0.0,0.0,0.0,0.0,0.0,0.0,0.0,0.0,0.0,0.0,0.0,0.0,0.0,0.0,0.0,0.0,0.0,0.0,0.0,0.0,0.0,0.0,0.0,0.0,0.0,0.0,0.0,0.0,0.0,0.0,0.0,0.0,0.0,0.0,0.0,0.0,0.0,0.0,0.0,0.0,0.0,0.0,0.0,0.0,0.0,0.0,-3.9104,-3.9141,-3.9228,0.0,-3.9301,-3.9337,-3.9388,-3.9388,-3.9388,-3.9388,0.0,0.0,0.0,0.0,0.0,0.0,0.0,0.0,0.0,0.0,0.0,0.0,0.0,0.0,0.0,0.0,0.0,0.0,0.0,0.0,0.0,0.0,0.0,0.0,0.0,0.0,0.0,0.0,0.0,0.0,0.0,0.0,0.0,0.0,0.0,0.0,0.0,0.0,0.0,0.0,0.0,0.0,0.0,0.0,0.0,0.0,0.0,0.0,0.0,0.0,0.0,0.0,0.0,0.0,0.0,0.0,0.0,0.0,0.0,0.0,0.0,0.0,0.0,0.0,0.0,0.0,0.0,0.0,0.0,0.0,0.0,0.0,0.0,0.0,0.0,0.0,0.0,0.0,0.0,0.0,0.0,0.0,0.0,0.0,0.0,0.0,0.0,0.0,0.0,0.0,0.0,0.0,0.0,0.0,0.0,0.0,0.0,0.0,0.0,0.0,0.0,0.0,-3.9068,-3.8907,-3.887,-3.9068,-3.9104,-3.9177,-3.9388,-3.9388,-3.9388,0.0,0.0,0.0,0.0,0.0,0.0,0.0,0.0,0.0,0.0,0.0,0.0,0.0,0.0,0.0,0.0,0.0,0.0,0.0,0.0,0.0,0.0,0.0,0.0,0.0,0.0,0.0,0.0,0.0,0.0,0.0,0.0,0.0,0.0,0.0,0.0,0.0,0.0,0.0,0.0,0.0,0.0,0.0,0.0,0.0,0.0,0.0,0.0,0.0,0.0,0.0,0.0,0.0,0.0,0.0,0.0,0.0,0.0,0.0,0.0,0.0,0.0,0.0,0.0,0.0,0.0,0.0,0.0,0.0,0.0,0.0,0.0,0.0,0.0,0.0,0.0,0.0,0.0,0.0,0.0,0.0,0.0,0.0,0.0,0.0,0.0,0.0,0.0,0.0,0.0,0.0,0.0,0.0,0.0,0.0,0.0,0.0,0.0,0.0,0.0,0.0,0.0,0.0,-3.8907,-3.8943,-3.9017,-3.9104,-3.9104,-3.9177,-3.9388,-3.9388,-3.9337,-3.9177,0.0,0.0,0.0,0.0,0.0,0.0,0.0,0.0,0.0,0.0,0.0,0.0,0.0,0.0,0.0,0.0,0.0,0.0,0.0,0.0,0.0,0.0,0.0,0.0,0.0,0.0,0.0,0.0,0.0,0.0,0.0,0.0,0.0,0.0,0.0,0.0,0.0,0.0,0.0,0.0,0.0,0.0,0.0,0.0,0.0,0.0,0.0,0.0,0.0,0.0,0.0,0.0,0.0,0.0,0.0,0.0,0.0,0.0,0.0,0.0,0.0,0.0,0.0,0.0,0.0,0.0,0.0,0.0,0.0,0.0,0.0,0.0,0.0,0.0,0.0,0.0,0.0,0.0,0.0,0.0,0.0,0.0,0.0,0.0,0.0,0.0,0.0,0.0,0.0,0.0,0.0,0.0,0.0,0.0,0.0,0.0,0.0,0.0,0.0,0.0,0.0,0.0,-3.8819,-3.8907,-3.898,-3.898,-3.9104,-3.9228,-3.9265,-3.9337,-3.9301,-3.9104,0.0,0.0,0.0,0.0,0.0,0.0,0.0,0.0,0.0,0.0,0.0,0.0,0.0,0.0,0.0,0.0,0.0,0.0,0.0,0.0,0.0,0.0,0.0,0.0,0.0,0.0,0.0,0.0,0.0,0.0,0.0,0.0,0.0,0.0,0.0,0.0,0.0,0.0,0.0,0.0,0.0,0.0,0.0,0.0,0.0,0.0,0.0,0.0,0.0,0.0,0.0,0.0,0.0,0.0,0.0,0.0,0.0,0.0,0.0,0.0,0.0,0.0,0.0,0.0,0.0,0.0,0.0,0.0,0.0,0.0,0.0,0.0,0.0,0.0,0.0,0.0,0.0,0.0,0.0,0.0,0.0,0.0,0.0,0.0,0.0,0.0,0.0,0.0,0.0,0.0,0.0,0.0,0.0,0.0,0.0,0.0,0.0,0.0,0.0,0.0,0.0,0.0,-3.8797,-3.8782,-3.8819,-3.8819,-3.9141,-3.9301,-3.9104,-3.9265,-3.9301,-3.9104,0.0,0.0,0.0,0.0,0.0,0.0,0.0,0.0,0.0,0.0,0.0,0.0,0.0,0.0,0.0,0.0,0.0,0.0,0.0,0.0,0.0,0.0,0.0,0.0,0.0,0.0,0.0,0.0,0.0,0.0,0.0,0.0,0.0,0.0,0.0,0.0,0.0,0.0,0.0,0.0,0.0,0.0,0.0,0.0,0.0,0.0,0.0,0.0,0.0,0.0,0.0,0.0,0.0,0.0,0.0,0.0,0.0,0.0,0.0,0.0,-4.518,0.0,0.0,0.0,0.0,0.0,0.0,0.0,0.0,0.0,0.0,0.0,0.0,0.0,0.0,0.0,0.0,0.0,0.0,0.0,0.0,0.0,0.0,0.0,0.0,0.0,0.0,0.0,0.0,0.0,0.0,0.0,0.0,0.0,0.0,0.0,0.0,0.0,0.0,0.0,0.0,0.0,-3.8819,-3.8782,-3.887,-3.9017,-3.9104,-3.9141,-3.9104,-3.9265,-3.9265,-3.8907,0.0,0.0,0.0,0.0,0.0,0.0,0.0,0.0,0.0,0.0,0.0,0.0,0.0,0.0,0.0,0.0,0.0,0.0,0.0,0.0,0.0,0.0,0.0,0.0,0.0,0.0,0.0,0.0,0.0,0.0,0.0,0.0,0.0,0.0,0.0,0.0,0.0,0.0,0.0,0.0,0.0,0.0,0.0,0.0,0.0,0.0,0.0,0.0,0.0,0.0,0.0,0.0,0.0,0.0,0.0,0.0,0.0,0.0,0.0,0.0,0.0,-4.5008,0.0,0.0,0.0,0.0,0.0,0.0,0.0,0.0,0.0,0.0,0.0,0.0,0.0,0.0,0.0,0.0,0.0,0.0,0.0,0.0,0.0,0.0,0.0,0.0,0.0,0.0,0.0,0.0,0.0,0.0,0.0,0.0,0.0,0.0,0.0,0.0,0.0,0.0,0.0,0.0,-3.8797,-3.8782,-3.887,-3.9068,-3.9177,-3.9228,-3.9104,-3.9265,-3.9265,-3.8943,-3.9141,0.0,0.0,0.0,0.0,0.0,0.0,0.0,0.0,0.0,0.0,0.0,0.0,0.0,0.0,0.0,0.0,0.0,0.0,0.0,0.0,0.0,0.0,0.0,0.0,0.0,0.0,0.0,0.0,0.0,0.0,0.0,0.0,0.0,0.0,0.0,0.0,0.0,0.0,0.0,0.0,0.0,0.0,0.0,0.0,0.0,0.0,0.0,0.0,0.0,0.0,0.0,0.0,0.0,0.0,0.0,-4.6196,-4.6196,-4.593,-4.5477,-4.5477,-4.5025,-4.431,0.0,0.0,0.0,0.0,0.0,0.0,0.0,0.0,0.0,0.0,0.0,0.0,0.0,0.0,0.0,0.0,0.0,0.0,0.0,0.0,0.0,0.0,0.0,0.0,0.0,-4.2349,-4.1459,0.0,0.0,0.0,0.0,0.0,0.0,0.0,0.0,0.0,0.0,0.0,0.0,-3.8974,-3.9099,-3.921,-3.9409,-3.9644,-3.9644,-3.9409,-3.9503,-3.948,-3.9246,-3.9288,-3.9265,0.0,0.0,0.0,0.0,0.0,0.0,0.0,0.0,0.0,0.0,0.0,0.0,0.0,0.0,0.0,0.0,0.0,0.0,0.0,0.0,0.0,0.0,0.0,0.0,0.0,0.0,0.0,0.0,0.0,0.0,0.0,0.0,-4.4728,-4.5237,0.0,0.0,0.0,0.0,0.0,0.0,0.0,0.0,0.0,0.0,0.0,0.0,0.0,0.0,-4.6196,-4.6196,-4.6196,-4.6196,-4.6196,-4.6196,-4.6196,-4.6196,-4.576,-4.4991,-4.4991,0.0,-4.431,-4.431,0.0,0.0,0.0,0.0,0.0,0.0,0.0,0.0,0.0,0.0,0.0,0.0,0.0,0.0,0.0,0.0,0.0,0.0,0.0,0.0,0.0,0.0,-4.3295,-4.2078,-4.1656,-4.1327,0.0,-4.0056,-3.9753,-4.0389,0.0,0.0,0.0,0.0,0.0,0.0,0.0,0.0,-3.9906,-4.0282,-4.0622,-4.0789,-4.1017,-4.0964,-4.0622,-4.0367,-4.0129,-3.9742,-3.9358,-3.9141,-3.9104,-3.8943,0.0,0.0,0.0,0.0,0.0,0.0,0.0,0.0,0.0,0.0,0.0,0.0,0.0,0.0,0.0,0.0,0.0,0.0,0.0,0.0,0.0,0.0,0.0,0.0,0.0,0.0,0.0,0.0,0.0,-4.5078,-4.5255,-4.5793,-4.5857,-4.5932,0.0,0.0,0.0,0.0,0.0,0.0,0.0,0.0,0.0,-4.6196,-4.6122,-4.6332,-4.6871,-4.6813,-4.7023,-4.7495,-4.7495,-4.735,-4.71,-4.71,-4.6631,-4.5794,-4.5794,-4.5551,-4.5073,-4.4256,-4.3789,-4.3598,0.0,0.0,0.0,0.0,0.0,-4.3598,-4.3598,0.0,0.0,0.0,0.0,0.0,0.0,0.0,0.0,0.0,0.0,0.0,0.0,0.0,0.0,-4.2349,-4.2089,-4.1976,-4.1672,-4.1036,-4.0497,0.0,-3.9915,-3.9508,-3.9903,0.0,0.0,0.0,0.0,0.0,-4.0641,-4.084,-4.1056,-4.1232,-4.1346,-4.127,-4.1003,-4.0964,-4.0838,-4.055,-4.0077,-3.9853,-3.9853,-3.9297,-3.8575,0.0,0.0,0.0,0.0,0.0,0.0,0.0,0.0,0.0,0.0,0.0,0.0,0.0,0.0,0.0,0.0,0.0,0.0,0.0,0.0,0.0,0.0,0.0,0.0,0.0,0.0,0.0,0.0,-4.5769,-4.5746,-4.6151,-4.6196,-4.6196,0.0,0.0,0.0,0.0,0.0,0.0,-4.6196,-4.6365,-4.6463,-4.6463,-4.6529,-4.6871,-4.7576,-4.7491,-4.7771,-4.8391,-4.8443,-4.8216,-4.7741,-4.7796,-4.7306,-4.6498,-4.6498,-4.6243,-4.5698,-4.4622,-4.4144,-4.4144,-4.4144,-4.4144,0.0,-4.4144,-4.4144,-4.4144,-4.4144,-4.4144,-4.4144,-4.4144,0.0,-4.4144,-4.4144,0.0,0.0,0.0,0.0,-4.4144,-4.4144,0.0,-4.3684,-4.3024,-4.2658,-4.241,-4.2252,-4.1794,-4.1332,0.0,-4.0379,-4.0083,-4.0561,0.0,0.0,0.0,0.0,-4.1163,-4.1332,-4.1481,-4.1608,-4.1724,-4.1801,-4.1763,-4.1546,-4.1575,-4.1562,-4.1332,-4.0875,-4.0539,-4.0412,-3.9661,-3.8914,-3.8155,0.0,0.0,0.0,0.0,0.0,0.0,0.0,0.0,0.0,0.0,0.0,0.0,0.0,0.0,0.0,0.0,0.0,0.0,0.0,0.0,0.0,0.0,0.0,0.0,0.0,0.0,0.0,0.0,0.0,-4.6196,-4.6196,0.0,0.0,0.0,0.0,-4.6196,-4.6196,-4.6196,-4.6196,-4.679,-4.7133,-4.7133,-4.7701,-4.8021,-4.8066,-4.8056,-4.8074,-4.8135,-4.8233,-4.8056,-4.7603,-4.7741,-4.7306,-4.6498,-4.6498,-4.6243,-4.5781,-4.5715,-4.5682,-4.5682,-4.5682,-4.5682,-4.5682,-4.5682,-4.5682,-4.5682,-4.5682,-4.5682,-4.5682,-4.5682,-4.5682,-4.5682,-4.5682,-4.5682,0.0,0.0,-4.5682,-4.5682,-4.5682,-4.5111,-4.4396,-4.3706,-4.2973,-4.223,-4.161,-4.143,-4.1566,0.0,-4.1773,-4.1294,-4.1324,0.0,0.0,-4.1384,-4.1701,-4.1932,-4.1971,-4.2505,-4.2866,-4.2666,-4.3001,-4.3041,-4.264,-4.246,-4.2219,-4.1971,-4.1392,-4.0881,-4.0427,-3.9995,-3.9431,-3.8752,-3.7981,0.0,0.0,0.0,0.0,0.0,0.0,0.0,0.0,0.0,0.0,0.0,0.0,0.0,0.0,0.0,0.0,0.0,0.0,0.0,0.0,0.0,0.0,0.0,0.0,0.0,0.0,0.0,0.0,-4.6196,-4.6196,0.0,0.0,-4.6196,-4.6196,-4.6196,-4.667,-4.6926,-4.6842,-4.7508,-4.7876,-4.7788,-4.7889,-4.8271,-4.8883,-4.9243,-4.9729,-5.03,-5.0861,-5.0945,-5.0562,-5.0249,-4.9855,-4.939,-4.9039,-4.8795,-4.863,-4.863,-4.7504,-4.5798,-4.5798,-4.5798,-4.5798,-4.5798,-4.5798,-4.5798,-4.5798,-4.5798,-4.5798,-4.5798,-4.5798,-4.5798,-4.5798,-4.5798,-4.5798,-4.5798,-4.5434,-4.5016,-4.5016,-4.446,-4.3717,-4.3,-4.2926,-4.2845,-4.2189,-4.2342,-4.2704,-4.2922,-4.2129,-4.1557,-4.1976,-4.2051,-4.2201,-4.2566,-4.2742,-4.2852,-4.2852,-4.3061,-4.317,-4.309,-4.321,-4.321,-4.2915,-4.2962,-4.2827,-4.2455,-4.2138,-4.1716,-4.1246,-4.0716,-4.0071,-3.9258,-3.885,-3.8379,0.0,0.0,0.0,0.0,0.0,0.0,0.0,0.0,0.0,0.0,0.0,0.0,0.0,0.0,0.0,0.0,0.0,0.0,0.0,0.0,0.0,0.0,0.0,0.0,0.0,0.0,-4.6196,-4.6196,-4.6196,-4.6196,-4.6196,-4.6442,-4.66,-4.66,-4.7277,-4.7664,-4.757,-4.8189,-4.8622,-4.8792,-4.8914,-4.9388,-5.0263,-5.0662,-5.1164,-5.1755,-5.2079,-5.2031,-5.1626,-5.1083,-5.0643,-5.0325,-5.0102,-4.9981,-5.0015,-5.0135,-4.9061,-4.7255,-4.7007,-4.6908,-4.6874,-4.6626,-4.6527,-4.6527,-4.6527,-4.6527,-4.6527,-4.6527,-4.6527,-4.6527,-4.6527,-4.6527,-4.6527,-4.6527,-4.6174,-4.5668,-4.542,-4.4811,-4.4059,-4.3266,-4.3249,-4.3259,-4.2803,-4.303,-4.329,-4.329,-4.2626,-4.2177,-4.2611,-4.2686,-4.2836,-4.323,-4.329,-4.329,-4.329,-4.329,-4.325,-4.321,-4.321,-4.3155,-4.3036,-4.3115,-4.3115,-4.293,-4.2728,-4.2346,-4.1809,-4.1303,-4.0617,-3.9803,-3.9421,-3.8986,-3.8536,0.0,0.0,0.0,0.0,0.0,0.0,0.0,0.0,0.0,0.0,0.0,0.0,0.0,0.0,0.0,0.0,0.0,0.0,0.0,0.0,0.0,0.0,0.0,-4.6246,-4.6196,-4.6196,-4.6196,-4.6214,-4.6249,-4.6249,-4.6958,-4.7432,-4.7432,-4.7988,-4.8347,-4.8356,-4.8819,-4.945,-5.0247,-5.0828,-5.1464,-5.2188,-5.2205,-5.2222,-5.2222,-5.1646,-5.1136,-5.0677,-5.0052,-4.9513,-4.9114,-4.9524,-4.9665,-4.97,-5.0132,-5.0286,-5.0204,-4.9442,-4.9144,-4.9061,-4.8332,-4.8067,-4.8067,-4.8067,-4.8067,-4.8067,-4.8067,-4.8067,-4.8067,-4.8067,-4.8067,-4.8067,-4.8067,-4.8034,-4.7853,-4.703,-4.6282,-4.5505,-4.4723,-4.3949,-4.3349,-4.3349,-4.3349,-4.3349,-4.3349,-4.3349,-4.3349,-4.3319,-4.3319,-4.3334,-4.3349,-4.3349,0.0,-4.3349,-4.3349,-4.331,-4.3095,-4.3055,-4.304,-4.3025,-4.301,-4.309,-4.325,-4.3115,-4.2713,-4.2035,-4.1651,-4.1119,-4.0437,-3.9615,-3.9233,-3.9233,0.0,0.0,0.0,0.0,0.0,0.0,0.0,0.0,0.0,0.0,0.0,0.0,0.0,0.0,0.0,0.0,0.0,0.0,0.0,0.0,0.0,0.0,-4.6295,-4.6196,-4.6196,-4.6196,-4.6196,-4.6713,-4.7064,-4.7064,-4.7766,-4.8153,-4.805,-4.8758,-4.9323,-4.966,-5.0304,-5.098,-5.164,-5.1804,-5.1981,-5.2188,-5.2787,-5.308,-5.308,-5.2897,-5.2823,-5.2723,-5.1645,-5.1306,-5.1503,-5.1284,-5.1369,-5.1619,-5.1742,-5.1794,-5.1661,-5.0402,-4.9906,-4.9889,-4.9674,-4.9607,-4.9607,-4.9607,-4.9607,-4.9607,-4.9607,-4.9607,-4.9607,-4.9607,-4.9607,-4.9607,-4.9607,-4.9166,-4.8543,-4.7668,-4.6919,-4.6144,-4.5289,-4.4914,-4.4751,-4.4751,-4.4751,-4.4751,-4.4751,-4.4751,-4.4601,-4.4122,-4.4047,-4.4212,-4.4691,0.0,0.0,-4.4751,-4.4751,-4.471,-4.4669,-4.456,-4.4325,-4.3956,-4.3805,-4.349,0.0,-4.309,-4.2856,-4.2103,-4.2236,-4.1873,-4.0924,-4.0216,-3.9842,0.0,0.0,0.0,0.0,0.0,0.0,0.0,0.0,0.0,0.0,0.0,0.0,0.0,0.0,0.0,0.0,0.0,0.0,0.0,0.0,0.0,0.0,-4.6374,-4.6196,-4.6196,-4.6196,-4.6319,-4.6653,-4.7116,-4.752,-4.7871,-4.8573,-4.9127,-4.938,-4.9981,-5.06,-5.1211,-5.1528,-5.1998,-5.2684,-5.2718,-5.2856,-5.3166,-5.3632,-5.3699,-5.3396,-5.3062,-5.2786,-5.2526,-5.1459,-5.114,0.0,-5.1322,-5.1487,-5.1871,-5.2069,-5.223,0.0,0.0,0.0,0.0,0.0,-5.022,-5.022,-5.022,-5.022,-5.022,-5.022,-5.022,-5.022,-5.022,-5.022,-5.022,-5.022,-4.9844,-4.9216,-4.802,-4.7392,-4.6748,-4.5563,-4.5289,-4.5289,-4.5289,-4.5289,-4.5289,-4.5289,0.0,0.0,-4.517,-4.4915,-4.4855,-4.5229,-4.5289,-4.5289,0.0,-4.5289,-4.5289,-4.5289,-4.5013,-4.478,-4.4601,-4.4045,0.0,0.0,0.0,-4.2677,-4.2133,-4.231,0.0,0.0,0.0,-4.0525,0.0,0.0,0.0,0.0,-3.6797,-3.5315,0.0,0.0,0.0,0.0,0.0,0.0,0.0,0.0,0.0,0.0,0.0,0.0,0.0,0.0,0.0,0.0,-4.6368,-4.6232,-4.6319,-4.6337,-4.66,-4.7309,-4.7538,-4.7924,-4.8644,-4.9469,-5.0241,-5.0961,-5.1392,-5.1987,-5.277,0.0,0.0,0.0,0.0,-5.3839,-5.4494,-5.4512,-5.4158,-5.3516,-5.263,-5.1885,-5.1327,-5.037,-4.9955,-5.0113,-5.037,-5.0739,-5.1194,-5.1614,-5.205,-5.2307,-5.1696,-5.1431,-5.1348,-5.0701,-5.0469,0.0,0.0,0.0,0.0,-5.0469,-5.0469,-5.0469,-5.0469,-5.0469,-5.0469,-5.0469,-5.0469,-5.0072,-4.8387,-4.7956,-4.7535,-4.5897,-4.5529,-4.5529,-4.5529,-4.5529,-4.5529,-4.5529,-4.5529,-4.5708,-4.6337,-4.5873,-4.5439,-4.5514,-4.5514,0.0,-4.5472,-4.5472,-4.543,-4.543,0.0,0.0,-4.5048,-4.4095,-4.3575,-4.3767,-4.2943,-4.2357,-4.2133,-4.2092,-4.2092,-4.2092,-4.1512,-4.1207,-4.1207,-4.0539,-4.0205,-4.0137,-3.7414,-3.5683,0.0,0.0,0.0,0.0,0.0,0.0,0.0,0.0,0.0,0.0,0.0,0.0,0.0,0.0,0.0,-4.6319,-4.6221,-4.6425,-4.7081,-4.7169,-4.7222,-4.738,-4.8486,-4.9337,-4.9451,-5.0733,-5.1573,-5.1619,-5.2137,-5.2758,-5.3402,-5.3241,0.0,-5.427,-5.4287,-5.4374,-5.4512,-5.4512,-5.4448,-5.4254,0.0,0.0,-5.2889,-5.0821,-5.0448,-5.1306,-5.0739,-5.0946,-5.1651,-5.1778,-5.205,-5.2409,-5.226,-5.221,-5.2158,-5.2009,-5.1959,-5.1959,-5.1959,-5.1959,-5.1959,-5.1959,-5.1959,-5.1959,-5.1959,-5.1959,0.0,-5.1959,-5.1959,-5.1569,-4.9837,-4.941,-4.8976,-4.7301,-4.692,-4.692,-4.692,-4.692,-4.692,-4.692,-4.692,-4.695,-4.71,-4.6561,-4.6307,-4.683,-4.6733,-4.6588,-4.6588,-4.6473,-4.6342,-4.6342,-4.6065,-4.5771,-4.5532,-4.5096,-4.4674,-4.419,-4.3378,-4.2711,-4.238,-4.2175,-4.2092,-4.2092,-4.1976,-4.1903,-4.1903,-4.1221,-4.0902,-4.0887,-3.9758,-3.8788,0.0,0.0,0.0,0.0,0.0,0.0,0.0,0.0,0.0,0.0,0.0,-4.703,0.0,0.0,-4.6368,-4.6221,-4.653,-4.6941,-4.7345,-4.8047,-4.8538,-4.8538,-4.9223,-4.9995,-5.0785,-5.1558,-5.2274,-5.2989,-5.3177,-5.3557,-5.4244,-5.4067,-5.4132,-5.4494,-5.4512,-5.4512,-5.4512,-5.4512,-5.4303,-5.3946,-5.318,-5.2629,-5.2205,-5.1027,-5.0602,-5.0778,-5.037,-5.0563,-5.1188,-5.1631,-5.1924,-5.2122,-5.2302,-5.2409,-5.2409,-5.2409,-5.2409,-5.2409,-5.2409,-5.2409,-5.2409,-5.2409,-5.2409,-5.2409,-5.2409,-5.2409,-5.2409,-5.2409,-5.2409,-5.2017,-5.0252,-4.9805,-4.9383,-4.7694,-4.7309,-4.7309,-4.7309,-4.7309,-4.7309,-4.7309,-4.7309,-4.7309,-4.7309,-4.704,-4.692,-4.7249,-4.7207,-4.7062,-4.6916,-4.68,-4.6712,-4.6594,-4.6358,-4.6137,-4.5903,-4.5391,-4.4807,-4.4195,-4.344,-4.2889,-4.2709,-4.2335,-4.2092,-4.2092,-4.2092,-4.2092,-4.2092,-4.1758,-4.1599,-4.1584,-4.125,-4.0026,0.0,0.0,0.0,0.0,0.0,0.0,0.0,0.0,-4.7615,-4.7298,-4.7116,-4.6888,-4.659,-4.6343,-4.6249,-4.6407,-4.6976,-4.7485,-4.7783,-4.8907,-4.9776,-4.989,-5.0048,-5.0627,-5.1864,-5.225,-5.298,-5.4226,-5.4114,-5.43,-5.4957,-5.4683,-5.4512,-5.4512,-5.4512,-5.4512,-5.4512,-5.4512,-5.419,-5.36,-5.3466,-5.275,-5.1549,-5.1215,-5.0739,-5.0152,-5.0073,-5.0253,-5.0679,-5.1466,-5.1851,-5.1941,-5.2266,-5.2409,-5.2409,-5.2409,-5.2409,-5.2409,-5.2409,-5.2409,-5.2409,-5.2409,-5.2409,-5.2409,-5.2409,-5.2409,-5.2409,-5.2409,-5.2409,-5.2017,-5.0252,-4.9805,-4.9383,-4.7694,-4.7309,-4.7309,-4.7309,-4.7309,-4.7309,-4.7309,-4.7309,-4.7309,-4.7309,-4.7309,-4.7309,-4.7309,-4.7251,-4.7121,-4.6887,-4.6785,-4.6712,-4.6506,-4.6269,-4.6135,-4.6135,-4.552,-4.4821,-4.4197,-4.366,-4.3311,-4.3195,-4.26,-4.2266,-4.2266,-4.215,-4.2092,-4.2092,-4.2092,-4.2092,-4.2092,-4.2092,-4.0741,-4.7902,-4.778,-4.7717,-4.7717,-4.7717,-4.7717,0.0,0.0,-4.7572,-4.7116,-4.702,-4.686,-4.6343,-4.6221,-4.6425,-4.7151,-4.7345,-4.7871,-4.9267,-4.96,-4.9987,-5.0662,-5.1347,-5.1821,-5.1969,-5.3243,-5.4121,-5.4296,-5.465,-5.4905,-5.4992,-5.4683,-5.4512,-5.4512,-5.4512,-5.4512,-5.4512,-5.4512,-5.448,-5.4367,-5.3699,-5.3315,-5.3111,-5.1716,-5.1043,-5.0968,-5.0602,-5.0663,-5.1081,-5.1577,-5.1997,-5.2338,-5.2373,-5.2409,-5.2409,-5.2409,-5.2409,-5.2409,-5.2409,-5.2409,-5.2409,-5.2409,-5.2409,-5.2409,-5.2409,-5.2409,-5.2409,-5.2409,-5.2409,-5.2017,-5.0252,-4.9805,-4.9383,-4.7694,-4.7309,-4.7309,-4.7309,-4.7309,-4.7309,-4.7309,-4.7309,-4.7309,-4.7309,-4.7309,-4.7309,-4.7309,-4.7121,-4.6887,-4.6683,-4.6447,-4.6225,-4.6015,-4.5925,-4.5925,-4.5925,-4.5853,-4.5503,-4.4821,-4.4719,-4.4443,-4.3906,-4.3239,-4.289,-4.289,-4.2368,-4.2092,-4.2092,-4.2092,-4.2092,-4.2092,-4.2092,-4.1922,-4.7801,-4.7738,0.0,0.0,-4.7717,-4.7717,-4.7717,-4.7717,-4.7572,-4.7111,-4.6998,-4.6842,-4.6295,-4.6565,-4.7011,0.0,-4.8135,-4.8942,-4.9618,-5.011,-5.068,-5.1452,-5.2225,-5.2699,-5.2699,-5.3664,-5.4507,-5.4963,-5.4999,-5.4992,-5.4992,-5.4683,-5.4512,-5.4512,-5.4512,-5.4512,-5.4512,-5.4512,-5.4512,-5.4512,-5.419,-5.3583,-5.2682,-5.2029,-5.1257,-5.0441,-5.0699,-5.0874,-5.1103,-5.1949,-5.2343,-5.259,-5.3081,-5.3284,-5.3222,-5.2616,-5.2409,-5.2409,-5.2409,-5.2409,-5.2409,-5.2409,-5.2409,-5.2409,-5.2409,-5.2409,-5.2409,-5.2409,-5.2017,-5.1343,-5.0135,-4.9463,-4.879,-4.7581,-4.7309,-4.7309,-4.7309,-4.7309,-4.7309,-4.7309,-4.7309,-4.7309,-4.7309,-4.7309,-4.7309,-4.7309,-4.7207,-4.699,-4.6639,-4.6506,-4.6284,-4.5925,-4.588,-4.588,-4.588,-4.588,-4.5764,-4.5488,-4.5097,-4.4777,-4.4516,-4.3906,-4.3573,-4.3573,-4.2948,-4.2615,-4.2615,-4.2266,-4.2092,-4.2092,-4.2092,-4.1773,-4.7717,0.0,0.0,-4.7717,-4.7717,-4.7717,-4.7717,-4.7717,-4.7572,-4.7111,-4.6998,-4.6842,-4.6295,-4.6871,-4.7467,-4.7678,-4.8819,-4.9794,-5.0004,-5.0522,-5.1171,-5.1926,-5.2699,-5.3289,-5.3471,-5.4191,-5.4875,-5.5472,-5.5191,-5.4992,-5.4992,-5.4683,-5.4512,-5.4512,-5.4512,-5.4512,-5.4512,-5.4512,-5.4512,-5.4512,-5.4512,-5.3698,-5.2191,-5.176,-5.0957,-4.9908,-5.0453,-5.0754,-5.0922,-5.1941,-5.2452,-5.2746,-5.3579,-5.3984,-5.3966,-5.3241,-5.2837,-5.2638,-5.2475,-5.2409,-5.2409,-5.2409,-5.2409,-5.2409,-5.2409,-5.2409,-5.2409,-5.2409,-5.1944,-5.1177,-5.0096,-4.9383,-4.8641,-4.7538,-4.7309,-4.7309,-4.7309,-4.7309,-4.7309,-4.7309,-4.7309,-4.7309,-4.7309,-4.7309,-4.7309,-4.7309,-4.7309,-4.7121,-4.6639,-4.6506,-4.6284,-4.594,-4.588,-4.588,-4.588,-4.588,-4.588,-4.588,-4.543,-4.5169,-4.5169,-4.4574,-4.424,-4.424,-4.3602,-4.3268,-4.3268,-4.2644,-4.2339,-4.2339,-4.2179,-4.1717,-4.7717,-4.7717,-4.7717,-4.7717,-4.7717,-4.7717,-4.7717,-4.7717,-4.7572,-4.7111,-4.6998,-4.6842,-4.6295,-4.6871,-4.7625,-4.8337,-4.9153,-4.996,-5.0733,-5.0873,-5.1171,-5.1926,-5.2699,-5.3471,0.0,-5.4998,-5.549,-5.5507,-5.5191,-5.4992,-5.4992,-5.4683,-5.4512,-5.4512,-5.4512,-5.4512,-5.4512,-5.4512,-5.4512,-5.4512,-5.4512,-5.3698,-5.2156,-5.0669,-4.9955,-4.9876,-4.9908,-5.0129,-5.0566,-5.1325,-5.2065,-5.2871,-5.3629,-5.4135,-5.4473,-5.444,-5.3997,-5.3284,-5.2622,-5.2409,-5.2409,-5.2409,-5.2409,-5.2409,-5.2409,-5.2409,-5.2409,-5.2409,-5.2373,-5.198,-5.0252,-4.9765,-4.9343,-4.7694,-4.7309,-4.7309,-4.7309,-4.7309,-4.7309,-4.7309,-4.7309,-4.7309,-4.7309,-4.7309,-4.7309,-4.7309,-4.7309,-4.7121,-4.6639,-4.6194,-4.5925,-4.588,-4.588,-4.588,-4.588,-4.588,-4.588,-4.588,-4.5866,-4.5851,-4.5851,-4.5213,-4.4864,-4.4864,-4.4269,-4.3964,-4.3964,-4.3297,-4.2963,-4.2948,-4.2368,-4.2092,-4.7258,-4.7428,-4.7615,-4.7258,-4.7446,-4.7717,-4.7717,-4.7717,-4.7572,-4.7111,-4.6998,-4.7002,-4.7005,-4.7625,-4.8398,-4.917,-4.996,-5.0575,-5.0855,-5.0891,-5.1365,-5.2646,-5.306,0.0,0.0,0.0,0.0,-5.5306,-5.5096,-5.4961,-5.4855,-5.4637,-5.4512,-5.4512,-5.4512,-5.4512,-5.4512,-5.4512,-5.4512,-5.448,-5.3449,-5.27,-5.2156,-5.0592,-4.9876,-4.9908,-5.0421,-5.0691,-5.0898,-5.1572,-5.2165,-5.2736,-5.3292,-5.4048,-5.4793,-5.458,-5.4638,-5.4738,-5.4046,-5.3798,-5.3798,-5.3798,-5.3798,-5.3699,-5.3218,-5.3069,-5.297,-5.2523,-5.198,-5.1268,-5.0096,-4.9423,-4.8723,-4.7581,-4.7309,-4.7309,-4.7309,-4.7309,-4.7309,-4.7309,-4.7309,-4.7309,-4.7309,-4.7309,-4.7251,-4.7062,-4.6902,-4.6771,-4.6639,-4.6194,-4.588,-4.588,-4.588,-4.588,-4.588,-4.588,-4.588,-4.588,-4.588,-4.588,-4.588,-4.5663,-4.5547,-4.5547,-4.4922,-4.4589,-4.4589,-4.3964,-4.366,-4.3645,-4.3442,-4.2984,-4.6707,-4.6863,-4.7084,-4.6931,-4.7151,-4.745,-4.7657,-4.7636,-4.7446,-4.7088,-4.6911,-4.6974,-4.7339,-4.8029,-4.8802,-4.9556,-5.0364,-5.0891,-5.0891,-5.0891,-5.1452,-5.3025,-5.3201,-5.3805,0.0,0.0,0.0,-5.5229,-5.5066,-5.4948,-5.4828,-5.4623,-5.4512,-5.4512,-5.4512,-5.4512,-5.4512,-5.4512,-5.4512,-5.448,-5.2958,-5.2191,-5.2156,-5.0592,-4.9876,-4.9908,-5.0405,-5.0595,-5.0683,-5.15,-5.2109,-5.2507,-5.3253,-5.407,-5.4777,-5.458,-5.4953,-5.5483,-5.4738,-5.449,-5.449,-5.449,-5.449,-5.4427,-5.3964,-5.3814,-5.3715,-5.3268,-5.2754,-5.2053,-5.0842,-4.9987,-4.912,-4.7942,-4.7474,-4.7309,-4.7309,-4.7309,-4.7309,-4.7309,-4.7309,-4.7309,-4.7309,-4.7309,-4.7207,-4.6931,-4.6712,-4.655,-4.6447,-4.615,-4.588,-4.588,-4.588,-4.588,-4.588,-4.588,-4.588,-4.588,-4.588,-4.588,-4.588,-4.588,-4.588,-4.588,-4.5459,-4.5242,-4.5242,-4.4618,-4.4313,-4.4313,-4.4095,-4.3661,-4.6067,-4.6074,-4.6213,-4.6707,-4.6863,-4.7022,-4.7533,-4.7472,-4.7254,-4.7048,-4.6795,-4.6766,0.0,0.0,-4.8837,-4.9574,-5.0364,-5.0891,-5.0891,-5.0891,-5.1452,0.0,0.0,0.0,0.0,0.0,0.0,-5.5199,0.0,-5.493,-5.478,-5.4606,-5.4512,-5.4512,-5.4512,-5.4512,-5.4512,-5.4512,-5.4512,-5.448,-5.2958,-5.2191,-5.2156,-5.0592,-4.9876,-4.9876,-4.9876,-4.9876,-4.9979,-5.1104,-5.1791,-5.2242,-5.3362,-5.4037,-5.4423,-5.4423,-5.4887,-5.5433,-5.4771,-5.4556,-5.4589,-5.4589,-5.4589,-5.4626,-5.4593,-5.4539,-5.4539,-5.449,-5.449,-5.4119,-5.242,-5.1442,-5.0505,-4.8823,-4.7892,-4.7399,-4.7369,-4.7354,-4.7339,-4.7309,-4.7309,-4.7309,-4.7309,-4.7309,-4.7207,-4.6931,-4.6712,-4.6506,-4.621,-4.6001,-4.588,-4.588,-4.588,-4.588,-4.588,-4.588,-4.588,-4.588,-4.588,-4.588,-4.588,-4.588,-4.588,-4.588,-4.588,-4.588,-4.588,-4.5242,-4.4937,-4.4922,-4.4342,-4.4095,-4.5597,-4.5817,-4.6042,-4.5775,-4.631,-4.6931,-4.7084,-4.7214,-4.7254,-4.7048,-4.6795,-4.6766,0.0,0.0,0.0,-4.9556,-5.0364,0.0,-5.0891,-5.0891,0.0,-5.3025,0.0,-5.3805,-5.5367,-5.5507,0.0,0.0,-5.5109,-5.4974,-5.4606,-5.4686,-5.4637,-5.4512,-5.4512,-5.4512,-5.4512,-5.4512,-5.4512,-5.448,-5.2958,-5.2191,-5.2156,-5.0592,-4.9876,-4.9876,-4.9876,-4.9876,-4.9931,-5.0522,-5.1013,-5.1448,-5.2088,-5.2906,-5.3699,-5.3699,-5.4125,-5.4821,-5.5168,-5.5686,-5.6133,-5.6133,-5.6133,-5.6034,-5.5504,-5.5301,-5.5185,-5.4638,-5.449,-5.427,-5.3207,-5.2308,-5.1391,-5.0254,-4.9411,-4.8626,-4.8132,-4.8042,-4.7893,-4.7399,-4.7309,-4.7309,-4.7309,-4.7309,-4.7207,-4.6931,-4.6712,-4.6506,-4.621,-4.6001,-4.588,-4.588,-4.588,-4.588,-4.588,-4.588,-4.588,-4.588,-4.588,-4.588,-4.588,-4.588,-4.588,-4.588,-4.588,-4.588,-4.588,-4.5721,-4.5634,-4.5634,-4.5474,-4.5401,-4.5062,-4.5205,-4.5416,-4.5303,-4.5749,-4.6334,-4.6776,-4.6858,-4.6852,-4.698,-4.6702,0.0,-4.7282,-4.8029,0.0,0.0,0.0,0.0,-5.0891,-5.0891,-5.1452,0.0,-5.3201,0.0,-5.5367,-5.5507,-5.5371,0.0,-5.5079,-5.4944,-5.4543,-5.4623,-5.4623,-5.4512,-5.4512,-5.4512,-5.4512,-5.4512,-5.4512,-5.448,-5.3281,-5.2526,-5.2156,-5.0973,-5.0214,-4.9876,0.0,-4.9995,-5.0175,-5.0586,-5.1022,-5.145,-5.1888,-5.2425,-5.2953,-5.2953,-5.3417,-5.4096,-5.451,-5.5338,-5.6266,-5.6581,-5.668,-5.6614,-5.6216,-5.6084,-5.6001,-5.5587,-5.5471,-5.5264,-5.4384,-5.3584,-5.2654,-5.1335,-5.0441,-4.9564,-4.8505,-4.8282,-4.8087,-4.7429,-4.7309,-4.7251,-4.7164,-4.7121,-4.6975,-4.6653,-4.6491,-4.6358,-4.609,-4.597,-4.588,-4.588,-4.588,-4.588,-4.588,-4.588,-4.588,-4.588,-4.588,-4.588,-4.588,-4.588,-4.588,-4.588,-4.588,-4.588,-4.588,-4.588,-4.588,-4.588,-4.588,-4.588,-4.4615,-4.4615,-4.4692,-4.5098,-4.5267,-4.5545,-4.6478,-4.6418,-4.6332,-4.6795,0.0,-4.6407,-4.7116,-4.7906,-4.8679,-4.9416,0.0,-5.0768,-5.0873,-5.0891,-5.1452,-5.3025,-5.3201,-5.3805,-5.5367,-5.5478,-5.5401,-5.5229,-5.5066,-5.4855,-5.4543,-5.4575,-5.4575,-5.4543,-5.4512,-5.4512,-5.4512,-5.4512,-5.4448,-5.4335,-5.36,-5.2872,-5.2101,-5.1348,-5.0624,-4.9995,0.0,0.0,-5.0509,-5.093,-5.1359,-5.1851,-5.223,-5.2409,-5.2409,-5.2409,-5.2771,-5.3284,-5.3384,-5.4311,-5.5603,-5.6316,-5.6614,-5.668,-5.668,-5.668,-5.668,-5.668,-5.668,-5.6508,-5.5692,-5.4996,-5.4099,-5.2481,-5.1469,-5.0447,-4.8933,-4.8355,-4.7997,-4.7414,-4.7266,-4.7164,-4.6931,-4.6887,-4.6697,-4.6254,-4.621,-4.6135,-4.5925,-4.588,-4.588,-4.588,-4.588,-4.588,-4.588,-4.588,-4.588,-4.588,-4.588,-4.588,-4.588,-4.588,-4.588,-4.588,-4.588,-4.588,-4.588,-4.588,-4.588,-4.588,-4.588,-4.588,-4.4615,-4.4615,-4.4626,-4.4692,-4.5008,-4.5355,-4.5537,-4.5903,0.0,0.0,-4.6253,-4.6249,-4.6372,-4.7081,-4.7854,-4.8591,-4.9381,-5.0145,-5.0803,-5.0891,-5.1452,0.0,-5.3201,0.0,0.0,0.0,0.0,0.0,0.0,0.0,-5.4749,-5.4855,-5.4855,-5.4749,-5.4592,-5.4512,-5.4512,-5.4512,-5.419,-5.36,-5.2786,-5.2189,-5.1769,-5.0968,-5.0525,-5.0409,0.0,0.0,-5.0509,-5.093,-5.1359,-5.1851,-5.223,-5.2409,-5.2409,-5.2409,-5.2456,-5.2638,-5.3218,-5.398,-5.4787,-5.5532,-5.62,-5.668,-5.668,-5.668,-5.668,-5.668,-5.668,-5.6641,-5.6508,-5.581,-5.5037,-5.475,-5.342,-5.1854,-5.0478,-4.8745,-4.7444,-4.7324,-4.7121,-4.6975,-4.6916,-4.6756,-4.6535,-4.6254,-4.621,-4.6135,-4.5925,-4.588,-4.588,-4.588,-4.588,-4.588,-4.588,-4.588,-4.588,-4.588,-4.588,-4.588,-4.588,-4.588,-4.588,-4.588,-4.588,-4.588,-4.588,-4.588,-4.588,-4.588,-4.588,-4.588,-4.4615,-4.4615,-4.4615,-4.4615,-4.4759,-4.4981,-4.5241,0.0,0.0,0.0,-4.6204,-4.6196,-4.6196,-4.6871,0.0,-4.8433,-4.9188,-4.9987,-5.0785,-5.0891,0.0,-5.3025,0.0,0.0,0.0,0.0,0.0,0.0,0.0,0.0,-5.478,-5.4762,-5.4762,-5.4797,-5.4717,-5.4655,-5.4655,-5.4731,-5.4414,-5.3716,-5.3382,-5.2803,-5.2004,-5.1602,-5.1194,-5.0816,0.0,0.0,-5.1188,-5.1376,-5.1725,-5.2122,-5.2338,-5.2409,-5.2409,-5.2409,-5.2409,-5.2489,-5.3185,-5.3861,-5.4605,-5.535,-5.61,-5.668,-5.668,-5.668,-5.668,-5.668,-5.668,-5.668,-5.668,-5.6375,-5.5908,-5.5434,-5.3376,-5.1387,-5.0725,-4.8758,-4.7062,-4.7062,-4.6887,-4.6712,-4.6565,-4.6447,-4.6314,-4.609,-4.6046,-4.6001,-4.5925,-4.588,-4.588,-4.588,-4.588,-4.588,-4.588,-4.588,-4.588,-4.588,-4.588,-4.588,-4.588,-4.588,-4.588,-4.588,-4.588,-4.588,-4.588,-4.588,-4.588,-4.588,-4.588,-4.588,-4.4615,-4.4615,-4.4615,-4.4615,-4.4615,-4.4692,-4.5018,-4.5169,0.0,-4.5887,-4.603,-4.6097,-4.6172,-4.6705,-4.7467,0.0,-4.9065,-4.9767,-5.075,-5.0891,-5.1452,0.0,0.0,0.0,0.0,0.0,0.0,0.0,0.0,0.0,0.0,-5.47,-5.47,-5.4886,-5.4873,-5.4842,-5.4842,-5.4948,-5.4603,-5.3799,-5.3896,-5.3349,-5.2164,-5.2164,-5.1838,-5.1247,0.0,0.0,0.0,-5.1778,-5.205,-5.2409,-5.2409,-5.2409,-5.2409,-5.2409,-5.2409,-5.2489,-5.3185,-5.3861,-5.4605,-5.535,-5.61,-5.668,-5.668,-5.668,-5.668,-5.668,-5.668,-5.668,-5.668,-5.668,-5.6381,-5.5118,-5.2707,-5.0542,-5.0113,-4.8392,-4.6887,-4.6829,-4.6668,-4.6447,-4.6254,-4.6165,-4.609,-4.5925,-4.588,-4.588,-4.588,-4.588,-4.588,-4.588,-4.588,-4.588,-4.588,-4.588,-4.588,-4.588,-4.588,-4.588,-4.588,-4.588,-4.588,-4.588,-4.588,-4.588,-4.588,-4.588,-4.588,-4.588,-4.588,-4.588,-4.4615,-4.4615,-4.4615,-4.4615,-4.4615,-4.457,-4.4406,0.0,-4.4872,-4.523,-4.5494,-4.5778,-4.6122,-4.6267,-4.6793,-4.8267,-4.8565,-4.9153,-5.068,-5.0891,0.0,0.0,0.0,0.0,0.0,0.0,0.0,0.0,0.0,0.0,0.0,-5.4961,-5.5005,-5.5169,-5.5053,-5.4992,-5.4992,-5.4992,-5.4397,-5.3179,-5.3213,-5.2714,-5.1851,-5.1851,-5.1815,-5.1741,0.0,0.0,0.0,-5.1778,-5.205,-5.2409,-5.2409,-5.2409,-5.2409,-5.2409,-5.2409,-5.2489,-5.3185,-5.3861,-5.4605,-5.535,-5.61,-5.668,-5.668,-5.668,-5.668,-5.668,-5.668,-5.668,-5.668,-5.668,-5.6093,-5.377,-5.2011,-5.0372,-4.8517,-4.751,-4.6844,-4.6683,-4.6403,-4.621,-4.621,-4.6046,-4.5925,-4.588,-4.588,-4.588,-4.588,-4.588,-4.588,-4.588,-4.588,-4.588,-4.588,-4.588,-4.588,-4.588,-4.588,-4.588,-4.588,-4.588,-4.588,-4.588,-4.588,-4.588,-4.588,-4.588,-4.588,-4.588,-4.588,-4.588,-4.4615,-4.4615,-4.4615,-4.4615,-4.4514,-4.4412,-4.431,0.0,-4.4614,-4.4752,-4.5213,-4.5632,-4.5803,-4.6048,-4.6547,-4.7661,-4.8222,0.0,-5.0013,0.0,0.0,0.0,0.0,0.0,0.0,0.0,0.0,0.0,0.0,0.0,0.0,-5.5035,-5.5066,-5.5199,-5.5139,-5.5109,-5.5109,-5.5234,-5.4821,-5.3946,-5.3682,-5.3247,-5.2574,-5.2269,-5.2158,-5.2158,0.0,0.0,0.0,-5.2158,-5.2266,-5.2409,-5.2409,-5.2409,-5.2409,-5.2409,-5.2655,-5.3102,-5.3831,-5.4523,-5.5267,-5.6034,-5.6448,-5.668,-5.668,-5.668,-5.668,-5.668,-5.668,-5.6581,-5.615,-5.5719,-5.5023,-5.3551,-5.194,-5.036,-4.9047,-4.7567,-4.6432,-4.6358,-4.618,-4.6001,-4.6001,-4.597,-4.588,-4.588,-4.588,-4.588,-4.588,-4.588,-4.588,-4.588,-4.588,-4.588,-4.588,-4.588,-4.588,-4.588,-4.588,-4.588,-4.588,-4.588,-4.588,-4.588,-4.588,-4.588,-4.588,-4.588,-4.588,-4.588,-4.588,-4.588,-4.4615,-4.4615,-4.4587,-4.4542,-4.4395,-4.4281,0.0,0.0,-4.435,-4.4418,-4.4862,-4.5292,-4.5555,-4.5829,-4.6318,-4.7232,-4.8029,-4.8784,-4.96,-5.0382,0.0,0.0,0.0,0.0,0.0,0.0,0.0,0.0,0.0,0.0,0.0,0.0,-5.5174,-5.5277,-5.5277,-5.5277,-5.5277,-5.5431,-5.5191,-5.4557,-5.4124,-5.3616,-5.3077,-5.2624,-5.2409,0.0,0.0,0.0,0.0,-5.2409,-5.2409,-5.2409,-5.2409,-5.2409,-5.2407,-5.2605,-5.2986,-5.3549,-5.4473,-5.5152,-5.5698,-5.6448,-5.668,-5.668,-5.668,-5.668,-5.668,-5.668,-5.6531,-5.62,-5.5487,-5.4742,-5.3956,-5.3032,-5.1511,-4.9981,-4.8898,-4.7359,-4.6165,-4.6135,-4.6015,-4.588,-4.588,-4.588,-4.588,-4.588,-4.588,-4.588,-4.588,-4.588,-4.588,-4.588,-4.588,-4.588,-4.588,-4.588,-4.588,-4.588,-4.588,-4.588,-4.588,-4.588,-4.588,-4.588,-4.588,-4.588,-4.588,-4.588,-4.588,-4.588,-4.588,-4.588,-4.4615,-4.4615,-4.4542,-4.4338,-4.431,-4.4224,0.0,-4.3898,-4.3969,-4.4253,-4.4293,-4.4575,-4.545,-4.5606,-4.5996,-4.7206,-4.8029,0.0,-4.96,0.0,0.0,0.0,0.0,0.0,0.0,0.0,0.0,0.0,0.0,0.0,0.0,0.0,-5.5478,-5.5507,-5.5507,-5.5507,-5.5507,-5.5507,-5.5252,-5.4679,-5.4139,-5.3616,-5.3077,-5.2624,0.0,0.0,0.0,0.0,0.0,-5.2409,-5.2409,-5.2409,-5.2409,-5.2409,-5.2473,-5.3152,-5.34,-5.3616,-5.5069,-5.5582,-5.5698,-5.6448,-5.668,-5.668,-5.668,-5.668,-5.668,-5.668,-5.6183,-5.5433,-5.4688,-5.3943,-5.3124,-5.1901,-5.0541,-4.9085,-4.7533,-4.6668,-4.6135,-4.5925,-4.588,-4.588,-4.588,-4.588,-4.588,-4.588,-4.588,-4.588,-4.588,-4.588,-4.588,-4.588,-4.588,-4.588,-4.588,-4.588,-4.588,-4.588,-4.588,-4.588,-4.588,-4.588,-4.588,-4.588,-4.588,-4.588,-4.588,-4.588,-4.588,-4.588,-4.588,-4.588,-4.4615,-4.4615,-4.4542,-4.4338,-4.4224,-4.4126,-4.3956,-4.3793,-4.3717,-4.3789,-4.408,-4.4463,-4.5035,-4.5381,-4.5822,-4.648,-4.7653,0.0,0.0,0.0,0.0,0.0,0.0,0.0,0.0,0.0,0.0,0.0,0.0,0.0,0.0,0.0,-5.5507,-5.5507,-5.5507,-5.5507,-5.5507,-5.5507,-5.5419,-5.5252,-5.471,-5.4171,-5.3649,-5.3128,0.0,0.0,0.0,0.0,0.0,-5.2409,-5.2409,-5.2409,-5.2409,-5.2672,-5.3119,-5.3334,-5.4026,-5.4953,-5.5433,-5.5951,-5.6382,-5.6614,-5.668,-5.6597,-5.61,-5.5968,-5.5852,-5.5355,-5.4676,-5.4026,-5.3831,-5.3235,-5.2472,-5.1496,-5.02,-4.8916,-4.7843,-4.6741,-4.597,-4.5925,-4.588,-4.588,-4.588,-4.588,-4.588,-4.588,-4.588,-4.588,-4.588,-4.588,-4.588,-4.588,-4.588,-4.588,-4.588,-4.588,-4.588,-4.588,-4.588,-4.588,-4.588,-4.588,-4.588,-4.588,-4.588,-4.588,-4.588,-4.588,-4.588,-4.588,-4.588,-4.588,-4.4615,-4.4615,-4.4542,-4.4298,-4.4155,0.0,-4.3822,-4.3687,-4.3598,-4.3598,-4.3818,-4.4179,-4.4597,-4.5035,-4.5477,-4.5905,-4.7401,-4.8495,0.0,0.0,0.0,0.0,0.0,0.0,0.0,0.0,0.0,0.0,0.0,0.0,0.0,0.0,-5.5507,-5.5507,-5.5507,-5.5507,-5.5507,-5.5507,-5.5507,-5.5478,-5.4944,-5.4411,-5.3879,0.0,0.0,0.0,0.0,0.0,0.0,-5.2409,-5.2539,-5.2771,-5.2771,-5.3202,-5.3864,-5.4146,-5.4787,-5.5632,-5.5935,-5.6316,-5.663,-5.6382,-5.61,-5.5736,-5.5007,-5.4953,-5.5019,-5.4274,-5.3728,-5.3351,-5.3086,-5.2705,-5.2142,-5.1118,-5.0041,-4.8916,-4.7801,-4.6741,-4.6015,-4.5925,-4.588,-4.588,-4.588,-4.588,-4.588,-4.588,-4.588,-4.588,-4.588,-4.588,-4.588,-4.588,-4.588,-4.588,-4.588,-4.588,-4.588,-4.588,-4.588,-4.588,-4.588,-4.588,-4.588,-4.588,-4.588,-4.588,-4.588,-4.588,-4.588,-4.588,-4.588,-4.588,0.0,-4.457,-4.4514,-4.4184,0.0,-4.401,-4.3687,-4.3598,0.0,-4.3598,-4.3598,-4.373,-4.4207,-4.4614,-4.5018,-4.5529,-4.7169,0.0,0.0,0.0,0.0,0.0,0.0,0.0,0.0,0.0,0.0,0.0,0.0,0.0,0.0,0.0,0.0,-5.5507,-5.5507,-5.5507,-5.5507,-5.5507,-5.5507,-5.5478,-5.5005,-5.4443,-5.3879,0.0,0.0,0.0,0.0,0.0,0.0,-5.2539,-5.292,-5.35,-5.35,-5.3947,-5.4638,-5.5334,-5.5615,-5.5764,-5.6448,-5.6663,-5.6498,-5.5769,-5.5003,-5.4274,-5.3616,-5.3897,-5.4295,-5.3549,-5.3334,-5.3202,-5.2539,-5.2409,-5.2089,-5.0821,-4.9978,-4.9069,-4.7576,-4.6668,-4.6135,-4.5925,-4.588,-4.588,-4.588,-4.588,-4.588,-4.588,-4.588,-4.588,-4.588,-4.588,-4.588,-4.588,-4.588,-4.588,-4.588,-4.588,-4.588,-4.588,-4.588,-4.588,-4.588,-4.588,-4.588,-4.588,-4.588,-4.588,-4.588,-4.588,-4.588,-4.588,-4.588,-4.588,-4.4338,0.0,-4.4327,-4.4155,-4.4027,-4.3881,0.0,-4.3598,-4.3598,-4.3598,-4.3598,-4.373,-4.4207,-4.4378,-4.4697,-4.5477,-4.6465,-4.7457,0.0,0.0,0.0,0.0,0.0,0.0,0.0,0.0,0.0,0.0,0.0,0.0,0.0,0.0,0.0,-5.5507,-5.5507,-5.5507,-5.5507,-5.5507,-5.5507,-5.5507,-5.5371,-5.4821,-5.3912,0.0,0.0,0.0,0.0,0.0,0.0,-5.4013,-5.4113,-5.4225,-5.4225,-5.4672,-5.535,-5.5532,-5.5968,-5.6465,-5.663,-5.6332,-5.5752,-5.4986,-5.4241,-5.3649,-5.3467,-5.3533,-5.3533,-5.2821,-5.2622,-5.2589,-5.2423,-5.2409,-5.2089,-5.0941,-4.9931,-4.8876,-4.7673,-4.6668,-4.597,-4.5925,-4.588,-4.588,-4.588,-4.588,-4.588,-4.588,-4.588,-4.588,-4.588,-4.588,-4.588,-4.588,-4.588,-4.588,-4.588,-4.588,-4.588,-4.588,-4.588,-4.588,-4.588,-4.588,-4.588,-4.588,-4.588,-4.588,-4.588,-4.588,-4.588,-4.588,-4.588,-4.588,-4.3213,-4.371,-4.4184,-4.4056,-4.3939,-4.3868,-4.3658,-4.3598,-4.3598,-4.3598,-4.3598,-4.3687,-4.3935,-4.415,-4.4463,-4.4917,-4.5804,0.0,0.0,0.0,0.0,0.0,0.0,0.0,0.0,0.0,0.0,0.0,0.0,0.0,0.0,0.0,0.0,0.0,-5.5507,-5.5507,-5.5507,-5.5507,-5.5683,-5.5999,-5.5999,-5.5763,-5.5298,0.0,0.0,0.0,0.0,0.0,-5.449,-5.449,-5.4688,-5.4986,-5.4986,-5.5471,-5.6117,-5.6117,-5.615,-5.62,-5.62,-5.5504,-5.4506,-5.4146,-5.3533,-5.2937,-5.2937,-5.2937,-5.287,-5.2489,-5.2409,-5.2409,-5.2409,-5.2266,-5.1871,-5.0843,-4.9789,-4.8702,-4.7603,-4.6668,-4.6001,-4.5925,-4.588,-4.588,-4.588,-4.588,-4.588,-4.588,-4.588,-4.588,-4.588,-4.588,-4.588,-4.588,-4.588,-4.588,-4.588,-4.588,-4.588,-4.588,-4.588,-4.588,-4.588,-4.588,-4.588,-4.588,-4.588,-4.5735,-4.543,-4.543,-4.5285,-4.5024,-4.5024,-4.5024,-4.1965,-4.2816,-4.3713,-4.3717,-4.3793,-4.3793,-4.3628,-4.3598,-4.3598,-4.3598,-4.3598,-4.3598,-4.3598,-4.3935,0.0,0.0,0.0,0.0,0.0,0.0,0.0,0.0,0.0,0.0,0.0,0.0,0.0,0.0,0.0,0.0,0.0,0.0,0.0,0.0,-5.5507,-5.5507,-5.5507,-5.5507,-5.5823,-5.6438,-5.636,-5.6387,-5.6519,-5.596,0.0,0.0,0.0,0.0,-5.4655,-5.4808,-5.5118,-5.5582,-5.5582,-5.5918,-5.6349,-5.6349,-5.5984,-5.54,-5.5284,-5.444,-5.34,-5.3284,-5.2854,-5.2409,-5.2409,-5.2409,-5.2409,-5.2409,-5.2409,-5.2409,-5.2409,-5.2158,-5.1651,-5.0745,-4.9797,-4.879,-4.7661,-4.6828,-4.6269,-4.6105,-4.597,-4.588,-4.588,-4.588,-4.588,-4.588,-4.588,-4.5851,-4.575,-4.5735,-4.5692,-4.5605,-4.559,-4.559,-4.559,-4.559,-4.559,-4.559,-4.5692,-4.5692,-4.559,-4.559,-4.559,-4.559,-4.559,-4.5314,-4.4748,-4.4748,-4.4487,-4.3993,-4.3993,-4.3993,-4.1707,-4.182,-4.2062,-4.2802,-4.3309,-4.3628,-4.3598,-4.3598,-4.3598,-4.3598,-4.3598,-4.3598,-4.3598,-4.3658,-4.3848,0.0,0.0,0.0,0.0,0.0,0.0,0.0,0.0,0.0,0.0,0.0,0.0,0.0,0.0,0.0,0.0,0.0,0.0,0.0,0.0,-5.5507,-5.5507,-5.5507,-5.5578,-5.5653,-5.5209,-5.4779,-5.4352,-5.3822,-5.3628,0.0,0.0,0.0,-5.5466,-5.61,-5.6067,-5.5582,-5.5582,-5.5305,-5.4858,-5.4858,-5.4792,-5.4556,-5.3964,-5.3599,-5.3318,-5.2738,-5.2473,-5.2409,-5.2409,-5.2409,-5.2409,-5.2409,-5.2409,-5.2409,-5.2409,-5.2338,-5.2017,-5.0941,-5.0274,-4.9607,-4.8538,-4.7505,-4.6785,-4.6756,-4.6269,-4.588,-4.588,-4.588,-4.588,-4.588,-4.588,-4.5677,-4.5111,-4.5039,-4.485,-4.4342,-4.4284,-4.4284,-4.4284,-4.4284,-4.4284,-4.4284,-4.4763,-4.4806,-4.4298,-4.4284,-4.4284,-4.4284,-4.4284,-4.424,-4.4124,-4.4124,-4.4081,-4.3993,-4.3993,-4.3993,-4.0447,-4.0687,-4.1075,-4.1444,-4.1997,-4.2475,-4.2475,-4.2772,-4.3066,-4.3066,-4.3372,-4.3598,0.0,0.0,-4.3687,-4.3877,0.0,0.0,0.0,0.0,0.0,0.0,0.0,0.0,0.0,0.0,0.0,0.0,0.0,0.0,0.0,0.0,0.0,0.0,0.0,0.0,-5.5507,-5.5507,-5.5552,-5.5693,-5.5459,-5.527,-5.5108,-5.4583,-5.4403,0.0,0.0,-5.4672,-5.5019,-5.5371,-5.5322,-5.4986,-5.4986,-5.4787,-5.444,-5.4026,-5.393,-5.3814,-5.3102,-5.2854,-5.2804,-5.2489,-5.2409,-5.2409,-5.2409,-5.2409,-5.2409,-5.2409,-5.2409,-5.2409,-5.2409,-5.223,-5.1961,-5.1417,-5.0249,-4.9032,-4.8177,-4.6845,-4.5719,-4.5418,-4.5069,-4.4864,-4.4864,-4.4864,-4.4864,-4.4864,-4.4864,-4.4748,-4.4443,-4.44,-4.4298,-4.4023,-4.3993,-4.3993,-4.3993,-4.3993,-4.3993,-4.3993,-4.4255,-4.4284,-4.4008,-4.3993,-4.3993,-4.3993,-4.3993,-4.3819,-4.3442,-4.3442,-4.3282,-4.2963,-4.2963,-4.2963,-3.9388,-3.9824,-4.025,-4.025,-4.0873,-4.1492,-4.1492,-4.1949,-4.238,-4.2554,-4.3005,0.0,0.0,-4.3598,0.0,0.0,0.0,0.0,0.0,0.0,0.0,0.0,0.0,0.0,0.0,0.0,0.0,0.0,0.0,0.0,0.0,0.0,0.0,0.0,0.0,0.0,-5.5507,-5.5507,-5.5609,-5.5782,-5.5545,-5.5518,-5.5654,-5.5003,-5.4703,-5.4668,-5.4363,-5.4225,-5.4278,-5.4444,-5.439,-5.4225,-5.4225,-5.4162,-5.3947,-5.3384,-5.3185,-5.3086,-5.2556,-5.2409,-5.2393,-5.221,-5.2161,-5.2127,-5.1926,-5.1877,-5.1877,-5.1877,-5.1877,-5.191,-5.2111,-5.1779,-5.1395,-5.1306,-4.9914,-4.8418,-4.772,-4.6275,-4.4983,-4.4351,-4.4108,-4.3993,-4.3993,-4.3993,-4.3993,-4.3993,-4.3993,-4.3935,-4.3776,-4.3761,-4.3703,-4.3558,-4.3544,-4.3544,-4.3544,-4.3544,-4.3544,-4.3544,-4.3674,-4.3689,-4.3558,-4.3544,-4.3544,-4.3544,-4.3544,-4.3297,-4.2774,-4.2774,-4.2542,-4.2092,-4.2092,-4.2092,-3.9388,-3.946,-3.9481,-3.9481,-4.0497,-4.1492,-4.1492,-4.1558,-4.1754,-4.2443,-4.2648,-4.2865,0.0,-4.3598,0.0,0.0,0.0,0.0,0.0,0.0,0.0,0.0,0.0,0.0,0.0,0.0,0.0,0.0,0.0,0.0,0.0,0.0,0.0,0.0,0.0,0.0,-5.5507,-5.5507,-5.5513,-5.5536,-5.4529,-5.4047,-5.4033,-5.3054,-5.2611,-5.2644,-5.3218,-5.35,-5.3549,-5.4245,-5.4113,-5.35,-5.35,-5.3102,-5.2523,-5.2473,-5.2456,-5.2456,-5.2442,-5.2409,-5.231,-5.1614,-5.1398,-5.1265,-5.0568,-5.0369,-5.0369,-5.0369,-5.0369,-5.0518,-5.1216,-5.0866,-5.0215,-4.9869,-4.9343,-4.8698,-4.77,-4.6621,-4.563,-4.5066,-4.4436,-4.3993,-4.3993,-4.3993,-4.3993,-4.3993,-4.3993,-4.3776,-4.3137,-4.3065,-4.2847,-4.2295,-4.2237,-4.2237,-4.2237,-4.2237,-4.2237,-4.2237,-4.276,-4.2818,-4.2252,-4.2237,-4.2237,-4.2237,-4.2237,-4.2208,-4.2165,-4.2165,-4.2136,-4.2092,-4.2092,-4.2092,-3.9388,-3.911,-3.8886,-3.932,-3.9491,-3.9665,-4.0109,-4.0547,-4.0974,-4.1243,-4.1997,-4.2803,0.0,0.0,0.0,0.0,0.0,0.0,0.0,0.0,0.0,0.0,0.0,0.0,0.0,0.0,0.0,0.0,0.0,0.0,0.0,0.0,0.0,0.0,0.0,0.0,0.0,-5.5262,-5.5507,-5.5478,-5.4411,-5.3715,-5.3382,-5.2694,-5.2409,-5.239,-5.2655,-5.2771,-5.2788,-5.3069,-5.3019,-5.2771,-5.2771,-5.2324,-5.173,-5.173,-5.1413,-5.1032,-5.1032,-5.1032,-5.0982,-5.0701,-5.0618,-5.0568,-5.0286,-5.022,-5.022,-5.022,-4.9889,-4.9707,-5.0419,-5.0213,-4.9791,-4.9634,-4.8781,-4.7794,-4.7044,-4.5727,-4.4473,-4.3886,-4.3233,-4.2818,-4.2818,-4.2818,-4.2818,-4.2818,-4.2818,-4.2716,-4.2469,-4.244,-4.2339,-4.2121,-4.2092,-4.2092,-4.2092,-4.2092,-4.2092,-4.2092,-4.231,-4.2339,-4.2107,-4.2092,-4.2092,-4.2092,-4.2092,-4.2092,-4.2092,-4.2092,-4.2092,-4.2092,-4.2092,-4.2092,-3.9095,-3.8601,-3.8197,-3.8661,-3.8586,-3.8512,-3.899,-3.9622,-4.0285,-4.0737,-4.1933,-4.3066,-4.3539,0.0,0.0,0.0,0.0,0.0,0.0,0.0,0.0,0.0,0.0,0.0,0.0,0.0,0.0,0.0,0.0,0.0,0.0,0.0,0.0,0.0,0.0,0.0,0.0,-5.4507,-5.477,-5.477,-5.3704,-5.3256,-5.3349,-5.2694,-5.2409,-5.2409,-5.2161,-5.2061,-5.2045,-5.1794,-5.1694,-5.1694,-5.1694,-5.138,-5.0932,-5.0932,-5.0634,-5.022,-5.022,-5.022,-5.0171,-4.9939,-4.9856,-4.9823,-4.9591,-4.9525,-4.9525,-4.9525,-4.9144,-4.8879,-4.9375,-4.922,-4.8826,-4.8616,-4.7768,-4.6789,-4.5903,-4.4734,-4.3654,-4.289,-4.2392,-4.2092,-4.2092,-4.2092,-4.2092,-4.2092,-4.2092,-4.2092,-4.2092,-4.2092,-4.2092,-4.2092,-4.2092,-4.2092,-4.2092,-4.2092,-4.2092,-4.2092,-4.2092,-4.2092,-4.2092,-4.2092,-4.2092,-4.2092,-4.2092,-4.2092,-4.2092,-4.2092,-4.2092,-4.2092,-4.2092,-4.2092,-3.8377,-3.7898,-3.7404,-3.7404,-3.7898,-3.8377,-3.8392,-3.8931,-3.9809,-4.1194,-4.26,-4.3582,-4.3598,-4.3598,0.0,0.0,0.0,0.0,0.0,0.0,0.0,0.0,0.0,0.0,0.0,0.0,0.0,0.0,0.0,0.0,0.0,0.0,0.0,0.0,0.0,0.0,0.0,-5.3201,-5.3201,-5.3173,-5.2183,-5.246,-5.3845,-5.2835,-5.2393,-5.2359,-5.163,-5.1299,-5.1249,-5.0502,-5.022,-5.022,-5.022,-5.022,-5.0204,-5.0204,-5.0204,-5.0187,-5.0187,-5.0187,-5.0071,-4.9342,-4.9094,-4.8961,-4.8216,-4.8001,-4.8001,-4.8001,-4.8001,-4.8001,-4.8001,-4.7704,-4.7202,-4.6461,-4.6285,-4.5841,-4.4259,-4.3888,-4.3551,-4.2325,-4.2092,-4.2092,-4.2092,-4.2092,-4.2092,-4.2092,-4.2092,-4.2092,-4.2092,-4.2092,-4.2092,-4.2092,-4.2092,-4.2092,-4.2092,-4.2092,-4.2092,-4.2092,-4.2092,-4.2092,-4.2092,-4.2092,-4.2092,-4.2092,-4.2092,-4.2092,-4.2092,-4.2092,-4.2092,-4.2092,-4.2092,-4.2092,-3.7704,-3.724,-3.6866,-3.73,-3.7554,-3.7823,-3.8287,-3.8931,-3.9661,-4.06,-4.1492,-4.2269,-4.2803,0.0,0.0,0.0,0.0,0.0,0.0,0.0,0.0,0.0,0.0,0.0,0.0,0.0,0.0,0.0,0.0,0.0,0.0,0.0,0.0,0.0,0.0,0.0,0.0,0.0,-5.303,-5.2695,-5.2014,-5.1945,-5.2309,-5.1313,-5.085,-5.085,-5.0618,-5.0535,-5.0518,-5.0303,-5.022,-5.022,-5.022,-4.9889,-4.9442,-4.9442,-4.911,-4.8663,-4.8663,-4.8663,-4.863,-4.8398,-4.8332,-4.8299,-4.8067,-4.8001,-4.8001,-4.8001,-4.8001,-4.7935,-4.7671,-4.7488,-4.7286,-4.6842,-4.6124,-4.5326,-4.4677,-4.3989,-4.3324,-4.285,-4.2392,-4.2092,-4.2092,-4.2092,-4.2092,-4.2092,-4.2092,-4.2092,-4.2092,-4.2092,-4.2092,-4.2092,-4.2092,-4.2092,-4.2092,-4.2092,-4.2092,-4.2092,-4.2092,-4.2092,-4.2092,-4.2092,-4.2092,-4.2092,-4.2092,-4.2092,-4.2092,-4.2092,-4.2092,-4.2092,-4.2092,-4.2092,-3.7045,-3.6582,-3.6252,-3.6881,-3.7225,-3.7659,-3.8586,0.0,0.0,0.0,-4.1026,-4.1722,-4.2443,0.0,0.0,0.0,0.0,0.0,0.0,0.0,0.0,0.0,0.0,0.0,0.0,0.0,0.0,0.0,0.0,0.0,0.0,0.0,0.0,0.0,0.0,0.0,0.0,0.0,0.0,-5.1269,-5.0755,-5.0507,-5.0493,-5.0276,-5.022,-5.0187,-4.9906,-4.9607,-4.9342,-4.9342,-4.9342,-4.9342,-4.9342,-4.9061,-4.8663,-4.8663,-4.8382,-4.8001,-4.8001,-4.8001,-4.8001,-4.8001,-4.8001,-4.8001,-4.8001,-4.8001,-4.8001,-4.8001,-4.8001,-4.7886,-4.7521,-4.7303,-4.715,-4.6945,-4.623,-4.5473,-4.4834,-4.409,-4.3379,-4.2769,-4.2366,-4.2092,-4.2092,-4.2092,-4.2092,-4.2092,-4.2092,-4.2092,-4.2092,-4.2092,-4.2092,-4.2092,-4.2092,-4.2092,-4.2092,-4.2092,-4.2092,-4.2092,-4.2092,-4.2092,-4.2092,-4.2092,-4.2092,-4.2092,-4.2092,-4.2092,-4.2092,-4.2092,-4.2092,-4.2092,-4.2092,-4.2092,-3.6402,-3.5953,-3.5669,-3.6327,-3.7,0.0,-3.9125,-3.9915,-4.0409,-4.0409,0.0,-4.1624,0.0,0.0,0.0,0.0,0.0,0.0,0.0,0.0,0.0,0.0,0.0,0.0,0.0,0.0,0.0,0.0,0.0,0.0,0.0,0.0,0.0,0.0,0.0,0.0,0.0,0.0,0.0,0.0,-4.8903,-4.8671,-4.8658,-4.9576,-5.0005,-4.9972,-4.9293,-4.863,-4.8001,-4.8001,-4.8001,-4.8001,-4.8001,-4.8001,-4.8001,-4.8001,-4.8001,-4.8001,-4.8001,-4.8001,-4.8001,-4.8001,-4.8001,-4.8001,-4.8001,-4.8001,-4.8001,-4.8001,-4.7968,-4.7853,-4.7471,-4.715,-4.6876,-4.6876,-4.6547,-4.5877,-4.4765,-4.419,-4.3576,-4.2407,-4.2175,-4.2175,-4.2092,-4.2092,-4.2092,-4.2092,-4.2092,-4.2092,-4.2092,-4.2092,-4.2092,-4.2092,-4.2092,-4.2092,-4.2092,-4.2092,-4.2092,-4.2092,-4.2092,-4.2092,-4.2092,-4.2092,-4.2092,-4.2092,-4.2092,-4.2092,-4.2092,-4.2092,-4.2092,-4.2092,-4.2092,-4.2092,-3.5714,-3.5609,0.0,-3.6327,-3.7345,-3.8392,-3.9194,-3.9517,-3.9661,-3.9661,-4.0216,0.0,0.0,0.0,0.0,0.0,0.0,0.0,0.0,0.0,0.0,0.0,0.0,0.0,0.0,0.0,0.0,0.0,0.0,0.0,0.0,0.0,0.0,0.0,0.0,0.0,-4.9419,-4.9402,-4.9239,0.0,-4.8733,-4.8498,-4.8164,-4.8348,-4.8481,-4.8465,-4.8315,-4.815,-4.8001,-4.8001,-4.8001,-4.8001,-4.8001,-4.8001,-4.8001,-4.8001,-4.8001,-4.8001,-4.8001,-4.8001,-4.8001,-4.8001,-4.8001,-4.8001,-4.8001,-4.8001,-4.8001,-4.8001,-4.777,-4.7521,-4.7404,-4.715,-4.6876,-4.6876,-4.6159,-4.529,-4.4849,-4.4434,-4.3873,-4.2996,-4.2809,-4.2662,-4.2175,-4.2092,-4.2092,-4.2092,-4.2092,-4.2092,-4.2092,-4.2092,-4.2092,-4.2092,-4.2092,-4.2092,-4.2092,-4.2092,-4.2092,-4.2092,-4.2092,-4.2092,-4.2092,-4.2092,-4.2092,-4.2092,-4.2092,-4.2092,-4.2092,-4.2092,-4.2092,-4.2092,-4.2092,-4.2092,-3.5504,0.0,0.0,-3.6686,0.0,-3.8975,-3.9298,-3.9388,-3.9388,-3.9388,0.0,0.0,0.0,0.0,0.0,0.0,0.0,0.0,0.0,0.0,0.0,0.0,0.0,0.0,0.0,0.0,0.0,0.0,0.0,0.0,0.0,0.0,0.0,0.0,0.0,0.0,-4.8733,-4.8733,-4.8625,-4.8356,-4.8356,-4.8244,-4.8001,-4.8001,-4.8001,-4.8001,-4.8001,-4.8001,-4.8001,-4.8001,-4.8001,-4.8001,-4.8001,-4.8001,-4.805,-4.8398,-4.8531,-4.858,-4.8945,-4.9061,-4.9061,-4.9061,-4.9061,-4.9061,-4.9061,-4.9061,-4.9027,-4.8826,-4.8758,-4.8574,-4.7822,-4.7655,-4.7556,-4.7026,-4.6317,-4.5619,-4.5184,-4.4774,-4.4297,-4.3576,-4.318,-4.2915,-4.2581,-4.2284,-4.2092,-4.2092,-4.2092,-4.2092,-4.2092,-4.2092,-4.2092,-4.2092,-4.2092,-4.2092,-4.2092,-4.2092,-4.2092,-4.2092,-4.2092,-4.2092,-4.2092,-4.2092,-4.2092,-4.2092,-4.2092,-4.2092,-4.2092,-4.2092,-4.2092,-4.2092,-4.2092,-4.2092,-3.5504,-3.5669,-3.6088,-3.715,-3.8422,0.0,-3.9388,-3.9388,-3.9388,0.0,0.0,0.0,0.0,0.0,0.0,0.0,0.0,0.0,0.0,0.0,0.0,0.0,0.0,0.0,0.0,0.0,0.0,0.0,0.0,0.0,0.0,0.0,0.0,0.0,0.0,-4.8001,-4.8001,-4.8001,-4.8001,-4.8001,-4.8001,-4.8001,-4.8001,-4.8001,-4.8001,-4.8001,-4.8001,-4.8001,-4.8001,-4.8001,-4.8001,-4.8017,-4.815,-4.8199,-4.8282,-4.9028,-4.9293,-4.9392,-5.0005,-5.022,-5.022,-5.022,-5.022,-5.022,-5.022,-5.022,-5.0135,-4.9791,-4.9895,-4.9814,-4.8532,-4.8404,-4.8346,-4.7336,-4.6846,-4.6429,-4.5801,-4.5295,-4.4774,-4.4143,-4.3379,-4.2835,-4.2835,-4.2433,-4.2092,-4.2092,-4.2092,-4.2092,-4.2092,-4.2092,-4.2092,-4.2092,-4.2092,-4.2092,-4.2092,-4.2092,-4.2092,-4.2092,-4.2092,-4.2092,-4.2092,-4.2092,-4.2092,-4.2092,-4.2092,-4.2092,-4.2092,-4.2092,-4.2092,-4.2092,-4.2092,-4.2092,-3.5504,0.0,-3.7195,0.0,-3.8422,-3.9388,0.0,0.0,0.0,0.0,0.0,0.0,0.0,0.0,0.0,0.0,0.0,0.0,0.0,0.0,0.0,0.0,0.0,0.0,0.0,0.0,0.0,0.0,0.0,0.0,0.0,0.0,-4.8001,-4.8001,-4.8001,0.0,-4.8001,-4.8001,-4.8001,-4.8001,-4.8001,-4.8001,-4.8001,-4.8001,-4.8001,-4.8001,-4.8001,-4.8001,-4.8001,-4.8001,-4.8001,-4.8067,-4.8713,-4.8961,-4.9044,-4.979,-5.0071,-5.0088,-5.0187,-5.022,-5.022,-5.022,-5.022,-5.022,-5.022,-5.022,-5.0169,-5.0135,-4.9912,-4.9653,-4.9433,-4.9205,-4.8813,-4.8029,-4.7815,-4.7567,-4.6867,-4.6108,-4.5353,-4.4555,-4.3205,-4.2201,-4.2201,-4.2133,-4.2092,-4.2092,-4.2092,-4.2092,-4.2092,-4.2092,-4.2092,-4.2092,-4.2092,-4.2092,-4.2092,-4.2092,-4.2092,-4.2092,-4.2092,-4.2092,-4.2092,-4.2092,-4.2092,-4.2092,-4.2092,-4.2092,-4.2092,-4.2092,-4.2092,-4.2092,-4.2092,-4.2092,-3.5504,-3.6432,-3.7404,0.0,-3.8422,-3.9388,-3.9388,0.0,0.0,0.0,0.0,0.0,0.0,0.0,0.0,0.0,0.0,0.0,0.0,0.0,0.0,0.0,0.0,0.0,0.0,0.0,0.0,0.0,0.0,0.0,0.0,-4.7785,-4.8001,-4.8001,-4.8001,0.0,-4.8001,-4.8001,-4.8001,-4.8001,-4.8001,-4.8001,-4.8001,-4.8001,-4.8001,-4.8001,-4.8001,-4.8001,-4.8001,-4.8001,-4.8001,-4.8034,-4.8365,-4.8481,-4.858,-4.9326,-4.9591,-4.9657,-5.0071,-5.0469,-5.0817,-5.0817,-5.1098,-5.1429,-5.1429,-5.1429,-5.1394,-5.1166,-5.113,-5.0933,-4.9883,-4.9339,-4.88,-4.7652,-4.7061,-4.6684,-4.6356,-4.6327,-4.5985,-4.4728,-4.3545,-4.2607,-4.2175,-4.2092,-4.2092,-4.2092,-4.2092,-4.2092,-4.2092,-4.2092,-4.2092,-4.2092,-4.2092,-4.2092,-4.2092,-4.2092,-4.2092,-4.2092,-4.2092,-4.2092,-4.2092,-4.2092,-4.2092,-4.2092,-4.2092,-4.2092,-4.2092,-4.2092,-4.2092,-4.2092,-4.2092,-4.2092,0.0,0.0,-3.7404,-3.7404,-3.8422,-3.9388,0.0,0.0,0.0,0.0,0.0,0.0,0.0,0.0,0.0,0.0,0.0,0.0,0.0,0.0,0.0,0.0,0.0,0.0,0.0,0.0,0.0,0.0,0.0,0.0,-4.6609,-4.7139,-4.7537,-4.7719,-4.7719,-4.7819,-4.8001,-4.8001,-4.8001,-4.8001,-4.8001,-4.8001,-4.8001,-4.8001,-4.7901,-4.7736,-4.7918,-4.8001,-4.8001,-4.8001,-4.8001,-4.8017,-4.8216,-4.8282,-4.8365,-4.911,-4.9392,-4.9475,-5.0021,-5.0436,-5.0717,-5.0717,-5.0982,-5.1264,-5.1264,-5.1264,-5.1229,-5.0911,-5.1053,-5.0946,-4.9546,-4.9008,-4.8465,-4.7109,-4.6413,-4.595,-4.5451,-4.5911,-4.5908,-4.4271,-4.3542,-4.2981,-4.2242,-4.2092,-4.2092,-4.2092,-4.2092,-4.2092,-4.2092,-4.2092,-4.2092,-4.2092,-4.2092,-4.2092,-4.2092,-4.2092,-4.2092,-4.2092,-4.2092,-4.2092,-4.2092,-4.2092,-4.2092,-4.2092,-4.2092,-4.2092,-4.2092,-4.2092,-4.2092,-4.2092,-4.2092,-4.2092,0.0,-3.6432,0.0,-3.7404,-3.8422,0.0,0.0,0.0,0.0,0.0,0.0,0.0,0.0,0.0,0.0,0.0,0.0,0.0,0.0,0.0,0.0,0.0,0.0,0.0,0.0,0.0,0.0,0.0,0.0,0.0,-4.5847,-4.5881,-4.6228,-4.6941,-4.6957,-4.7289,-4.8001,-4.8001,-4.8001,-4.8001,-4.8001,-4.8001,-4.8001,-4.8001,-4.762,-4.699,-4.7703,-4.8001,-4.8001,-4.8001,-4.8001,-4.8067,-4.8779,-4.9044,-4.9144,-4.9889,-5.0154,-5.0171,-5.0204,-4.9773,-4.9226,-4.9226,-4.8779,-4.8233,-4.8233,-4.8233,-4.8233,-4.82,-4.8233,-4.8216,-4.81,-4.8051,-4.777,-4.6701,-4.6649,-4.637,-4.457,-4.4612,-4.4488,-4.2757,-4.2723,-4.2795,-4.2216,-4.2092,-4.2092,-4.2092,-4.2092,-4.2092,-4.2092,-4.2092,-4.2092,-4.2092,-4.2092,-4.2092,-4.2092,-4.2092,-4.2092,-4.2092,-4.2092,-4.2092,-4.2092,-4.2092,-4.2092,-4.2092,-4.2092,-4.2092,-4.2092,-4.2092,-4.2092,-4.2092,-4.2092,-4.2092,0.0,0.0,0.0,-3.73,-3.8093,-3.8871,0.0,0.0,0.0,0.0,0.0,0.0,0.0,0.0,0.0,0.0,0.0,0.0,0.0,0.0,0.0,0.0,0.0,0.0,0.0,0.0,0.0,0.0,0.0,0.0,-4.5086,-4.5533,-4.5914,-4.6179,-4.6179,-4.6311,-4.6576,-4.6576,-4.6576,-4.6576,-4.6576,-4.6576,-4.6576,-4.6576,-4.6444,-4.6195,-4.646,-4.6576,-4.6576,-4.6576,-4.6576,-4.6609,-4.6874,-4.6974,-4.7007,-4.7272,-4.7371,-4.7371,-4.7371,-4.7504,-4.7686,-4.7686,-4.7835,-4.8001,-4.8001,-4.8001,-4.8001,-4.8001,-4.8001,-4.7885,-4.7421,-4.6941,-4.6152,-4.4396,-4.407,-4.3766,-4.2382,-4.305,-4.3486,-4.2115,-4.1608,-4.1253,-4.0895,-4.1163,-4.1453,-4.1453,-4.1816,-4.2092,-4.2092,-4.2092,-4.2092,-4.2092,-4.2092,-4.2092,-4.2092,-4.2092,-4.2092,-4.2092,-4.2092,-4.2092,-4.2092,-4.2092,-4.2092,-4.2092,-4.2092,-4.2092,-4.2092,-4.2092,-4.2092,-4.2092,-4.2092,-4.2092,-3.5504,0.0,0.0,0.0,0.0,-3.8512,0.0,0.0,0.0,0.0,0.0,0.0,0.0,0.0,0.0,0.0,0.0,0.0,0.0,0.0,0.0,0.0,0.0,0.0,0.0,0.0,0.0,0.0,0.0,0.0,-4.4324,-4.4804,-4.5168,-4.5417,-4.5665,-4.5798,-4.5798,-4.5798,-4.5798,-4.5798,-4.5798,-4.5798,-4.5798,-4.5798,-4.5649,-4.5417,-4.5417,-4.5566,-4.5798,-4.5798,-4.5798,-4.5798,-4.5798,-4.5798,-4.5798,-4.5798,-4.5798,-4.5798,-4.5798,-4.5947,-4.6146,-4.6146,-4.6328,-4.6527,-4.6527,-4.6527,-4.6527,-4.6527,-4.6527,-4.6411,-4.593,-4.5167,-4.4229,-4.2906,-4.2317,-4.1819,-4.0925,-4.1863,-4.2587,-4.147,-4.1076,-4.0757,-4.0393,-4.0585,-4.0851,-4.0851,-4.1378,-4.1758,-4.1758,-4.1961,-4.2092,-4.2092,-4.2092,-4.2092,-4.2092,-4.2092,-4.2092,-4.2092,-4.2092,-4.2092,-4.2092,-4.2092,-4.2092,-4.2092,-4.2092,-4.2092,-4.2092,-4.2092,-4.2092,-4.2092,-4.2092,-4.2092,0.0,0.0,0.0,0.0,0.0,0.0,0.0,0.0,0.0,0.0,0.0,0.0,0.0,0.0,0.0,0.0,0.0,0.0,0.0,0.0,0.0,0.0,0.0,0.0,0.0,0.0,0.0,0.0,0.0,-4.3598,-4.3598,-4.3598,-4.3943,-4.4622,-4.5351,-4.5732,-4.5732,-4.5732,-4.5732,-4.5732,-4.5732,-4.5732,-4.5732,-4.5732,-4.5334,-4.4655,-4.4655,-4.5052,-4.5732,-4.5732,-4.5732,-4.5732,-4.5732,-4.5732,-4.5732,-4.5732,-4.5732,-4.5732,-4.5732,-4.5251,-4.4655,-4.4655,-4.4191,-4.3598,-4.3598,-4.3598,-4.3598,-4.3598,-4.3598,-4.3598,-4.3598,-4.2867,-4.2238,-4.2522,-4.1803,-4.0873,-4.032,-4.1156,-4.174,-4.074,-4.1121,-4.1423,-4.0775,-4.0466,-4.0364,-4.0364,-4.076,-4.1076,-4.1062,-4.1657,-4.2063,-4.2063,-4.2092,-4.2092,-4.2092,-4.2092,-4.2092,-4.2092,-4.2092,-4.2092,-4.2092,-4.2092,-4.2092,-4.2092,-4.2092,-4.2092,-4.2092,-4.2092,-4.2092,-4.2092,-4.2092,-4.2092,-3.5504,0.0,0.0,0.0,0.0,0.0,0.0,0.0,0.0,0.0,0.0,0.0,0.0,0.0,0.0,0.0,0.0,0.0,0.0,0.0,0.0,0.0,0.0,0.0,0.0,0.0,0.0,0.0,0.0,-4.3598,-4.3598,-4.3598,-4.3681,-4.391,-4.4108,-4.4194,-4.4194,-4.4194,-4.4194,-4.4194,-4.4194,-4.4194,-4.4194,-4.4194,-4.4108,-4.388,-4.388,-4.4042,-4.4194,-4.4194,-4.4194,-4.4194,-4.4194,-4.4194,-4.4194,-4.4194,-4.4194,-4.4194,-4.4194,-4.4092,-4.388,-4.388,-4.3764,-4.3598,-4.3598,-4.3598,-4.3598,-4.3598,-4.3598,-4.3598,-4.3598,-4.3402,-4.3082,-4.2679,-4.1965,-4.1194,-4.0547,-4.0263,-3.9988,-3.9393,-3.9358,-3.9379,-3.9327,-3.9574,-3.9744,-3.9744,-4.0247,-4.0538,-4.0419,-4.096,-4.1381,-4.1381,-4.1802,-4.2092,-4.2092,-4.2092,-4.2092,-4.2092,-4.2092,-4.2092,-4.2092,-4.2092,-4.2092,-4.2092,-4.2092,-4.2092,-4.2092,-4.2092,-4.2092,-4.2092,-4.2092,-4.2092,-3.5504,-3.5504,-3.5594,0.0,0.0,0.0,0.0,-3.8003,0.0,0.0,0.0,0.0,0.0,0.0,0.0,0.0,0.0,0.0,0.0,0.0,0.0,0.0,0.0,0.0,0.0,0.0,0.0,0.0,-4.3235,-4.3598,-4.3598,-4.3598,-4.3598,-4.3598,-4.3598,-4.3598,-4.3598,-4.3598,-4.3598,-4.3598,-4.3598,-4.3598,-4.3598,-4.3598,-4.3598,-4.3598,-4.3598,-4.3598,-4.3598,-4.3598,-4.3598,-4.3598,-4.3598,-4.3598,-4.3598,-4.3598,-4.3598,-4.3598,-4.3598,-4.3598,-4.3598,-4.3598,-4.3598,-4.3598,-4.3598,-4.3598,-4.3598,-4.3598,-4.3598,-4.3598,-4.3598,-4.3157,-4.2648,-4.2221,-4.136,-4.0512,-4.0111,-3.9681,-3.9301,-3.898,-3.8833,-3.876,-3.8782,-3.8972,-3.9071,-3.9071,-3.9551,-3.9843,-3.9726,-4.0292,-4.067,-4.067,-4.1033,-4.1265,-4.1265,-4.1512,-4.1671,-4.1671,-4.1947,-4.2092,-4.2092,-4.2092,-4.2092,-4.2092,-4.2092,-4.2092,-4.2092,-4.2092,-4.2092,-4.2092,-4.2092,-4.2092,-3.5504,-3.5504,-3.5504,0.0,0.0,0.0,-3.6477,-3.7375,0.0,0.0,0.0,0.0,0.0,0.0,0.0,0.0,0.0,0.0,0.0,0.0,0.0,0.0,0.0,0.0,0.0,0.0,0.0,-4.2412,-4.3157,-4.3598,-4.3598,-4.3598,-4.3598,-4.3598,-4.3598,-4.3598,-4.3598,-4.3598,-4.3598,-4.3598,-4.3598,-4.3598,-4.3598,-4.3598,-4.3598,-4.3598,-4.3598,-4.3598,-4.3598,-4.3598,-4.3598,-4.3598,-4.3598,-4.3598,-4.3598,-4.3598,-4.3598,-4.3598,-4.3598,-4.3598,-4.3598,-4.3598,-4.3598,-4.3598,-4.3598,-4.3598,-4.3598,-4.3598,-4.3539,-4.3492,-4.3492,-4.2506,-4.1492,-4.1492,-4.0478,-3.9517,-3.9517,-3.9445,-3.9337,-3.9141,-3.9104,-3.9031,-3.887,-3.8686,-3.8553,-3.8553,-3.8914,-3.9164,-3.9164,-3.9664,-4.0027,-4.0027,-4.006,-4.0104,-4.0104,-4.0641,-4.0989,-4.0989,-4.1541,-4.1874,-4.1874,-4.1874,-4.1874,-4.1874,-4.1874,-4.1874,-4.1874,-4.202,-4.2092,-4.2092,-4.202,-4.199,0.0,0.0,0.0,0.0,0.0,0.0,-3.6372,-3.6671,-3.7,0.0,0.0,0.0,0.0,0.0,0.0,0.0,0.0,0.0,0.0,0.0,0.0,0.0,0.0,0.0,0.0,0.0,-4.1558,-4.1689,-4.2881,-4.3598,-4.3598,-4.3598,-4.3598,-4.3598,-4.3598,-4.3598,-4.3598,-4.3598,-4.3598,-4.3598,-4.3598,-4.3598,-4.3598,-4.3598,-4.3598,-4.3598,-4.3598,-4.3598,-4.3598,-4.3598,-4.3598,-4.3598,-4.3598,-4.3598,-4.3598,-4.3598,-4.3598,-4.3598,-4.3598,-4.3598,-4.3598,-4.3598,-4.3598,-4.3598,-4.3598,-4.3598,-4.3598,-4.3598,-4.3204,-4.2789,-4.2789,-4.2158,-4.1492,-4.1492,-4.0873,-4.0285,-4.0285,-3.9824,-3.9337,-3.9141,-3.9104,-3.9104,-3.9068,-3.9031,-3.8922,-3.876,-3.8952,-3.9077,-3.8914,-3.9299,-3.9618,-3.9618,-3.9916,-4.0104,-4.0104,-4.022,-4.0292,-4.0292,-4.0423,-4.0481,-4.0481,-4.0481,-4.0481,-4.0481,-4.0481,-4.0481,-4.0481,-4.157,-4.2092,-4.2092,-4.1541,-4.1294,0.0,0.0,0.0,-3.5504,0.0,0.0,0.0,-3.6252,0.0,0.0,0.0,0.0,0.0,0.0,0.0,0.0,0.0,0.0,0.0,0.0,0.0,0.0,0.0,0.0,0.0,0.0,-4.1294,-4.1981,-4.271,-4.3235,-4.3598,-4.3598,-4.3598,-4.3598,-4.3598,-4.3598,-4.3598,-4.3598,-4.3598,-4.3598,-4.3598,-4.3598,-4.3598,-4.3598,-4.3598,-4.3598,-4.3598,-4.3598,-4.3598,-4.3598,-4.3598,-4.3598,-4.3598,-4.3598,-4.3598,-4.3598,-4.3598,-4.3598,-4.3598,-4.3598,-4.3598,-4.3598,-4.3598,-4.3598,-4.3598,-4.3372,-4.3035,-4.2648,-4.2317,-4.2045,-4.2045,-4.1525,-4.1008,-4.1008,-4.0478,-3.995,-3.995,-3.9646,-3.9373,-3.9265,-3.9265,-3.9177,-3.898,-3.8943,-3.8907,-3.8819,-3.8907,-3.8907,-3.8819,-3.9003,-3.9096,-3.8998,-3.9162,-3.9275,-3.9146,-3.9465,-3.9654,-3.9654,-3.9929,-4.0104,-4.0104,-4.0104,-4.0104,-4.0104,-4.0104,-4.0104,-4.0104,-4.0771,-4.1091,-4.1091,-4.0757,-4.0597,0.0,0.0,0.0,0.0,0.0,-3.5504,0.0,0.0,0.0,0.0,0.0,0.0,0.0,0.0,0.0,0.0,0.0,0.0,0.0,0.0,0.0,0.0,0.0,0.0,0.0,0.0,-4.0898,-4.2296,-4.2515,-4.2888,-4.3552,-4.3598,-4.3598,-4.3598,-4.3598,-4.3598,-4.3598,-4.3598,-4.3598,-4.3598,-4.3598,-4.3598,-4.3598,-4.3598,-4.3598,-4.3598,-4.3598,-4.3598,-4.3598,-4.3598,-4.3598,-4.3598,-4.3598,-4.3598,-4.3598,-4.3598,-4.3598,-4.3598,-4.3598,-4.3598,-4.3598,-4.3598,-4.3598,-4.3598,-4.3462,-4.3035,-4.2459,-4.1722,-4.1393,-4.1294,-4.1294,-4.0907,-4.0512,-4.0512,-4.0056,-3.961,-3.961,-3.9517,-3.9388,-3.9388,-3.9388,-3.9265,-3.8907,-3.8907,-3.8907,-3.8819,-3.8819,-3.8819,-3.8782,-3.876,-3.8686,-3.8516,-3.8478,-3.8366,-3.8202,-3.8696,-3.9015,-3.9053,-3.9504,-3.9804,-3.9843,-3.9843,-3.9843,-3.9765,-3.9765,-3.9765,-3.9726,-3.9726,-3.9857,-4.0104,-3.9973,-3.9929,0.0,0.0,0.0,0.0,-3.5504,0.0,0.0,0.0,0.0,0.0,0.0,0.0,0.0,0.0,0.0,0.0,0.0,0.0,0.0,0.0,0.0,0.0,0.0,0.0,0.0,0.0,0.0,-4.1598,-4.2206,-4.2828,-4.3565,-4.3598,-4.3598,-4.3598,-4.3598,-4.3598,-4.3598,-4.3598,-4.3598,-4.3598,-4.3598,-4.3598,-4.3598,-4.3598,-4.3598,-4.3598,-4.3598,-4.3598,-4.3598,-4.3598,-4.3598,-4.3598,-4.3598,-4.3598,-4.3598,-4.3598,-4.3598,-4.3598,-4.3598,-4.3598,-4.3598,-4.3598,-4.3598,-4.3492,-4.2881,-4.2648,-4.2459,-4.1722,-4.106,-4.0615,-4.0615,-4.0547,-4.0512,-4.0512,-4.0459,-4.0389,-4.0389,-3.9844,-3.9388,-3.9388,-3.9388,-3.9337,-3.9104,-3.9228,-3.9228,-3.887,-3.8943,-3.898,-3.8819,-3.8649,-3.8516,-3.8478,-3.8329,-3.8202,-3.8202,-3.8275,-3.8393,-3.8558,-3.8654,-3.8758,-3.8929,-3.8966,-3.8855,-3.8698,-3.8698,-3.857,-3.842,-3.842,-3.9,-4.0089,-3.9552,-3.9305,0.0,0.0,0.0,0.0,0.0,0.0,-3.5504,0.0,-3.5504,0.0,0.0,0.0,0.0,0.0,0.0,0.0,0.0,0.0,0.0,0.0,0.0,0.0,0.0,0.0,0.0,0.0,0.0,0.0,0.0,-4.1193,-4.2381,-4.2759,-4.3151,-4.3582,-4.3598,-4.3598,-4.3598,-4.3598,-4.3598,-4.3598,-4.3598,-4.3598,-4.3598,-4.3598,-4.3598,-4.3598,-4.3598,-4.3598,-4.3598,-4.3598,-4.3598,-4.3598,-4.3598,-4.3598,-4.3598,-4.3598,-4.3598,-4.3598,-4.3598,-4.3598,-4.3598,-4.3598,-4.3598,-4.3462,-4.2803,-4.2285,-4.1819,-4.1142,-4.0718,-4.0512,-4.0512,-4.0771,-4.1075,-4.1075,-4.0771,-4.0512,-4.0512,-3.9915,-3.9388,-3.9388,-3.9388,-3.9373,-3.9301,-3.9337,-3.9337,-3.9177,-3.9228,-3.9228,-3.9141,-3.9068,-3.8973,-3.8848,-3.876,-3.8686,-3.856,-3.856,-3.8575,-3.8686,-3.8686,-3.8649,-3.8612,-3.8612,-3.8538,-3.8329,-3.8329,-3.8277,-3.8202,-3.8202,-3.8478,-3.8986,-3.8739,-3.8623,-3.5504,0.0,0.0,0.0,0.0,0.0,0.0,0.0,0.0,0.0,0.0,0.0,0.0,0.0,0.0,0.0,0.0,0.0,0.0,0.0,0.0,0.0,0.0,0.0,0.0,0.0,0.0,0.0,-3.9233,0.0,-4.1463,-4.1972,-4.2423,-4.2969,-4.3184,-4.33,-4.33,-4.3499,-4.3598,-4.3598,-4.3598,-4.3598,-4.3598,-4.3598,-4.3598,-4.3598,-4.3598,-4.3598,-4.3598,-4.3598,-4.3598,-4.3598,-4.3598,-4.3598,-4.3598,-4.3598,-4.3598,-4.3598,-4.3598,-4.3598,-4.3598,-4.3598,-4.3598,-4.3462,-4.2803,-4.2221,-4.1656,-4.0974,-4.0771,-4.0771,-4.0771,-4.1309,-4.1787,-4.1787,-4.1426,-4.1008,-4.0805,-4.0216,-3.9646,-3.946,-3.9388,-3.9388,-3.9388,-3.9388,-3.9388,-3.9337,-3.9301,-3.9301,-3.9228,-3.9228,-3.9177,-3.9017,-3.9017,-3.8943,-3.8819,-3.8782,-3.8819,-3.887,-3.887,-3.8797,-3.8664,-3.8627,-3.8516,-3.8277,-3.8277,-3.824,-3.8202,-3.824,-3.8277,-3.8277,-3.824,-3.8202,0.0,0.0,0.0,-3.5504,0.0,0.0,0.0,0.0,-3.5504,0.0,0.0,0.0,0.0,0.0,-3.5504,-3.5504,0.0,0.0,0.0,0.0,0.0,0.0,0.0,0.0,0.0,0.0,0.0,0.0,-3.9675,0.0,-4.138,-4.1413,-4.1458,-4.1475,-4.2158,-4.2522,-4.2522,-4.3234,-4.3598,-4.3598,-4.3598,-4.3598,-4.3598,-4.3598,-4.3598,-4.3598,-4.3598,-4.3598,-4.3598,-4.3598,-4.3598,-4.3598,-4.3598,-4.3598,-4.3598,-4.3598,-4.3598,-4.3598,-4.3598,-4.3598,-4.3598,-4.3598,-4.3598,-4.3462,-4.2803,-4.2585,-4.2412,-4.1689,-4.1459,-4.1459,-4.1459,-4.2013,-4.2554,-4.2554,-4.2554,-4.2349,-4.1624,-4.094,-4.025,-3.9553,-3.9388,-3.9388,-3.9388,-3.9388,-3.9337,-3.9141,-3.9104,-3.9031,-3.8819,-3.8819,-3.8819,-3.8819,-3.8819,-3.8819,-3.8782,-3.8782,-3.887,-3.9068,-3.9104,-3.9104,-3.9068,-3.8907,-3.8686,-3.8478,-3.8478,-3.8404,-3.8202,-3.8404,-3.8478,-3.8478,-3.8277,-3.8202,0.0,0.0,-3.5504,-3.5504,0.0,0.0,0.0,0.0,0.0,0.0,0.0,0.0,0.0,0.0,-3.5504,-3.5504,-3.5504,-3.5504,0.0,0.0,0.0,0.0,0.0,0.0,0.0,0.0,0.0,-3.65,-3.7279,0.0,0.0,-3.9852,-4.0484,-4.1364,-4.1657,-4.1993,-4.2489,-4.2738,-4.3118,-4.3598,-4.3598,-4.3598,-4.3598,-4.3598,-4.3598,-4.3598,-4.3598,-4.3598,-4.3598,-4.3598,-4.3598,-4.3598,-4.3598,-4.3598,-4.3598,-4.3598,-4.3598,-4.3598,-4.3598,-4.3598,-4.3598,-4.3598,-4.3598,-4.3568,-4.3342,-4.2943,-4.2554,-4.2285,-4.2221,-4.2221,-4.2221,-4.2741,-4.3143,-4.271,-4.2221,-4.1689,-4.1008,-4.0285,-3.9681,-3.9445,-3.9388,-3.9388,-3.9388,-3.9388,-3.9388,-3.9301,-3.9301,-3.9265,-3.9228,-3.9177,-3.9177,-3.9177,-3.9177,-3.9177,-3.9177,-3.9177,-3.9228,-3.9301,-3.9301,-3.9228,-3.9104,-3.9017,-3.8907,-3.8686,-3.8686,-3.8686,-3.8612,-3.8686,-3.8686,-3.8686,-3.8516,-3.8464,-3.5504,-3.5504,0.0,0.0,-3.5504,0.0,-3.5504,0.0,0.0,0.0,0.0,0.0,0.0,0.0,-3.5504,-3.5504,-3.5504,-3.5504,0.0,-3.5504,0.0,0.0,0.0,0.0,0.0,0.0,-3.5829,-3.5829,-3.66,-3.747,0.0,0.0,-3.9745,-4.0647,-4.0912,-4.1276,-4.1756,-4.227,-4.2738,-4.3201,-4.3466,-4.3598,-4.3598,-4.3598,-4.3598,-4.3598,-4.3598,-4.3598,-4.3598,-4.3598,-4.3598,-4.3598,-4.3598,-4.3598,-4.3598,-4.3598,-4.3598,-4.3598,-4.3598,-4.3598,-4.3598,-4.3598,-4.3598,-4.3598,-4.3598,-4.3295,-4.2943,-4.2943,-4.2943,-4.2943,-4.2943,-4.3113,-4.3143,-4.271,-4.2061,-4.1327,-4.0634,-4.0111,-3.9717,-3.9445,-3.9388,-3.9388,-3.9388,-3.9388,-3.9388,-3.9388,-3.9388,-3.9388,-3.9388,-3.9388,-3.9388,-3.9388,-3.9388,-3.9388,-3.9388,-3.9388,-3.9388,-3.9388,-3.9337,-3.9228,-3.9104,-3.9017,-3.8943,-3.8782,-3.8782,-3.8782,-3.8782,-3.887,-3.887,-3.8782,-3.8723,-3.8723]},{"header":{"parameterUnit":"m.s-1","parameterCategory":1,"la1":30.6,"la2":29.2853,"lo1":-89.7004,"lo2":-87.6739,"dy":0.0162,"dx":0.0183,"nx":112,"ny":82,"refTime":"2023-07-11T06:00:00:Z","depth":0,"parameterNumber":3,"parameterNumberName":"V-component_of_WINDS"},"data":[0.0,0.0,0.0,0.0,0.0,0.0,0.0,0.0,0.0,0.0,0.0,0.0,0.0,0.0,0.0,0.0,0.0,0.0,0.0,0.0,0.0,0.0,0.0,0.0,0.0,0.0,0.0,0.0,0.0,0.0,0.0,0.0,0.0,0.0,0.0,0.0,0.0,0.0,0.0,0.0,0.0,0.0,0.0,0.0,0.0,0.0,0.0,0.0,0.0,0.0,0.0,0.0,0.0,0.0,0.0,0.0,0.0,0.0,0.0,0.0,0.0,0.0,0.0,0.0,0.0,0.0,0.0,0.0,0.0,0.0,0.0,0.0,0.0,0.0,0.0,0.0,0.0,0.0,0.0,0.0,0.0,0.0,0.0,0.0,0.0,0.0,0.0,0.0,0.0,0.0,0.0,-2.8669,-2.961,-3.0012,-2.9836,-3.032,-3.0991,-3.1769,0.0,0.0,0.0,0.0,0.0,0.0,0.0,0.0,0.0,0.0,0.0,0.0,0.0,0.0,0.0,0.0,0.0,0.0,0.0,0.0,0.0,0.0,0.0,0.0,0.0,0.0,0.0,0.0,0.0,0.0,0.0,0.0,0.0,0.0,0.0,0.0,0.0,0.0,0.0,0.0,0.0,0.0,0.0,0.0,0.0,0.0,0.0,0.0,0.0,0.0,0.0,0.0,0.0,0.0,0.0,0.0,0.0,0.0,0.0,0.0,0.0,0.0,0.0,0.0,0.0,0.0,0.0,0.0,0.0,0.0,0.0,0.0,0.0,0.0,0.0,0.0,0.0,0.0,0.0,0.0,0.0,0.0,0.0,0.0,0.0,0.0,0.0,0.0,0.0,0.0,0.0,0.0,0.0,0.0,0.0,0.0,0.0,0.0,0.0,0.0,0.0,0.0,0.0,0.0,-2.7668,-2.9228,-3.131,-3.2228,-3.136,-3.2115,-3.2711,-3.284,0.0,0.0,0.0,0.0,0.0,0.0,0.0,0.0,0.0,0.0,0.0,0.0,0.0,0.0,0.0,0.0,0.0,0.0,0.0,0.0,0.0,0.0,0.0,0.0,0.0,0.0,0.0,0.0,0.0,0.0,0.0,0.0,0.0,0.0,0.0,0.0,0.0,0.0,0.0,0.0,0.0,0.0,0.0,0.0,0.0,0.0,0.0,0.0,0.0,0.0,0.0,0.0,0.0,0.0,0.0,0.0,0.0,0.0,0.0,0.0,0.0,0.0,0.0,0.0,0.0,0.0,0.0,0.0,0.0,0.0,0.0,0.0,0.0,0.0,0.0,0.0,0.0,0.0,0.0,0.0,0.0,0.0,0.0,0.0,0.0,0.0,0.0,0.0,0.0,0.0,0.0,0.0,0.0,0.0,0.0,0.0,0.0,0.0,0.0,0.0,0.0,0.0,0.0,-2.9607,-3.0553,-3.0646,-3.2104,-3.2896,-3.2438,-3.2853,-3.3124,-3.3124,-3.2667,0.0,0.0,0.0,0.0,0.0,0.0,0.0,0.0,0.0,0.0,0.0,0.0,0.0,0.0,0.0,0.0,0.0,0.0,0.0,0.0,0.0,0.0,0.0,0.0,0.0,0.0,0.0,0.0,0.0,0.0,0.0,0.0,0.0,0.0,0.0,0.0,0.0,0.0,0.0,0.0,0.0,0.0,0.0,0.0,0.0,0.0,0.0,0.0,0.0,0.0,0.0,0.0,0.0,0.0,0.0,0.0,0.0,0.0,0.0,0.0,0.0,0.0,0.0,0.0,0.0,0.0,0.0,0.0,0.0,0.0,0.0,0.0,0.0,0.0,0.0,0.0,0.0,0.0,0.0,0.0,0.0,0.0,0.0,0.0,0.0,0.0,0.0,0.0,0.0,0.0,0.0,0.0,0.0,0.0,0.0,0.0,0.0,0.0,0.0,0.0,0.0,0.0,-3.1938,-3.284,-3.2033,-3.2655,-3.3154,-3.3124,-3.3124,-3.3124,-3.3124,-3.3154,0.0,0.0,0.0,0.0,0.0,0.0,0.0,0.0,0.0,0.0,0.0,0.0,0.0,0.0,0.0,0.0,0.0,0.0,0.0,0.0,0.0,0.0,0.0,0.0,0.0,0.0,0.0,0.0,0.0,0.0,0.0,0.0,0.0,0.0,0.0,0.0,0.0,0.0,0.0,0.0,0.0,0.0,0.0,0.0,0.0,0.0,0.0,0.0,0.0,0.0,0.0,0.0,0.0,0.0,0.0,0.0,0.0,0.0,0.0,0.0,0.0,0.0,0.0,0.0,0.0,0.0,0.0,0.0,0.0,0.0,0.0,0.0,0.0,0.0,0.0,0.0,0.0,0.0,0.0,0.0,0.0,0.0,0.0,0.0,0.0,0.0,0.0,0.0,0.0,0.0,0.0,0.0,0.0,0.0,0.0,0.0,0.0,0.0,0.0,0.0,0.0,0.0,-3.2575,-3.327,-3.3025,-3.3227,-3.3313,-3.3124,-3.3124,-3.3124,-3.3124,-3.3283,0.0,0.0,0.0,0.0,0.0,0.0,0.0,0.0,0.0,0.0,0.0,0.0,0.0,0.0,0.0,0.0,0.0,0.0,0.0,0.0,0.0,0.0,0.0,0.0,0.0,0.0,0.0,0.0,0.0,0.0,0.0,0.0,0.0,0.0,0.0,0.0,0.0,0.0,0.0,0.0,0.0,0.0,0.0,0.0,0.0,0.0,0.0,0.0,0.0,0.0,0.0,0.0,0.0,0.0,0.0,0.0,0.0,0.0,0.0,0.0,0.0,0.0,0.0,0.0,0.0,0.0,0.0,0.0,0.0,0.0,0.0,0.0,0.0,0.0,0.0,0.0,0.0,0.0,0.0,0.0,0.0,0.0,0.0,0.0,0.0,0.0,0.0,0.0,0.0,0.0,0.0,0.0,0.0,0.0,0.0,0.0,0.0,0.0,0.0,0.0,0.0,0.0,-3.3013,-3.3197,0.0,-3.3154,-3.3197,-3.3124,-3.3124,-3.3124,-3.3124,0.0,0.0,0.0,0.0,0.0,0.0,0.0,0.0,0.0,0.0,0.0,0.0,0.0,0.0,0.0,0.0,0.0,0.0,0.0,0.0,0.0,0.0,0.0,0.0,0.0,0.0,0.0,0.0,0.0,0.0,0.0,0.0,0.0,0.0,0.0,0.0,0.0,0.0,0.0,0.0,0.0,0.0,0.0,0.0,0.0,0.0,0.0,0.0,0.0,0.0,0.0,0.0,0.0,0.0,0.0,0.0,0.0,0.0,0.0,0.0,0.0,0.0,0.0,0.0,0.0,0.0,0.0,0.0,0.0,0.0,0.0,0.0,0.0,0.0,0.0,0.0,0.0,0.0,0.0,0.0,0.0,0.0,0.0,0.0,0.0,0.0,0.0,0.0,0.0,0.0,0.0,0.0,0.0,0.0,0.0,0.0,0.0,0.0,0.0,0.0,0.0,0.0,-3.3398,-3.3356,-3.3283,0.0,-3.3197,-3.3154,-3.3124,-3.3124,-3.3124,-3.3124,0.0,0.0,0.0,0.0,0.0,0.0,0.0,0.0,0.0,0.0,0.0,0.0,0.0,0.0,0.0,0.0,0.0,0.0,0.0,0.0,0.0,0.0,0.0,0.0,0.0,0.0,0.0,0.0,0.0,0.0,0.0,0.0,0.0,0.0,0.0,0.0,0.0,0.0,0.0,0.0,0.0,0.0,0.0,0.0,0.0,0.0,0.0,0.0,0.0,0.0,0.0,0.0,0.0,0.0,0.0,0.0,0.0,0.0,0.0,0.0,0.0,0.0,0.0,0.0,0.0,0.0,0.0,0.0,0.0,0.0,0.0,0.0,0.0,0.0,0.0,0.0,0.0,0.0,0.0,0.0,0.0,0.0,0.0,0.0,0.0,0.0,0.0,0.0,0.0,0.0,0.0,0.0,0.0,0.0,0.0,0.0,0.0,0.0,0.0,0.0,0.0,0.0,-3.3441,-3.3598,-3.3641,-3.3441,-3.3398,-3.3313,-3.3124,-3.3124,-3.3124,0.0,0.0,0.0,0.0,0.0,0.0,0.0,0.0,0.0,0.0,0.0,0.0,0.0,0.0,0.0,0.0,0.0,0.0,0.0,0.0,0.0,0.0,0.0,0.0,0.0,0.0,0.0,0.0,0.0,0.0,0.0,0.0,0.0,0.0,0.0,0.0,0.0,0.0,0.0,0.0,0.0,0.0,0.0,0.0,0.0,0.0,0.0,0.0,0.0,0.0,0.0,0.0,0.0,0.0,0.0,0.0,0.0,0.0,0.0,0.0,0.0,0.0,0.0,0.0,0.0,0.0,0.0,0.0,0.0,0.0,0.0,0.0,0.0,0.0,0.0,0.0,0.0,0.0,0.0,0.0,0.0,0.0,0.0,0.0,0.0,0.0,0.0,0.0,0.0,0.0,0.0,0.0,0.0,0.0,0.0,0.0,0.0,0.0,0.0,0.0,0.0,0.0,0.0,-3.3598,-3.3556,-3.3471,-3.3398,-3.3398,-3.3313,-3.3124,-3.3124,-3.3154,-3.3313,0.0,0.0,0.0,0.0,0.0,0.0,0.0,0.0,0.0,0.0,0.0,0.0,0.0,0.0,0.0,0.0,0.0,0.0,0.0,0.0,0.0,0.0,0.0,0.0,0.0,0.0,0.0,0.0,0.0,0.0,0.0,0.0,0.0,0.0,0.0,0.0,0.0,0.0,0.0,0.0,0.0,0.0,0.0,0.0,0.0,0.0,0.0,0.0,0.0,0.0,0.0,0.0,0.0,0.0,0.0,0.0,0.0,0.0,0.0,0.0,0.0,0.0,0.0,0.0,0.0,0.0,0.0,0.0,0.0,0.0,0.0,0.0,0.0,0.0,0.0,0.0,0.0,0.0,0.0,0.0,0.0,0.0,0.0,0.0,0.0,0.0,0.0,0.0,0.0,0.0,0.0,0.0,0.0,0.0,0.0,0.0,0.0,0.0,0.0,0.0,0.0,0.0,-3.367,-3.3598,-3.3513,-3.3513,-3.3398,-3.3283,-3.324,-3.3154,-3.3197,-3.3398,0.0,0.0,0.0,0.0,0.0,0.0,0.0,0.0,0.0,0.0,0.0,0.0,0.0,0.0,0.0,0.0,0.0,0.0,0.0,0.0,0.0,0.0,0.0,0.0,0.0,0.0,0.0,0.0,0.0,0.0,0.0,0.0,0.0,0.0,0.0,0.0,0.0,0.0,0.0,0.0,0.0,0.0,0.0,0.0,0.0,0.0,0.0,0.0,0.0,0.0,0.0,0.0,0.0,0.0,0.0,0.0,0.0,0.0,0.0,0.0,0.0,0.0,0.0,0.0,0.0,0.0,0.0,0.0,0.0,0.0,0.0,0.0,0.0,0.0,0.0,0.0,0.0,0.0,0.0,0.0,0.0,0.0,0.0,0.0,0.0,0.0,0.0,0.0,0.0,0.0,0.0,0.0,0.0,0.0,0.0,0.0,0.0,0.0,0.0,0.0,0.0,0.0,-3.3725,-3.3713,-3.367,-3.367,-3.3356,-3.3197,-3.3398,-3.324,-3.3197,-3.3398,0.0,0.0,0.0,0.0,0.0,0.0,0.0,0.0,0.0,0.0,0.0,0.0,0.0,0.0,0.0,0.0,0.0,0.0,0.0,0.0,0.0,0.0,0.0,0.0,0.0,0.0,0.0,0.0,0.0,0.0,0.0,0.0,0.0,0.0,0.0,0.0,0.0,0.0,0.0,0.0,0.0,0.0,0.0,0.0,0.0,0.0,0.0,0.0,0.0,0.0,0.0,0.0,0.0,0.0,0.0,0.0,0.0,0.0,0.0,0.0,-2.4276,0.0,0.0,0.0,0.0,0.0,0.0,0.0,0.0,0.0,0.0,0.0,0.0,0.0,0.0,0.0,0.0,0.0,0.0,0.0,0.0,0.0,0.0,0.0,0.0,0.0,0.0,0.0,0.0,0.0,0.0,0.0,0.0,0.0,0.0,0.0,0.0,0.0,0.0,0.0,0.0,0.0,-3.367,-3.3713,-3.3641,-3.3471,-3.3398,-3.3356,-3.3398,-3.324,-3.324,-3.3598,0.0,0.0,0.0,0.0,0.0,0.0,0.0,0.0,0.0,0.0,0.0,0.0,0.0,0.0,0.0,0.0,0.0,0.0,0.0,0.0,0.0,0.0,0.0,0.0,0.0,0.0,0.0,0.0,0.0,0.0,0.0,0.0,0.0,0.0,0.0,0.0,0.0,0.0,0.0,0.0,0.0,0.0,0.0,0.0,0.0,0.0,0.0,0.0,0.0,0.0,0.0,0.0,0.0,0.0,0.0,0.0,0.0,0.0,0.0,0.0,0.0,-2.4756,0.0,0.0,0.0,0.0,0.0,0.0,0.0,0.0,0.0,0.0,0.0,0.0,0.0,0.0,0.0,0.0,0.0,0.0,0.0,0.0,0.0,0.0,0.0,0.0,0.0,0.0,0.0,0.0,0.0,0.0,0.0,0.0,0.0,0.0,0.0,0.0,0.0,0.0,0.0,0.0,-3.3725,-3.3713,-3.3641,-3.3441,-3.3313,-3.3283,-3.3398,-3.324,-3.324,-3.3556,-3.3356,0.0,0.0,0.0,0.0,0.0,0.0,0.0,0.0,0.0,0.0,0.0,0.0,0.0,0.0,0.0,0.0,0.0,0.0,0.0,0.0,0.0,0.0,0.0,0.0,0.0,0.0,0.0,0.0,0.0,0.0,0.0,0.0,0.0,0.0,0.0,0.0,0.0,0.0,0.0,0.0,0.0,0.0,0.0,0.0,0.0,0.0,0.0,0.0,0.0,0.0,0.0,0.0,0.0,0.0,0.0,-2.2594,-2.2594,-2.3088,-2.3926,-2.3926,-2.4766,-2.61,0.0,0.0,0.0,0.0,0.0,0.0,0.0,0.0,0.0,0.0,0.0,0.0,0.0,0.0,0.0,0.0,0.0,0.0,0.0,0.0,0.0,0.0,0.0,0.0,0.0,-2.9037,-3.026,0.0,0.0,0.0,0.0,0.0,0.0,0.0,0.0,0.0,0.0,0.0,0.0,-3.3879,-3.3913,-3.3935,-3.3733,-3.3487,-3.3487,-3.3733,-3.3442,-3.3348,-3.3593,-3.3333,-3.324,0.0,0.0,0.0,0.0,0.0,0.0,0.0,0.0,0.0,0.0,0.0,0.0,0.0,0.0,0.0,0.0,0.0,0.0,0.0,0.0,0.0,0.0,0.0,0.0,0.0,0.0,0.0,0.0,0.0,0.0,0.0,0.0,-1.9972,-2.0974,0.0,0.0,0.0,0.0,0.0,0.0,0.0,0.0,0.0,0.0,0.0,0.0,0.0,0.0,-2.2594,-2.2594,-2.2594,-2.2594,-2.2594,-2.2594,-2.2594,-2.2594,-2.3379,-2.4747,-2.4747,0.0,-2.61,-2.61,0.0,0.0,0.0,0.0,0.0,0.0,0.0,0.0,0.0,0.0,0.0,0.0,0.0,0.0,0.0,0.0,0.0,0.0,0.0,0.0,0.0,0.0,-2.7715,-2.9395,-2.9988,-3.0441,0.0,-3.222,-3.2624,-3.1769,0.0,0.0,0.0,0.0,0.0,0.0,0.0,0.0,-3.4234,-3.4785,-3.5079,-3.4914,-3.4647,-3.4679,-3.5079,-3.4325,-3.3972,-3.4395,-3.3763,-3.3356,-3.3398,-3.3556,0.0,0.0,0.0,0.0,0.0,0.0,0.0,0.0,0.0,0.0,0.0,0.0,0.0,0.0,0.0,0.0,0.0,0.0,0.0,0.0,0.0,0.0,0.0,0.0,0.0,0.0,0.0,0.0,0.0,-1.9952,-2.0983,-2.1903,-2.1996,-2.2155,0.0,0.0,0.0,0.0,0.0,0.0,0.0,0.0,0.0,-2.2594,-2.2745,-2.2849,-2.286,-2.3022,-2.3126,-2.3229,-2.3229,-2.3479,-2.3934,-2.3934,-2.4794,-2.6306,-2.6306,-2.6765,-2.7486,-2.6988,-2.6965,-2.7309,0.0,0.0,0.0,0.0,0.0,-2.7309,-2.7309,0.0,0.0,0.0,0.0,0.0,0.0,0.0,0.0,0.0,0.0,0.0,0.0,0.0,0.0,-2.9037,-3.0022,-3.0778,-3.1189,-3.2715,-3.3532,0.0,-3.2394,-3.3224,-3.3483,0.0,0.0,0.0,0.0,0.0,-3.4787,-3.5035,-3.5143,-3.4906,-3.4771,-3.4861,-3.5175,-3.4679,-3.4495,-3.4863,-3.4154,-3.3663,-3.3663,-3.3563,-3.3385,0.0,0.0,0.0,0.0,0.0,0.0,0.0,0.0,0.0,0.0,0.0,0.0,0.0,0.0,0.0,0.0,0.0,0.0,0.0,0.0,0.0,0.0,0.0,0.0,0.0,0.0,0.0,0.0,-2.0798,-2.182,-2.2509,-2.2594,-2.2594,0.0,0.0,0.0,0.0,0.0,0.0,-2.2594,-2.2739,-2.285,-2.285,-2.3199,-2.3433,-2.3462,-2.3678,-2.3817,-2.3929,-2.3824,-2.4237,-2.5118,-2.5013,-2.5886,-2.7389,-2.7389,-2.7854,-2.8556,-2.7883,-2.7652,-2.7652,-2.7652,-2.7652,0.0,-2.7652,-2.7652,-2.7652,-2.7652,-2.7652,-2.7652,-2.7652,0.0,-2.7652,-2.7652,0.0,0.0,0.0,0.0,-2.7652,-2.7652,0.0,-2.8301,-2.9225,-3.0569,-3.1669,-3.1912,-3.3393,-3.4147,0.0,-3.2845,-3.3633,-3.4035,0.0,0.0,0.0,0.0,-3.5468,-3.5301,-3.5428,-3.5459,-3.5322,-3.5231,-3.5277,-3.5562,-3.5196,-3.503,-3.5301,-3.4603,-3.4092,-3.3909,-3.3799,-3.353,-3.3094,0.0,0.0,0.0,0.0,0.0,0.0,0.0,0.0,0.0,0.0,0.0,0.0,0.0,0.0,0.0,0.0,0.0,0.0,0.0,0.0,0.0,0.0,0.0,0.0,0.0,0.0,0.0,0.0,0.0,-2.2594,-2.2594,0.0,0.0,0.0,0.0,-2.2594,-2.2594,-2.2594,-2.2594,-2.3201,-2.3564,-2.3564,-2.4174,-2.4534,-2.4491,-2.4552,-2.4561,-2.4526,-2.4246,-2.4552,-2.5378,-2.5118,-2.5886,-2.7389,-2.7389,-2.7854,-2.8607,-2.8566,-2.8545,-2.8545,-2.8545,-2.8545,-2.8545,-2.8545,-2.8545,-2.8545,-2.8545,-2.8545,-2.8545,-2.8545,-2.8545,-2.8545,-2.8545,-2.8545,0.0,0.0,-2.8545,-2.8545,-2.8545,-2.9296,-3.0299,-3.1319,-3.2383,-3.3441,-3.4301,-3.461,-3.4417,0.0,-3.3979,-3.465,-3.4675,0.0,0.0,-3.4726,-3.538,-3.5892,-3.5846,-3.6303,-3.6692,-3.6926,-3.6564,-3.6518,-3.6985,-3.6025,-3.5584,-3.5846,-3.5352,-3.4685,-3.3922,-3.431,-3.4276,-3.3687,-3.3382,0.0,0.0,0.0,0.0,0.0,0.0,0.0,0.0,0.0,0.0,0.0,0.0,0.0,0.0,0.0,0.0,0.0,0.0,0.0,0.0,0.0,0.0,0.0,0.0,0.0,0.0,0.0,0.0,-2.2594,-2.2594,0.0,0.0,-2.2594,-2.2594,-2.2594,-2.2826,-2.3014,-2.3227,-2.3687,-2.4,-2.4218,-2.4664,-2.4861,-2.4907,-2.5362,-2.5612,-2.5698,-2.5845,-2.6238,-2.6885,-2.7425,-2.8135,-2.902,-2.9685,-3.0122,-3.0387,-3.0387,-2.9684,-2.8618,-2.8618,-2.8618,-2.8618,-2.8618,-2.8618,-2.8618,-2.8618,-2.8618,-2.8618,-2.8618,-2.8618,-2.8618,-2.8618,-2.8618,-2.8618,-2.8618,-2.9084,-2.9655,-2.9655,-3.0414,-3.1472,-3.2477,-3.3312,-3.408,-3.5011,-3.5529,-3.5674,-3.5382,-3.4961,-3.4793,-3.5144,-3.5207,-3.5332,-3.5717,-3.6024,-3.6197,-3.6197,-3.6373,-3.6546,-3.664,-3.6499,-3.6499,-3.6815,-3.637,-3.6256,-3.6662,-3.5831,-3.5393,-3.5462,-3.5238,-3.491,-3.4504,-3.4523,-3.4405,0.0,0.0,0.0,0.0,0.0,0.0,0.0,0.0,0.0,0.0,0.0,0.0,0.0,0.0,0.0,0.0,0.0,0.0,0.0,0.0,0.0,0.0,0.0,0.0,0.0,0.0,-2.2594,-2.2594,-2.2594,-2.2594,-2.2594,-2.2714,-2.2791,-2.2791,-2.3186,-2.3505,-2.3782,-2.4289,-2.4774,-2.5129,-2.5531,-2.5847,-2.6026,-2.6443,-2.6706,-2.6798,-2.74,-2.8031,-2.869,-2.9567,-3.0354,-3.099,-3.1459,-3.1688,-3.1634,-3.148,-3.0657,-2.9528,-2.9373,-2.9311,-2.929,-2.9135,-2.9073,-2.9073,-2.9073,-2.9073,-2.9073,-2.9073,-2.9073,-2.9073,-2.9073,-2.9073,-2.9073,-2.9073,-2.9558,-3.0227,-3.0564,-3.145,-3.2528,-3.3576,-3.4325,-3.503,-3.5678,-3.6107,-3.6405,-3.6405,-3.5768,-3.5391,-3.5755,-3.5818,-3.5943,-3.6355,-3.6405,-3.6405,-3.6405,-3.6405,-3.6452,-3.6499,-3.6499,-3.6534,-3.6675,-3.6581,-3.6581,-3.6828,-3.6252,-3.6008,-3.6184,-3.5904,-3.562,-3.5215,-3.5262,-3.5103,-3.4698,0.0,0.0,0.0,0.0,0.0,0.0,0.0,0.0,0.0,0.0,0.0,0.0,0.0,0.0,0.0,0.0,0.0,0.0,0.0,0.0,0.0,0.0,0.0,-2.2493,-2.2594,-2.2594,-2.2594,-2.2603,-2.262,-2.262,-2.2903,-2.3134,-2.3134,-2.373,-2.4105,-2.4175,-2.5076,-2.5811,-2.6227,-2.6884,-2.7436,-2.7822,-2.7831,-2.784,-2.784,-2.8775,-2.9672,-3.0525,-3.1428,-3.2308,-3.305,-3.2469,-3.2253,-3.2199,-3.1631,-3.1422,-3.1371,-3.0895,-3.0708,-3.0657,-3.0201,-3.0036,-3.0036,-3.0036,-3.0036,-3.0036,-3.0036,-3.0036,-3.0036,-3.0036,-3.0036,-3.0036,-3.0036,-3.0088,-3.0339,-3.1424,-3.2482,-3.3595,-3.4628,-3.5668,-3.6455,-3.6455,-3.6455,-3.6455,-3.6455,-3.6455,-3.6455,-3.643,-3.643,-3.6443,-3.6455,-3.6455,0.0,-3.6455,-3.6455,-3.6502,-3.6725,-3.6772,-3.676,-3.6747,-3.6734,-3.664,-3.6452,-3.6581,-3.6481,-3.5981,-3.6366,-3.6379,-3.5854,-3.5513,-3.5325,-3.5325,0.0,0.0,0.0,0.0,0.0,0.0,0.0,0.0,0.0,0.0,0.0,0.0,0.0,0.0,0.0,0.0,0.0,0.0,0.0,0.0,0.0,0.0,-2.2392,-2.2594,-2.2594,-2.2594,-2.2594,-2.2783,-2.2954,-2.2954,-2.3297,-2.3616,-2.3826,-2.4244,-2.4861,-2.5576,-2.6117,-2.668,-2.7313,-2.7545,-2.7711,-2.7822,-2.8067,-2.8223,-2.8223,-2.9699,-3.0344,-3.0439,-3.2271,-3.2843,-3.2496,-3.2987,-3.2962,-3.2569,-3.241,-3.2364,-3.2282,-3.1495,-3.1184,-3.1174,-3.104,-3.0998,-3.0998,-3.0998,-3.0998,-3.0998,-3.0998,-3.0998,-3.0998,-3.0998,-3.0998,-3.0998,-3.0998,-3.1549,-3.2359,-3.3533,-3.4639,-3.5729,-3.6838,-3.7355,-3.755,-3.755,-3.755,-3.755,-3.755,-3.755,-3.7425,-3.7023,-3.696,-3.7098,-3.75,0.0,0.0,-3.755,-3.755,-3.7599,-3.7648,-3.7806,-3.7691,-3.7129,-3.7248,-3.7226,0.0,-3.664,-3.6764,-3.7331,-3.7121,-3.6883,-3.6687,-3.6131,-3.5874,0.0,0.0,0.0,0.0,0.0,0.0,0.0,0.0,0.0,0.0,0.0,0.0,0.0,0.0,0.0,0.0,0.0,0.0,0.0,0.0,0.0,0.0,-2.2182,-2.2594,-2.2594,-2.2594,-2.2654,-2.2817,-2.298,-2.3177,-2.3348,-2.3691,-2.4027,-2.4352,-2.4988,-2.5712,-2.6446,-2.6895,-2.743,-2.8012,-2.8031,-2.8104,-2.8269,-2.8517,-2.8929,-2.9446,-3.0867,-3.1717,-3.2109,-3.3899,-3.4413,0.0,-3.4211,-3.3998,-3.3445,-3.3172,-3.2955,0.0,0.0,0.0,0.0,0.0,-3.1381,-3.1381,-3.1381,-3.1381,-3.1381,-3.1381,-3.1381,-3.1381,-3.1381,-3.1381,-3.1381,-3.1381,-3.1831,-3.2652,-3.4252,-3.5149,-3.6033,-3.7643,-3.8002,-3.8002,-3.8002,-3.8002,-3.8002,-3.8002,0.0,0.0,-3.7902,-3.7688,-3.7638,-3.7952,-3.8002,-3.8002,0.0,-3.8002,-3.8002,-3.8002,-3.836,-3.8331,-3.7758,-3.7868,0.0,0.0,0.0,-3.718,-3.7854,-3.7598,0.0,0.0,0.0,-3.6488,0.0,0.0,0.0,0.0,-3.5924,-3.649,0.0,0.0,0.0,0.0,0.0,0.0,0.0,0.0,0.0,0.0,0.0,0.0,0.0,0.0,0.0,0.0,-2.2241,-2.2611,-2.2654,-2.2663,-2.2791,-2.3074,-2.3186,-2.3374,-2.3725,-2.4127,-2.4504,-2.4855,-2.5833,-2.656,-2.696,0.0,0.0,0.0,0.0,-2.8627,-2.8975,-2.8984,-2.9558,-3.0587,-3.1937,-3.3134,-3.4134,-3.5598,-3.6211,-3.5993,-3.5598,-3.5035,-3.4368,-3.384,-3.3239,-3.2685,-3.2225,-3.206,-3.2008,-3.1681,-3.1536,0.0,0.0,0.0,0.0,-3.1536,-3.1536,-3.1536,-3.1536,-3.1536,-3.1536,-3.1536,-3.1536,-3.2053,-3.4276,-3.4842,-3.5415,-3.7667,-3.8203,-3.8203,-3.8203,-3.8203,-3.8203,-3.8203,-3.8203,-3.8354,-3.8881,-3.8492,-3.8128,-3.8191,-3.8191,0.0,-3.824,-3.824,-3.829,-3.829,0.0,0.0,-3.8559,-3.8585,-3.8467,-3.813,-3.7826,-3.7722,-3.7854,-3.79,-3.79,-3.79,-3.7377,-3.7103,-3.7103,-3.6502,-3.6201,-3.6219,-3.6607,-3.7275,0.0,0.0,0.0,0.0,0.0,0.0,0.0,0.0,0.0,0.0,0.0,0.0,0.0,0.0,0.0,-2.2342,-2.2544,-2.2705,-2.2963,-2.3006,-2.3032,-2.3109,-2.3648,-2.3997,-2.4119,-2.4744,-2.5293,-2.5596,-2.6351,-2.7026,-2.7652,-2.8086,0.0,-2.8856,-2.8865,-2.8911,-2.8984,-2.8984,-2.9103,-2.9381,0.0,0.0,-3.1622,-3.4847,-3.5488,-3.4201,-3.5035,-3.4769,-3.3784,-3.3625,-3.3239,-3.2669,-3.2576,-3.2545,-3.2592,-3.2499,-3.2468,-3.2468,-3.2468,-3.2468,-3.2468,-3.2468,-3.2468,-3.2468,-3.2468,-3.2468,0.0,-3.2468,-3.2468,-3.3012,-3.5303,-3.5898,-3.6489,-3.8819,-3.9371,-3.9371,-3.9371,-3.9371,-3.9371,-3.9371,-3.9371,-3.9396,-3.9521,-3.9069,-3.8856,-3.9295,-3.9562,-3.9702,-3.9702,-3.9867,-4.0019,-4.0019,-4.0309,-4.0229,-3.9493,-3.9636,-3.9524,-3.901,-3.8631,-3.8205,-3.7577,-3.7808,-3.79,-3.79,-3.7795,-3.773,-3.773,-3.7116,-3.6828,-3.6815,-3.6432,-3.6728,0.0,0.0,0.0,0.0,0.0,0.0,0.0,0.0,0.0,0.0,0.0,-2.0755,0.0,0.0,-2.2241,-2.2544,-2.2757,-2.2895,-2.3091,-2.3434,-2.3674,-2.3674,-2.4008,-2.4384,-2.477,-2.5146,-2.5637,-2.6131,-2.6804,-2.7436,-2.7937,-2.8446,-2.8783,-2.8975,-2.8984,-2.8984,-2.8984,-2.8984,-2.9331,-2.9903,-3.1091,-3.2015,-3.2701,-3.458,-3.5268,-3.498,-3.5598,-3.5323,-3.4446,-3.3851,-3.3399,-3.3126,-3.2841,-3.2669,-3.2669,-3.2669,-3.2669,-3.2669,-3.2669,-3.2669,-3.2669,-3.2669,-3.2669,-3.2669,-3.2669,-3.2669,-3.2669,-3.2669,-3.2669,-3.3218,-3.5597,-3.6185,-3.6792,-3.9141,-3.9697,-3.9697,-3.9697,-3.9697,-3.9697,-3.9697,-3.9697,-3.9697,-3.9697,-3.9471,-3.9371,-3.9647,-3.9788,-3.9929,-4.007,-4.0236,-4.0338,-4.0504,-4.0744,-4.0729,-4.0345,-4.0247,-3.9992,-3.9446,-3.8942,-3.8533,-3.8119,-3.7951,-3.79,-3.79,-3.79,-3.79,-3.79,-3.7599,-3.7456,-3.7442,-3.7142,-3.7407,0.0,0.0,0.0,0.0,0.0,0.0,0.0,0.0,-1.948,-2.0138,-2.0609,-2.1121,-2.1725,-2.2291,-2.262,-2.2697,-2.2912,-2.316,-2.3306,-2.3853,-2.421,-2.4333,-2.441,-2.4693,-2.5366,-2.5554,-2.584,-2.6448,-2.7202,-2.7742,-2.8002,-2.8618,-2.8984,-2.8984,-2.8984,-2.8984,-2.8984,-2.8984,-2.9499,-3.048,-3.0713,-3.1852,-3.3797,-3.4302,-3.5035,-3.5938,-3.6048,-3.5763,-3.5157,-3.4065,-3.3512,-3.3409,-3.2898,-3.2669,-3.2669,-3.2669,-3.2669,-3.2669,-3.2669,-3.2669,-3.2669,-3.2669,-3.2669,-3.2669,-3.2669,-3.2669,-3.2669,-3.2669,-3.2669,-3.3218,-3.5597,-3.6185,-3.6792,-3.9141,-3.9697,-3.9697,-3.9697,-3.9697,-3.9697,-3.9697,-3.9697,-3.9697,-3.9697,-3.9697,-3.9697,-3.9697,-3.9736,-3.989,-4.0134,-4.0224,-4.0338,-4.0605,-4.0846,-4.0997,-4.0997,-4.0718,-4.0357,-3.9795,-3.9311,-3.8998,-3.8893,-3.8357,-3.8057,-3.8057,-3.7952,-3.79,-3.79,-3.79,-3.79,-3.79,-3.79,-3.8158,-1.8869,-1.9123,-1.9279,-1.9279,-1.9279,-1.9279,0.0,0.0,-1.9583,-2.0609,-2.0873,-2.1232,-2.2291,-2.2544,-2.2705,-2.2997,-2.3091,-2.3348,-2.3962,-2.4125,-2.4313,-2.471,-2.5044,-2.5275,-2.5417,-2.5968,-2.6396,-2.6482,-2.7397,-2.7975,-2.802,-2.8618,-2.8984,-2.8984,-2.8984,-2.8984,-2.8984,-2.8984,-2.9044,-2.9213,-3.0304,-3.0937,-3.1285,-3.3505,-3.4591,-3.4703,-3.5268,-3.5146,-3.4536,-3.3896,-3.3285,-3.2784,-3.2727,-3.2669,-3.2669,-3.2669,-3.2669,-3.2669,-3.2669,-3.2669,-3.2669,-3.2669,-3.2669,-3.2669,-3.2669,-3.2669,-3.2669,-3.2669,-3.2669,-3.3218,-3.5597,-3.6185,-3.6792,-3.9141,-3.9697,-3.9697,-3.9697,-3.9697,-3.9697,-3.9697,-3.9697,-3.9697,-3.9697,-3.9697,-3.9697,-3.9697,-3.989,-4.0134,-4.0402,-4.0643,-4.0896,-4.1161,-4.1261,-4.1261,-4.1261,-4.1196,-4.0971,-4.0357,-4.0265,-4.0017,-3.9534,-3.8932,-3.8619,-3.8619,-3.8148,-3.79,-3.79,-3.79,-3.79,-3.79,-3.79,-3.7913,-1.9071,-1.9227,0.0,0.0,-1.9279,-1.9279,-1.9279,-1.9279,-1.9583,-2.0668,-2.0925,-2.1224,-2.2392,-2.2774,-2.2929,0.0,-2.3477,-2.3871,-2.4133,-2.4373,-2.4718,-2.5095,-2.5472,-2.5703,-2.5703,-2.6174,-2.6585,-2.6807,-2.7572,-2.802,-2.802,-2.8618,-2.8984,-2.8984,-2.8984,-2.8984,-2.8984,-2.8984,-2.8984,-2.8984,-2.9499,-3.047,-3.189,-3.2907,-3.4168,-3.5566,-3.608,-3.6204,-3.5949,-3.562,-3.5389,-3.5056,-3.4307,-3.4028,-3.3906,-3.3038,-3.2669,-3.2669,-3.2669,-3.2669,-3.2669,-3.2669,-3.2669,-3.2669,-3.2669,-3.2669,-3.2669,-3.2669,-3.3218,-3.4145,-3.5761,-3.6684,-3.7607,-3.931,-3.9697,-3.9697,-3.9697,-3.9697,-3.9697,-3.9697,-3.9697,-3.9697,-3.9697,-3.9697,-3.9697,-3.9697,-3.9788,-4.0044,-4.0453,-4.0605,-4.0858,-4.1261,-4.1311,-4.1311,-4.1311,-4.1311,-4.1206,-4.0958,-4.0605,-4.0318,-4.0082,-3.9534,-3.9233,-3.9233,-3.8671,-3.837,-3.837,-3.8057,-3.79,-3.79,-3.79,-3.8194,-1.9279,0.0,0.0,-1.9279,-1.9279,-1.9279,-1.9279,-1.9279,-1.9583,-2.0668,-2.0925,-2.1224,-2.2392,-2.286,-2.3151,-2.3254,-2.3811,-2.4219,-2.4321,-2.4641,-2.4958,-2.5326,-2.5703,-2.5919,-2.608,-2.6431,-2.6765,-2.7056,-2.7668,-2.802,-2.802,-2.8618,-2.8984,-2.8984,-2.8984,-2.8984,-2.8984,-2.8984,-2.8984,-2.8984,-2.8984,-3.0227,-3.2613,-3.3293,-3.4614,-3.6343,-3.6656,-3.6706,-3.6574,-3.6624,-3.6472,-3.6082,-3.5295,-3.489,-3.4629,-3.3512,-3.3016,-3.2892,-3.2711,-3.2669,-3.2669,-3.2669,-3.2669,-3.2669,-3.2669,-3.2669,-3.2669,-3.2669,-3.3332,-3.4357,-3.5815,-3.6792,-3.7832,-3.9362,-3.9697,-3.9697,-3.9697,-3.9697,-3.9697,-3.9697,-3.9697,-3.9697,-3.9697,-3.9697,-3.9697,-3.9697,-3.9697,-3.989,-4.0453,-4.0605,-4.0858,-4.1274,-4.1311,-4.1311,-4.1311,-4.1311,-4.1311,-4.1311,-4.0906,-4.0671,-4.0671,-4.0135,-3.9834,-3.9834,-3.9259,-3.8958,-3.8958,-3.8397,-3.8122,-3.8122,-3.7978,-3.8226,-1.9279,-1.9279,-1.9279,-1.9279,-1.9279,-1.9279,-1.9279,-1.9279,-1.9583,-2.0668,-2.0925,-2.1224,-2.2392,-2.286,-2.3228,-2.3641,-2.3973,-2.4367,-2.4744,-2.4812,-2.4958,-2.5326,-2.5703,-2.608,0.0,-2.6824,-2.7064,-2.7073,-2.7668,-2.802,-2.802,-2.8618,-2.8984,-2.8984,-2.8984,-2.8984,-2.8984,-2.8984,-2.8984,-2.8984,-2.8984,-3.0227,-3.267,-3.5068,-3.6211,-3.632,-3.6343,-3.6004,-3.5489,-3.5938,-3.545,-3.4417,-3.4827,-3.4654,-3.4121,-3.41,-3.3741,-3.3296,-3.2882,-3.2669,-3.2669,-3.2669,-3.2669,-3.2669,-3.2669,-3.2669,-3.2669,-3.2669,-3.2727,-3.3275,-3.5597,-3.624,-3.6846,-3.9141,-3.9697,-3.9697,-3.9697,-3.9697,-3.9697,-3.9697,-3.9697,-3.9697,-3.9697,-3.9697,-3.9697,-3.9697,-3.9697,-3.989,-4.0453,-4.0959,-4.1261,-4.1311,-4.1311,-4.1311,-4.1311,-4.1311,-4.1311,-4.1311,-4.1298,-4.1285,-4.1285,-4.071,-4.0396,-4.0396,-3.986,-3.9586,-3.9586,-3.8985,-3.8684,-3.8671,-3.8148,-3.79,-2.0181,-1.9828,-1.948,-2.0181,-1.9835,-1.9279,-1.9279,-1.9279,-1.9583,-2.0668,-2.0925,-2.1296,-2.2673,-2.3228,-2.3605,-2.3982,-2.4367,-2.4667,-2.4804,-2.4821,-2.5052,-2.5677,-2.5808,0.0,0.0,0.0,0.0,-2.7349,-2.7771,-2.808,-2.8328,-2.8746,-2.8984,-2.8984,-2.8984,-2.8984,-2.8984,-2.8984,-2.8984,-2.9044,-3.0626,-3.1822,-3.267,-3.5179,-3.632,-3.6343,-3.6633,-3.666,-3.6473,-3.7041,-3.6781,-3.5991,-3.5693,-3.5436,-3.5076,-3.4354,-3.4225,-3.4287,-3.3772,-3.3617,-3.3617,-3.3617,-3.3617,-3.3555,-3.3254,-3.3161,-3.3099,-3.282,-3.3275,-3.4256,-3.5815,-3.6738,-3.7725,-3.931,-3.9697,-3.9697,-3.9697,-3.9697,-3.9697,-3.9697,-3.9697,-3.9697,-3.9697,-3.9697,-3.9736,-3.9929,-4.0147,-4.03,-4.0453,-4.0959,-4.1311,-4.1311,-4.1311,-4.1311,-4.1311,-4.1311,-4.1311,-4.1311,-4.1311,-4.1311,-4.1311,-4.1115,-4.101,-4.101,-4.0448,-4.0148,-4.0148,-3.9586,-3.9311,-3.9298,-3.9115,-3.9387,-2.1285,-2.0987,-2.0534,-2.0834,-2.038,-1.9776,-1.9376,-1.9428,-1.9835,-2.0719,-2.107,-2.1593,-2.2834,-2.3425,-2.3802,-2.417,-2.4564,-2.4821,-2.4821,-2.4821,-2.5095,-2.5791,-2.5876,-2.6242,0.0,0.0,0.0,-2.7461,-2.7831,-2.8148,-2.8466,-2.8815,-2.8984,-2.8984,-2.8984,-2.8984,-2.8984,-2.8984,-2.8984,-2.9044,-3.1429,-3.2613,-3.267,-3.5179,-3.632,-3.6343,-3.6622,-3.6759,-3.6739,-3.7075,-3.6827,-3.6256,-3.5751,-3.5366,-3.5065,-3.4354,-3.4422,-3.4754,-3.4287,-3.4132,-3.4132,-3.4132,-3.4132,-3.401,-3.372,-3.3627,-3.3565,-3.3285,-3.377,-3.4699,-3.6349,-3.7158,-3.7947,-3.9608,-3.9835,-3.9697,-3.9697,-3.9697,-3.9697,-3.9697,-3.9697,-3.9697,-3.9697,-3.9697,-3.9788,-4.0083,-4.0338,-4.0555,-4.0643,-4.101,-4.1311,-4.1311,-4.1311,-4.1311,-4.1311,-4.1311,-4.1311,-4.1311,-4.1311,-4.1311,-4.1311,-4.1311,-4.1311,-4.1311,-4.0932,-4.0736,-4.0736,-4.0174,-3.9899,-3.9899,-3.9703,-3.992,-2.2593,-2.2534,-2.2291,-2.1285,-2.0987,-2.0629,-1.9628,-1.9724,-2.0241,-2.0763,-2.1326,-2.1994,0.0,0.0,-2.3819,-2.4179,-2.4564,-2.4821,-2.4821,-2.4821,-2.5095,0.0,0.0,0.0,0.0,0.0,0.0,-2.7521,0.0,-2.814,-2.8517,-2.8806,-2.8984,-2.8984,-2.8984,-2.8984,-2.8984,-2.8984,-2.8984,-2.9044,-3.1429,-3.2613,-3.267,-3.5179,-3.632,-3.632,-3.632,-3.632,-3.6312,-3.6117,-3.5678,-3.5155,-3.4986,-3.4591,-3.409,-3.409,-3.438,-3.4723,-3.4308,-3.4173,-3.4194,-3.4194,-3.4194,-3.4134,-3.4113,-3.4163,-3.4163,-3.4132,-3.4132,-3.4644,-3.6961,-3.7289,-3.7542,-3.989,-4.0097,-3.9772,-3.9747,-3.9735,-3.9722,-3.9697,-3.9697,-3.9697,-3.9697,-3.9697,-3.9788,-4.0083,-4.0338,-4.0605,-4.0883,-4.1147,-4.1311,-4.1311,-4.1311,-4.1311,-4.1311,-4.1311,-4.1311,-4.1311,-4.1311,-4.1311,-4.1311,-4.1311,-4.1311,-4.1311,-4.1311,-4.1311,-4.1311,-4.0736,-4.0461,-4.0448,-3.9926,-3.9703,-2.3484,-2.3094,-2.2643,-2.3135,-2.2089,-2.0834,-2.0534,-2.0285,-2.0241,-2.0763,-2.1326,-2.1994,0.0,0.0,0.0,-2.417,-2.4564,0.0,-2.4821,-2.4821,0.0,-2.5791,0.0,-2.6242,-2.7004,-2.7073,0.0,0.0,-2.7702,-2.8011,-2.8806,-2.8696,-2.8746,-2.8984,-2.8984,-2.8984,-2.8984,-2.8984,-2.8984,-2.9044,-3.1429,-3.2613,-3.267,-3.5179,-3.632,-3.632,-3.632,-3.632,-3.6277,-3.5788,-3.5224,-3.462,-3.415,-3.3786,-3.3555,-3.3555,-3.3903,-3.4339,-3.4557,-3.4797,-3.5076,-3.5076,-3.5076,-3.5014,-3.4683,-3.464,-3.4567,-3.4225,-3.4132,-3.4407,-3.5889,-3.6882,-3.7854,-3.9351,-4.0281,-4.0802,-4.0388,-4.0312,-4.0187,-3.9772,-3.9697,-3.9697,-3.9697,-3.9697,-3.9788,-4.0083,-4.0338,-4.0605,-4.0883,-4.1147,-4.1311,-4.1311,-4.1311,-4.1311,-4.1311,-4.1311,-4.1311,-4.1311,-4.1311,-4.1311,-4.1311,-4.1311,-4.1311,-4.1311,-4.1311,-4.1311,-4.1311,-4.1167,-4.1089,-4.1089,-4.0945,-4.088,-2.4658,-2.4353,-2.3958,-2.4088,-2.3185,-2.2038,-2.1132,-2.1046,-2.1105,-2.0917,-2.153,0.0,-2.2997,-2.3425,0.0,0.0,0.0,0.0,-2.4821,-2.4821,-2.5095,0.0,-2.5876,0.0,-2.7004,-2.7073,-2.7306,0.0,-2.7762,-2.8071,-2.8925,-2.8815,-2.8815,-2.8984,-2.8984,-2.8984,-2.8984,-2.8984,-2.8984,-2.9044,-3.0917,-3.2109,-3.267,-3.4625,-3.5817,-3.632,0.0,-3.6157,-3.5872,-3.5256,-3.4658,-3.4054,-3.3455,-3.3158,-3.3089,-3.3089,-3.3379,-3.3803,-3.4062,-3.4579,-3.5159,-3.5355,-3.5418,-3.5376,-3.5128,-3.5045,-3.4993,-3.4734,-3.4662,-3.4954,-3.6167,-3.6827,-3.7644,-3.9391,-4.0123,-4.0496,-4.052,-4.0513,-4.035,-3.9798,-3.9697,-3.9736,-3.9839,-3.989,-4.0032,-4.0377,-4.0593,-4.0744,-4.1047,-4.1211,-4.1311,-4.1311,-4.1311,-4.1311,-4.1311,-4.1311,-4.1311,-4.1311,-4.1311,-4.1311,-4.1311,-4.1311,-4.1311,-4.1311,-4.1311,-4.1311,-4.1311,-4.1311,-4.1311,-4.1311,-4.1311,-4.1311,-2.5693,-2.5693,-2.5479,-2.455,-2.4196,-2.3583,-2.1735,-2.1954,-2.2224,-2.1326,0.0,-2.2697,-2.298,-2.3365,-2.3742,-2.4102,0.0,-2.4761,-2.4812,-2.4821,-2.5095,-2.5791,-2.5876,-2.6242,-2.7004,-2.7133,-2.7246,-2.7461,-2.7831,-2.8328,-2.8925,-2.8865,-2.8865,-2.8925,-2.8984,-2.8984,-2.8984,-2.8984,-2.9103,-2.9272,-3.048,-3.1612,-3.2794,-3.4067,-3.5201,-3.6157,0.0,0.0,-3.5367,-3.4758,-3.4155,-3.3512,-3.2955,-3.2669,-3.2669,-3.2669,-3.2975,-3.3296,-3.3358,-3.3938,-3.4745,-3.519,-3.5376,-3.5418,-3.5418,-3.5418,-3.5418,-3.5418,-3.5418,-3.5654,-3.6775,-3.6834,-3.7181,-3.9368,-3.9762,-3.9769,-4.0248,-4.0395,-4.0275,-3.9785,-3.9749,-3.9839,-4.0083,-4.0134,-4.0326,-4.0833,-4.0883,-4.0997,-4.1261,-4.1311,-4.1311,-4.1311,-4.1311,-4.1311,-4.1311,-4.1311,-4.1311,-4.1311,-4.1311,-4.1311,-4.1311,-4.1311,-4.1311,-4.1311,-4.1311,-4.1311,-4.1311,-4.1311,-4.1311,-4.1311,-4.1311,-4.1311,-2.5693,-2.5693,-2.5635,-2.5479,-2.4756,-2.3989,-2.3642,-2.3011,0.0,0.0,-2.2434,-2.262,-2.268,-2.2963,-2.334,-2.3699,-2.4085,-2.439,-2.4778,-2.4821,-2.5095,0.0,-2.5876,0.0,0.0,0.0,0.0,0.0,0.0,0.0,-2.8576,-2.8328,-2.8328,-2.8576,-2.8874,-2.8984,-2.8984,-2.8984,-2.9499,-3.048,-3.1717,-3.269,-3.3459,-3.4703,-3.5378,-3.5543,0.0,0.0,-3.5367,-3.4758,-3.4155,-3.3512,-3.2955,-3.2669,-3.2669,-3.2669,-3.2778,-3.2892,-3.3254,-3.3731,-3.4318,-3.4785,-3.5117,-3.5418,-3.5418,-3.5418,-3.5418,-3.5418,-3.5418,-3.5479,-3.5654,-3.6417,-3.7298,-3.7717,-3.9349,-4.0604,-3.9794,-3.9738,-3.981,-3.971,-3.989,-4.0032,-4.007,-4.0287,-4.0542,-4.0833,-4.0883,-4.0997,-4.1261,-4.1311,-4.1311,-4.1311,-4.1311,-4.1311,-4.1311,-4.1311,-4.1311,-4.1311,-4.1311,-4.1311,-4.1311,-4.1311,-4.1311,-4.1311,-4.1311,-4.1311,-4.1311,-4.1311,-4.1311,-4.1311,-4.1311,-4.1311,-2.5693,-2.5693,-2.5693,-2.5693,-2.5323,-2.4805,-2.4245,0.0,0.0,0.0,-2.2535,-2.2594,-2.2594,-2.286,0.0,-2.3622,-2.399,-2.4313,-2.477,-2.4821,0.0,-2.5791,0.0,0.0,0.0,0.0,0.0,0.0,0.0,0.0,-2.8517,-2.8507,-2.8507,-2.8526,-2.8636,-2.8755,-2.8755,-2.8567,-2.9085,-3.0314,-3.0742,-3.1727,-3.313,-3.3751,-3.4368,-3.4925,0.0,0.0,-3.4446,-3.4166,-3.3671,-3.3126,-3.2784,-3.2669,-3.2669,-3.2669,-3.2669,-3.2799,-3.3234,-3.3738,-3.4204,-3.4671,-3.5055,-3.5418,-3.5418,-3.5418,-3.5418,-3.5418,-3.5418,-3.5418,-3.5418,-3.5828,-3.6481,-3.7127,-3.878,-4.0058,-3.9542,-3.966,-3.9929,-3.9929,-4.0134,-4.0338,-4.0478,-4.0643,-4.0795,-4.1047,-4.1097,-4.1147,-4.1261,-4.1311,-4.1311,-4.1311,-4.1311,-4.1311,-4.1311,-4.1311,-4.1311,-4.1311,-4.1311,-4.1311,-4.1311,-4.1311,-4.1311,-4.1311,-4.1311,-4.1311,-4.1311,-4.1311,-4.1311,-4.1311,-4.1311,-4.1311,-2.5693,-2.5693,-2.5693,-2.5693,-2.5693,-2.5479,-2.4698,-2.4461,0.0,-2.3129,-2.2887,-2.2795,-2.2644,-2.2843,-2.3151,0.0,-2.3931,-2.4273,-2.4753,-2.4821,-2.5095,0.0,0.0,0.0,0.0,0.0,0.0,0.0,0.0,0.0,0.0,-2.8627,-2.8627,-2.8268,-2.8337,-2.8397,-2.8397,-2.8148,-2.8728,-3.0206,-2.9952,-3.0878,-3.2913,-3.2913,-3.3424,-3.4323,0.0,0.0,0.0,-3.3625,-3.3239,-3.2669,-3.2669,-3.2669,-3.2669,-3.2669,-3.2669,-3.2799,-3.3234,-3.3738,-3.4204,-3.4671,-3.5055,-3.5418,-3.5418,-3.5418,-3.5418,-3.5418,-3.5418,-3.5418,-3.5418,-3.5418,-3.5746,-3.7178,-3.8206,-3.9045,-3.9594,-3.9891,-4.0134,-4.0173,-4.0389,-4.0643,-4.0833,-4.0933,-4.1047,-4.1261,-4.1311,-4.1311,-4.1311,-4.1311,-4.1311,-4.1311,-4.1311,-4.1311,-4.1311,-4.1311,-4.1311,-4.1311,-4.1311,-4.1311,-4.1311,-4.1311,-4.1311,-4.1311,-4.1311,-4.1311,-4.1311,-4.1311,-4.1311,-4.1311,-4.1311,-4.1311,-2.5693,-2.5693,-2.5693,-2.5693,-2.5693,-2.5732,-2.5897,0.0,-2.5001,-2.443,-2.3935,-2.3388,-2.2745,-2.2628,-2.2886,-2.3606,-2.3752,-2.3973,-2.4718,-2.4821,0.0,0.0,0.0,0.0,0.0,0.0,0.0,0.0,0.0,0.0,0.0,-2.808,-2.7951,-2.7581,-2.79,-2.802,-2.802,-2.802,-2.9076,-3.1169,-3.1111,-3.1988,-3.3512,-3.3512,-3.3568,-3.3681,0.0,0.0,0.0,-3.3625,-3.3239,-3.2669,-3.2669,-3.2669,-3.2669,-3.2669,-3.2669,-3.2799,-3.3234,-3.3738,-3.4204,-3.4671,-3.5055,-3.5418,-3.5418,-3.5418,-3.5418,-3.5418,-3.5418,-3.5418,-3.5418,-3.5418,-3.5907,-3.7825,-3.7702,-3.7786,-4.0262,-4.0398,-4.0185,-4.0402,-4.0694,-4.0883,-4.0883,-4.1097,-4.1261,-4.1311,-4.1311,-4.1311,-4.1311,-4.1311,-4.1311,-4.1311,-4.1311,-4.1311,-4.1311,-4.1311,-4.1311,-4.1311,-4.1311,-4.1311,-4.1311,-4.1311,-4.1311,-4.1311,-4.1311,-4.1311,-4.1311,-4.1311,-4.1311,-4.1311,-4.1311,-4.1311,-2.5693,-2.5693,-2.5693,-2.5693,-2.583,-2.5965,-2.61,0.0,-2.5499,-2.5255,-2.4421,-2.3628,-2.3338,-2.2896,-2.2766,-2.3246,-2.352,0.0,-2.4393,0.0,0.0,0.0,0.0,0.0,0.0,0.0,0.0,0.0,0.0,0.0,0.0,-2.7891,-2.7831,-2.7521,-2.7642,-2.7702,-2.7702,-2.7539,-2.831,-2.9903,-3.0295,-3.1053,-3.2217,-3.282,-3.3069,-3.3069,0.0,0.0,0.0,-3.3069,-3.2898,-3.2669,-3.2669,-3.2669,-3.2669,-3.2669,-3.2903,-3.3182,-3.3637,-3.4152,-3.4619,-3.5014,-3.5273,-3.5418,-3.5418,-3.5418,-3.5418,-3.5418,-3.5418,-3.5355,-3.5086,-3.4817,-3.4969,-3.6461,-3.6963,-3.7606,-3.9365,-4.0179,-4.063,-4.0744,-4.0946,-4.1147,-4.1147,-4.1211,-4.1311,-4.1311,-4.1311,-4.1311,-4.1311,-4.1311,-4.1311,-4.1311,-4.1311,-4.1311,-4.1311,-4.1311,-4.1311,-4.1311,-4.1311,-4.1311,-4.1311,-4.1311,-4.1311,-4.1311,-4.1311,-4.1311,-4.1311,-4.1311,-4.1311,-4.1311,-4.1311,-4.1311,-2.5693,-2.5693,-2.5742,-2.5781,-2.5955,-2.6149,0.0,0.0,-2.5994,-2.5839,-2.506,-2.4273,-2.3777,-2.3288,-2.2967,-2.31,-2.3425,-2.3794,-2.4125,-2.4573,0.0,0.0,0.0,0.0,0.0,0.0,0.0,0.0,0.0,0.0,0.0,0.0,-2.7659,-2.7409,-2.7409,-2.7409,-2.7409,-2.7185,-2.7668,-2.8856,-2.954,-3.0412,-3.1343,-3.2248,-3.2669,0.0,0.0,0.0,0.0,-3.2669,-3.2669,-3.2669,-3.2669,-3.2669,-3.2747,-3.2871,-3.311,-3.3461,-3.4121,-3.4546,-3.4888,-3.5273,-3.5418,-3.5418,-3.5418,-3.5418,-3.5418,-3.5418,-3.5324,-3.5117,-3.4672,-3.4207,-3.4209,-3.5519,-3.6488,-3.7493,-3.8895,-4.0092,-4.0933,-4.0997,-4.1161,-4.1311,-4.1311,-4.1311,-4.1311,-4.1311,-4.1311,-4.1311,-4.1311,-4.1311,-4.1311,-4.1311,-4.1311,-4.1311,-4.1311,-4.1311,-4.1311,-4.1311,-4.1311,-4.1311,-4.1311,-4.1311,-4.1311,-4.1311,-4.1311,-4.1311,-4.1311,-4.1311,-4.1311,-4.1311,-4.1311,-4.1311,-2.5693,-2.5693,-2.5781,-2.6052,-2.61,-2.6245,0.0,-2.69,-2.6747,-2.6197,-2.6091,-2.5606,-2.3976,-2.3678,-2.3562,-2.3152,-2.3425,0.0,-2.4125,0.0,0.0,0.0,0.0,0.0,0.0,0.0,0.0,0.0,0.0,0.0,0.0,0.0,-2.7133,-2.7073,-2.7073,-2.7073,-2.7073,-2.7073,-2.7547,-2.854,-2.9471,-3.0412,-3.1343,-3.2248,0.0,0.0,0.0,0.0,0.0,-3.2669,-3.2669,-3.2669,-3.2669,-3.2669,-3.2789,-3.3213,-3.3368,-3.3503,-3.4494,-3.4816,-3.4888,-3.5273,-3.5418,-3.5418,-3.5418,-3.5418,-3.5418,-3.5418,-3.5107,-3.4723,-3.4256,-3.3789,-3.3844,-3.5587,-3.6301,-3.7156,-3.9183,-4.03,-4.0997,-4.1261,-4.1311,-4.1311,-4.1311,-4.1311,-4.1311,-4.1311,-4.1311,-4.1311,-4.1311,-4.1311,-4.1311,-4.1311,-4.1311,-4.1311,-4.1311,-4.1311,-4.1311,-4.1311,-4.1311,-4.1311,-4.1311,-4.1311,-4.1311,-4.1311,-4.1311,-4.1311,-4.1311,-4.1311,-4.1311,-4.1311,-4.1311,-4.1311,-2.5693,-2.5693,-2.5781,-2.6052,-2.6245,-2.6448,-2.6805,-2.7034,-2.7119,-2.6965,-2.6486,-2.58,-2.4707,-2.4066,-2.3473,-2.2858,-2.3306,0.0,0.0,0.0,0.0,0.0,0.0,0.0,0.0,0.0,0.0,0.0,0.0,0.0,0.0,0.0,-2.7073,-2.7073,-2.7073,-2.7073,-2.7073,-2.7073,-2.7254,-2.7547,-2.848,-2.9412,-3.0353,-3.1295,0.0,0.0,0.0,0.0,0.0,-3.2669,-3.2669,-3.2669,-3.2669,-3.2913,-3.3192,-3.3327,-3.3841,-3.4422,-3.4723,-3.4962,-3.5231,-3.5376,-3.5418,-3.5366,-3.5055,-3.4973,-3.49,-3.459,-3.4165,-3.3841,-3.3637,-3.3265,-3.3267,-3.4653,-3.5972,-3.7281,-3.8742,-4.0185,-4.1211,-4.1261,-4.1311,-4.1311,-4.1311,-4.1311,-4.1311,-4.1311,-4.1311,-4.1311,-4.1311,-4.1311,-4.1311,-4.1311,-4.1311,-4.1311,-4.1311,-4.1311,-4.1311,-4.1311,-4.1311,-4.1311,-4.1311,-4.1311,-4.1311,-4.1311,-4.1311,-4.1311,-4.1311,-4.1311,-4.1311,-4.1311,-4.1311,-4.1311,-2.5693,-2.5693,-2.5781,-2.6159,-2.64,0.0,-2.6986,-2.7167,-2.7309,-2.7309,-2.6918,-2.6284,-2.5489,-2.4707,-2.3926,-2.3138,-2.3376,-2.3718,0.0,0.0,0.0,0.0,0.0,0.0,0.0,0.0,0.0,0.0,0.0,0.0,0.0,0.0,-2.7073,-2.7073,-2.7073,-2.7073,-2.7073,-2.7073,-2.7073,-2.7133,-2.8071,-2.9007,-2.9943,0.0,0.0,0.0,0.0,0.0,0.0,-3.2669,-3.283,-3.2975,-3.2975,-3.3244,-3.3658,-3.3834,-3.4318,-3.4847,-3.4952,-3.519,-3.5387,-3.5231,-3.5055,-3.4828,-3.4372,-3.4422,-3.4463,-3.3997,-3.3655,-3.3337,-3.3172,-3.2934,-3.3058,-3.448,-3.5859,-3.7281,-3.8795,-4.0185,-4.1161,-4.1261,-4.1311,-4.1311,-4.1311,-4.1311,-4.1311,-4.1311,-4.1311,-4.1311,-4.1311,-4.1311,-4.1311,-4.1311,-4.1311,-4.1311,-4.1311,-4.1311,-4.1311,-4.1311,-4.1311,-4.1311,-4.1311,-4.1311,-4.1311,-4.1311,-4.1311,-4.1311,-4.1311,-4.1311,-4.1311,-4.1311,-4.1311,-4.1311,0.0,-2.5732,-2.583,-2.6352,0.0,-2.664,-2.7167,-2.7309,0.0,-2.7309,-2.7309,-2.7061,-2.6235,-2.5499,-2.4698,-2.3827,-2.3711,0.0,0.0,0.0,0.0,0.0,0.0,0.0,0.0,0.0,0.0,0.0,0.0,0.0,0.0,0.0,0.0,-2.7073,-2.7073,-2.7073,-2.7073,-2.7073,-2.7073,-2.7133,-2.7951,-2.8948,-2.9943,0.0,0.0,0.0,0.0,0.0,0.0,-3.283,-3.3068,-3.343,-3.343,-3.371,-3.4225,-3.466,-3.4837,-3.493,-3.5273,-3.5407,-3.5304,-3.4848,-3.4453,-3.3997,-3.3503,-3.3679,-3.3927,-3.3461,-3.3327,-3.3244,-3.283,-3.2669,-3.3105,-3.4847,-3.5979,-3.7145,-3.9131,-4.03,-4.0997,-4.1261,-4.1311,-4.1311,-4.1311,-4.1311,-4.1311,-4.1311,-4.1311,-4.1311,-4.1311,-4.1311,-4.1311,-4.1311,-4.1311,-4.1311,-4.1311,-4.1311,-4.1311,-4.1311,-4.1311,-4.1311,-4.1311,-4.1311,-4.1311,-4.1311,-4.1311,-4.1311,-4.1311,-4.1311,-4.1311,-4.1311,-4.1311,-4.1311,-2.6052,0.0,-2.611,-2.64,-2.6651,-2.689,0.0,-2.7309,-2.7309,-2.7309,-2.7309,-2.7061,-2.6235,-2.5945,-2.5353,-2.3926,-2.3931,-2.405,0.0,0.0,0.0,0.0,0.0,0.0,0.0,0.0,0.0,0.0,0.0,0.0,0.0,0.0,0.0,-2.7073,-2.7073,-2.7073,-2.7073,-2.7073,-2.7073,-2.7073,-2.7306,-2.831,-2.9884,0.0,0.0,0.0,0.0,0.0,0.0,-3.3751,-3.3813,-3.3966,-3.3966,-3.4246,-3.4671,-3.4785,-3.4973,-3.5283,-3.5387,-3.52,-3.4838,-3.4443,-3.3976,-3.3524,-3.341,-3.3451,-3.3451,-3.3006,-3.2882,-3.2861,-3.2758,-3.2669,-3.3105,-3.4603,-3.5945,-3.7335,-3.8951,-4.03,-4.1211,-4.1261,-4.1311,-4.1311,-4.1311,-4.1311,-4.1311,-4.1311,-4.1311,-4.1311,-4.1311,-4.1311,-4.1311,-4.1311,-4.1311,-4.1311,-4.1311,-4.1311,-4.1311,-4.1311,-4.1311,-4.1311,-4.1311,-4.1311,-4.1311,-4.1311,-4.1311,-4.1311,-4.1311,-4.1311,-4.1311,-4.1311,-4.1311,-4.1311,-2.7662,-2.6982,-2.6352,-2.6602,-2.6794,-2.6948,-2.7214,-2.7309,-2.7309,-2.7309,-2.7309,-2.7167,-2.6726,-2.6332,-2.58,-2.4962,-2.4805,0.0,0.0,0.0,0.0,0.0,0.0,0.0,0.0,0.0,0.0,0.0,0.0,0.0,0.0,0.0,0.0,0.0,-2.7073,-2.7073,-2.7073,-2.7073,-2.7158,-2.7313,-2.7313,-2.8183,-2.9791,0.0,0.0,0.0,0.0,0.0,-3.4132,-3.4132,-3.4256,-3.4443,-3.4443,-3.4662,-3.5066,-3.5066,-3.5086,-3.5117,-3.5117,-3.4683,-3.4142,-3.3834,-3.3451,-3.3078,-3.3078,-3.3078,-3.3037,-3.2799,-3.2669,-3.2669,-3.2669,-3.2898,-3.3445,-3.4781,-3.6174,-3.7624,-3.9067,-4.03,-4.1147,-4.1261,-4.1311,-4.1311,-4.1311,-4.1311,-4.1311,-4.1311,-4.1311,-4.1311,-4.1311,-4.1311,-4.1311,-4.1311,-4.1311,-4.1311,-4.1311,-4.1311,-4.1311,-4.1311,-4.1311,-4.1311,-4.1311,-4.1311,-4.1311,-4.1311,-4.1311,-4.118,-4.0906,-4.0906,-4.0775,-4.054,-4.054,-4.054,-2.9453,-2.8272,-2.7051,-2.7119,-2.7034,-2.7034,-2.7262,-2.7309,-2.7309,-2.7309,-2.7309,-2.7309,-2.7309,-2.6726,0.0,0.0,0.0,0.0,0.0,0.0,0.0,0.0,0.0,0.0,0.0,0.0,0.0,0.0,0.0,0.0,0.0,0.0,0.0,0.0,-2.7073,-2.7073,-2.7073,-2.7073,-2.7227,-2.7527,-2.7641,-2.8421,-2.9658,-3.0701,0.0,0.0,0.0,0.0,-3.4235,-3.4248,-3.4526,-3.4816,-3.4816,-3.4941,-3.5211,-3.5211,-3.4983,-3.4702,-3.4629,-3.41,-3.3368,-3.3296,-3.3027,-3.2669,-3.2669,-3.2669,-3.2669,-3.2669,-3.2669,-3.2669,-3.2669,-3.3069,-3.3784,-3.4958,-3.6263,-3.7607,-3.9028,-4.0083,-4.0846,-4.106,-4.1211,-4.1311,-4.1311,-4.1311,-4.1311,-4.1311,-4.1311,-4.1285,-4.1193,-4.118,-4.1141,-4.1063,-4.105,-4.105,-4.105,-4.105,-4.105,-4.105,-4.1141,-4.1141,-4.105,-4.105,-4.105,-4.105,-4.105,-4.0801,-4.0292,-4.0292,-4.0056,-3.9612,-3.9612,-3.9612,-2.9818,-2.9692,-2.9383,-2.833,-2.7657,-2.7262,-2.7309,-2.7309,-2.7309,-2.7309,-2.7309,-2.7309,-2.7309,-2.7214,-2.687,0.0,0.0,0.0,0.0,0.0,0.0,0.0,0.0,0.0,0.0,0.0,0.0,0.0,0.0,0.0,0.0,0.0,0.0,0.0,0.0,-2.7073,-2.7073,-2.7073,-2.7107,-2.7219,-2.7979,-2.8897,-2.9896,-3.084,-3.1984,0.0,0.0,0.0,-3.4743,-3.5055,-3.5035,-3.4816,-3.4816,-3.4559,-3.4279,-3.4279,-3.4238,-3.4173,-3.372,-3.3492,-3.3317,-3.2954,-3.2789,-3.2669,-3.2669,-3.2669,-3.2669,-3.2669,-3.2669,-3.2669,-3.2669,-3.2784,-3.3218,-3.4603,-3.553,-3.6457,-3.7837,-3.9248,-4.0224,-4.0287,-4.0846,-4.1311,-4.1311,-4.1311,-4.1311,-4.1311,-4.1311,-4.1128,-4.0618,-4.0553,-4.0383,-3.9926,-3.9873,-3.9873,-3.9873,-3.9873,-3.9873,-3.9873,-4.0305,-4.0344,-3.9886,-3.9873,-3.9873,-3.9873,-3.9873,-3.9834,-3.973,-3.973,-3.969,-3.9612,-3.9612,-3.9612,-3.1601,-3.1291,-3.0812,-3.0249,-2.9475,-2.8852,-2.8852,-2.8445,-2.8034,-2.8034,-2.7631,-2.7309,0.0,0.0,-2.7167,-2.6822,0.0,0.0,0.0,0.0,0.0,0.0,0.0,0.0,0.0,0.0,0.0,0.0,0.0,0.0,0.0,0.0,0.0,0.0,0.0,0.0,-2.7073,-2.7073,-2.747,-2.8148,-2.8563,-2.9388,-3.0547,-3.1514,-3.2286,0.0,0.0,-3.4246,-3.4463,-3.46,-3.4569,-3.4443,-3.4443,-3.4318,-3.41,-3.3841,-3.3699,-3.3627,-3.3182,-3.3027,-3.2996,-3.2799,-3.2669,-3.2669,-3.2669,-3.2669,-3.2669,-3.2669,-3.2669,-3.2669,-3.2669,-3.2955,-3.3342,-3.4032,-3.5022,-3.6117,-3.7219,-3.8359,-3.9307,-3.9743,-4.0138,-4.0396,-4.0396,-4.0396,-4.0396,-4.0396,-4.0396,-4.0292,-4.0017,-3.9978,-3.9886,-3.9638,-3.9612,-3.9612,-3.9612,-3.9612,-3.9612,-3.9612,-3.9847,-3.9873,-3.9625,-3.9612,-3.9612,-3.9612,-3.9612,-3.9455,-3.9115,-3.9115,-3.8972,-3.8684,-3.8684,-3.8684,-3.3124,-3.2537,-3.1945,-3.1945,-3.108,-3.0215,-3.0215,-2.9578,-2.8991,-2.8771,-2.8128,0.0,0.0,-2.7309,0.0,0.0,0.0,0.0,0.0,0.0,0.0,0.0,0.0,0.0,0.0,0.0,0.0,0.0,0.0,0.0,0.0,0.0,0.0,0.0,0.0,0.0,-2.7073,-2.7073,-2.7574,-2.8576,-2.8992,-2.9753,-3.077,-3.1997,-3.2545,-3.2605,-3.3559,-3.3966,-3.3917,-3.402,-3.4069,-3.3966,-3.3966,-3.3844,-3.371,-3.3358,-3.3234,-3.3172,-3.284,-3.2669,-3.2659,-3.2545,-3.2514,-3.2494,-3.2447,-3.2416,-3.2416,-3.2416,-3.2416,-3.2437,-3.2483,-3.2828,-3.3138,-3.3239,-3.4305,-3.5502,-3.637,-3.7389,-3.8334,-3.9152,-3.9455,-3.9612,-3.9612,-3.9612,-3.9612,-3.9612,-3.9612,-3.956,-3.9416,-3.9403,-3.9351,-3.922,-3.9207,-3.9207,-3.9207,-3.9207,-3.9207,-3.9207,-3.9324,-3.9337,-3.922,-3.9207,-3.9207,-3.9207,-3.9207,-3.8985,-3.8514,-3.8514,-3.8305,-3.79,-3.79,-3.79,-3.3124,-3.3038,-3.2982,-3.2982,-3.1569,-3.0215,-3.0215,-3.0125,-2.9852,-2.8899,-2.8631,-2.8305,0.0,-2.7309,0.0,0.0,0.0,0.0,0.0,0.0,0.0,0.0,0.0,0.0,0.0,0.0,0.0,0.0,0.0,0.0,0.0,0.0,0.0,0.0,0.0,0.0,-2.7073,-2.7073,-2.715,-2.7237,-2.8993,-2.9882,-3.0028,-3.1878,-3.2715,-3.2736,-3.3254,-3.343,-3.3461,-3.3896,-3.3813,-3.343,-3.343,-3.3182,-3.282,-3.2789,-3.2778,-3.2778,-3.269,-3.2669,-3.2607,-3.2173,-3.2039,-3.1957,-3.1598,-3.1474,-3.1474,-3.1474,-3.1474,-3.1567,-3.1926,-3.1785,-3.1683,-3.2154,-3.2814,-3.3626,-3.4895,-3.6261,-3.7531,-3.8236,-3.9055,-3.9612,-3.9612,-3.9612,-3.9612,-3.9612,-3.9612,-3.9416,-3.8841,-3.8776,-3.8579,-3.8083,-3.8031,-3.8031,-3.8031,-3.8031,-3.8031,-3.8031,-3.8501,-3.8553,-3.8044,-3.8031,-3.8031,-3.8031,-3.8031,-3.8004,-3.7965,-3.7965,-3.7939,-3.79,-3.79,-3.79,-3.3124,-3.2817,-3.2629,-3.2993,-3.2265,-3.1551,-3.1904,-3.1536,-3.0946,-3.0588,-2.9543,-2.8398,0.0,0.0,0.0,0.0,0.0,0.0,0.0,0.0,0.0,0.0,0.0,0.0,0.0,0.0,0.0,0.0,0.0,0.0,0.0,0.0,0.0,0.0,0.0,0.0,0.0,-2.6953,-2.7073,-2.7133,-2.9007,-3.0236,-3.082,-3.2133,-3.2669,-3.2737,-3.2903,-3.2975,-3.2985,-3.3161,-3.313,-3.2975,-3.2975,-3.2696,-3.2246,-3.2246,-3.2126,-3.1888,-3.1888,-3.1888,-3.1857,-3.1681,-3.1629,-3.1598,-3.1422,-3.1381,-3.1381,-3.1381,-3.1174,-3.106,-3.1505,-3.1759,-3.195,-3.2156,-3.2671,-3.3388,-3.4337,-3.5406,-3.6417,-3.7152,-3.7998,-3.8553,-3.8553,-3.8553,-3.8553,-3.8553,-3.8553,-3.8462,-3.824,-3.8214,-3.8122,-3.7926,-3.79,-3.79,-3.79,-3.79,-3.79,-3.79,-3.8096,-3.8122,-3.7913,-3.79,-3.79,-3.79,-3.79,-3.79,-3.79,-3.79,-3.79,-3.79,-3.79,-3.79,-3.2805,-3.239,-3.2051,-3.2441,-3.2378,-3.2315,-3.2717,-3.2445,-3.1901,-3.1258,-2.9635,-2.8034,-2.7404,0.0,0.0,0.0,0.0,0.0,0.0,0.0,0.0,0.0,0.0,0.0,0.0,0.0,0.0,0.0,0.0,0.0,0.0,0.0,0.0,0.0,0.0,0.0,0.0,-2.6585,-2.6713,-2.6713,-2.863,-2.9977,-3.0878,-3.2133,-3.2669,-3.2669,-3.2514,-3.2452,-3.2442,-3.2364,-3.2302,-3.2302,-3.2302,-3.2106,-3.1826,-3.1826,-3.164,-3.1381,-3.1381,-3.1381,-3.135,-3.1205,-3.1153,-3.1133,-3.0988,-3.0946,-3.0946,-3.0946,-3.0708,-3.0543,-3.0853,-3.1356,-3.1859,-3.2178,-3.26,-3.322,-3.4434,-3.5186,-3.5906,-3.6875,-3.7505,-3.79,-3.79,-3.79,-3.79,-3.79,-3.79,-3.79,-3.79,-3.79,-3.79,-3.79,-3.79,-3.79,-3.79,-3.79,-3.79,-3.79,-3.79,-3.79,-3.79,-3.79,-3.79,-3.79,-3.79,-3.79,-3.79,-3.79,-3.79,-3.79,-3.79,-3.79,-3.2202,-3.18,-3.1386,-3.1386,-3.18,-3.2202,-3.2215,-3.2667,-3.2525,-3.0621,-2.8667,-2.7299,-2.7309,-2.7309,0.0,0.0,0.0,0.0,0.0,0.0,0.0,0.0,0.0,0.0,0.0,0.0,0.0,0.0,0.0,0.0,0.0,0.0,0.0,0.0,0.0,0.0,0.0,-2.5876,-2.5876,-2.5934,-2.7746,-2.9079,-2.9924,-3.1825,-3.2659,-3.2638,-3.2184,-3.1977,-3.1946,-3.1557,-3.1381,-3.1381,-3.1381,-3.1381,-3.1371,-3.1371,-3.1371,-3.136,-3.136,-3.136,-3.1288,-3.0833,-3.0677,-3.0594,-3.0129,-2.9994,-2.9994,-2.9994,-2.9994,-2.9994,-2.9994,-3.0391,-3.1094,-3.2156,-3.2409,-3.3001,-3.5126,-3.5619,-3.6061,-3.7611,-3.79,-3.79,-3.79,-3.79,-3.79,-3.79,-3.79,-3.79,-3.79,-3.79,-3.79,-3.79,-3.79,-3.79,-3.79,-3.79,-3.79,-3.79,-3.79,-3.79,-3.79,-3.79,-3.79,-3.79,-3.79,-3.79,-3.79,-3.79,-3.79,-3.79,-3.79,-3.79,-3.1637,-3.1248,-3.0934,-3.1298,-3.1512,-3.1738,-3.2127,-3.2667,-3.2766,-3.1436,-3.0215,-2.9119,-2.8398,0.0,0.0,0.0,0.0,0.0,0.0,0.0,0.0,0.0,0.0,0.0,0.0,0.0,0.0,0.0,0.0,0.0,0.0,0.0,0.0,0.0,0.0,0.0,0.0,0.0,-2.6224,-2.6849,-2.8021,-2.8719,-2.907,-3.0908,-3.1774,-3.1774,-3.1629,-3.1578,-3.1567,-3.1433,-3.1381,-3.1381,-3.1381,-3.1174,-3.0895,-3.0895,-3.0688,-3.0408,-3.0408,-3.0408,-3.0387,-3.0243,-3.0201,-3.018,-3.0036,-2.9994,-2.9994,-2.9994,-2.9994,-3.0099,-3.0443,-3.0692,-3.1002,-3.1669,-3.2672,-3.377,-3.4593,-3.5463,-3.6273,-3.6922,-3.7505,-3.79,-3.79,-3.79,-3.79,-3.79,-3.79,-3.79,-3.79,-3.79,-3.79,-3.79,-3.79,-3.79,-3.79,-3.79,-3.79,-3.79,-3.79,-3.79,-3.79,-3.79,-3.79,-3.79,-3.79,-3.79,-3.79,-3.79,-3.79,-3.79,-3.79,-3.79,-3.1085,-3.0696,-3.0419,-3.0947,-3.1235,-3.1599,-3.2378,0.0,0.0,0.0,-3.0845,-2.9897,-2.8899,0.0,0.0,0.0,0.0,0.0,0.0,0.0,0.0,0.0,0.0,0.0,0.0,0.0,0.0,0.0,0.0,0.0,0.0,0.0,0.0,0.0,0.0,0.0,0.0,0.0,0.0,-2.726,-2.8206,-2.8648,-2.8713,-3.0583,-3.1381,-3.136,-3.1184,-3.0998,-3.0833,-3.0833,-3.0833,-3.0833,-3.0833,-3.0657,-3.0408,-3.0408,-3.0232,-2.9994,-2.9994,-2.9994,-2.9994,-2.9994,-2.9994,-2.9994,-2.9994,-2.9994,-2.9994,-2.9994,-2.9994,-3.0141,-3.064,-3.094,-3.1208,-3.1516,-3.2521,-3.3572,-3.4325,-3.5307,-3.6238,-3.7015,-3.7564,-3.79,-3.79,-3.79,-3.79,-3.79,-3.79,-3.79,-3.79,-3.79,-3.79,-3.79,-3.79,-3.79,-3.79,-3.79,-3.79,-3.79,-3.79,-3.79,-3.79,-3.79,-3.79,-3.79,-3.79,-3.79,-3.79,-3.79,-3.79,-3.79,-3.79,-3.79,-3.0545,-3.0168,-2.993,-3.0482,-3.1047,0.0,-3.283,-3.2394,-3.1713,-3.1713,0.0,-3.0034,0.0,0.0,0.0,0.0,0.0,0.0,0.0,0.0,0.0,0.0,0.0,0.0,0.0,0.0,0.0,0.0,0.0,0.0,0.0,0.0,0.0,0.0,0.0,0.0,0.0,0.0,0.0,0.0,-2.8305,-2.8741,-2.8877,-3.0529,-3.1247,-3.1226,-3.0801,-3.0387,-2.9994,-2.9994,-2.9994,-2.9994,-2.9994,-2.9994,-2.9994,-2.9994,-2.9994,-2.9994,-2.9994,-2.9994,-2.9994,-2.9994,-2.9994,-2.9994,-2.9994,-2.9994,-2.9994,-2.9994,-3.0047,-3.0193,-3.0681,-3.1208,-3.1618,-3.1618,-3.2066,-3.2951,-3.435,-3.515,-3.6001,-3.7518,-3.7808,-3.7808,-3.79,-3.79,-3.79,-3.79,-3.79,-3.79,-3.79,-3.79,-3.79,-3.79,-3.79,-3.79,-3.79,-3.79,-3.79,-3.79,-3.79,-3.79,-3.79,-3.79,-3.79,-3.79,-3.79,-3.79,-3.79,-3.79,-3.79,-3.79,-3.79,-3.79,-2.9967,-2.988,0.0,-3.0482,-3.1336,-3.2215,-3.296,-3.2939,-3.2766,-3.2766,-3.1989,0.0,0.0,0.0,0.0,0.0,0.0,0.0,0.0,0.0,0.0,0.0,0.0,0.0,0.0,0.0,0.0,0.0,0.0,0.0,0.0,0.0,0.0,0.0,0.0,0.0,-2.7394,-2.7384,-2.7716,0.0,-2.8635,-2.9069,-2.9732,-3.0138,-3.0294,-3.0284,-3.0191,-3.0087,-2.9994,-2.9994,-2.9994,-2.9994,-2.9994,-2.9994,-2.9994,-2.9994,-2.9994,-2.9994,-2.9994,-2.9994,-2.9994,-2.9994,-2.9994,-2.9994,-2.9994,-2.9994,-2.9994,-2.9994,-3.0287,-3.064,-3.0785,-3.1208,-3.1618,-3.1618,-3.2622,-3.3819,-3.4337,-3.4872,-3.5607,-3.6722,-3.6968,-3.7168,-3.7808,-3.79,-3.79,-3.79,-3.79,-3.79,-3.79,-3.79,-3.79,-3.79,-3.79,-3.79,-3.79,-3.79,-3.79,-3.79,-3.79,-3.79,-3.79,-3.79,-3.79,-3.79,-3.79,-3.79,-3.79,-3.79,-3.79,-3.79,-3.79,-3.79,-2.9792,0.0,0.0,-3.0783,0.0,-3.2704,-3.3048,-3.3124,-3.3124,-3.3124,0.0,0.0,0.0,0.0,0.0,0.0,0.0,0.0,0.0,0.0,0.0,0.0,0.0,0.0,0.0,0.0,0.0,0.0,0.0,0.0,0.0,0.0,0.0,0.0,0.0,0.0,-2.8635,-2.8635,-2.8857,-2.9343,-2.9343,-2.9564,-2.9994,-2.9994,-2.9994,-2.9994,-2.9994,-2.9994,-2.9994,-2.9994,-2.9994,-2.9994,-2.9994,-2.9994,-3.0025,-3.0243,-3.0325,-3.0356,-3.0584,-3.0657,-3.0657,-3.0657,-3.0657,-3.0657,-3.0657,-3.0657,-3.071,-3.0956,-3.1063,-3.1169,-3.1503,-3.1542,-3.1551,-3.157,-3.2432,-3.3373,-3.3895,-3.4434,-3.5078,-3.6001,-3.6474,-3.6815,-3.7261,-3.7657,-3.79,-3.79,-3.79,-3.79,-3.79,-3.79,-3.79,-3.79,-3.79,-3.79,-3.79,-3.79,-3.79,-3.79,-3.79,-3.79,-3.79,-3.79,-3.79,-3.79,-3.79,-3.79,-3.79,-3.79,-3.79,-3.79,-3.79,-3.79,-2.9792,-2.993,-3.0281,-3.1173,-3.224,0.0,-3.3124,-3.3124,-3.3124,0.0,0.0,0.0,0.0,0.0,0.0,0.0,0.0,0.0,0.0,0.0,0.0,0.0,0.0,0.0,0.0,0.0,0.0,0.0,0.0,0.0,0.0,0.0,0.0,0.0,0.0,-2.9994,-2.9994,-2.9994,-2.9994,-2.9994,-2.9994,-2.9994,-2.9994,-2.9994,-2.9994,-2.9994,-2.9994,-2.9994,-2.9994,-2.9994,-2.9994,-3.0005,-3.0087,-3.0118,-3.017,-3.0636,-3.0801,-3.0864,-3.1247,-3.1381,-3.1381,-3.1381,-3.1381,-3.1381,-3.1381,-3.1381,-3.148,-3.195,-3.1787,-3.1659,-3.2199,-3.2038,-3.1772,-3.1704,-3.2046,-3.251,-3.3124,-3.3747,-3.4434,-3.5271,-3.6238,-3.6909,-3.6909,-3.7459,-3.79,-3.79,-3.79,-3.79,-3.79,-3.79,-3.79,-3.79,-3.79,-3.79,-3.79,-3.79,-3.79,-3.79,-3.79,-3.79,-3.79,-3.79,-3.79,-3.79,-3.79,-3.79,-3.79,-3.79,-3.79,-3.79,-3.79,-3.79,-2.9792,0.0,-3.121,0.0,-3.224,-3.3124,0.0,0.0,0.0,0.0,0.0,0.0,0.0,0.0,0.0,0.0,0.0,0.0,0.0,0.0,0.0,0.0,0.0,0.0,0.0,0.0,0.0,0.0,0.0,0.0,0.0,0.0,-2.9994,-2.9994,-2.9994,0.0,-2.9994,-2.9994,-2.9994,-2.9994,-2.9994,-2.9994,-2.9994,-2.9994,-2.9994,-2.9994,-2.9994,-2.9994,-2.9994,-2.9994,-2.9994,-3.0036,-3.0439,-3.0594,-3.0646,-3.1112,-3.1288,-3.1298,-3.136,-3.1381,-3.1381,-3.1381,-3.1381,-3.1381,-3.1381,-3.1381,-3.1425,-3.148,-3.1797,-3.2091,-3.2179,-3.2491,-3.2693,-3.232,-3.2252,-3.2236,-3.1911,-3.2661,-3.3636,-3.4654,-3.6414,-3.7749,-3.7749,-3.7854,-3.79,-3.79,-3.79,-3.79,-3.79,-3.79,-3.79,-3.79,-3.79,-3.79,-3.79,-3.79,-3.79,-3.79,-3.79,-3.79,-3.79,-3.79,-3.79,-3.79,-3.79,-3.79,-3.79,-3.79,-3.79,-3.79,-3.79,-3.79,-2.9792,-3.057,-3.1386,0.0,-3.224,-3.3124,-3.3124,0.0,0.0,0.0,0.0,0.0,0.0,0.0,0.0,0.0,0.0,0.0,0.0,0.0,0.0,0.0,0.0,0.0,0.0,0.0,0.0,0.0,0.0,0.0,0.0,-2.986,-2.9994,-2.9994,-2.9994,0.0,-2.9994,-2.9994,-2.9994,-2.9994,-2.9994,-2.9994,-2.9994,-2.9994,-2.9994,-2.9994,-2.9994,-2.9994,-2.9994,-2.9994,-2.9994,-3.0015,-3.0222,-3.0294,-3.0356,-3.0822,-3.0988,-3.1029,-3.1288,-3.1536,-3.1754,-3.1754,-3.193,-3.2137,-3.2137,-3.2137,-3.2193,-3.2518,-3.2574,-3.2448,-3.224,-3.1965,-3.154,-3.0798,-3.0416,-3.0172,-2.996,-3.1175,-3.2801,-3.4399,-3.5976,-3.7201,-3.7808,-3.79,-3.79,-3.79,-3.79,-3.79,-3.79,-3.79,-3.79,-3.79,-3.79,-3.79,-3.79,-3.79,-3.79,-3.79,-3.79,-3.79,-3.79,-3.79,-3.79,-3.79,-3.79,-3.79,-3.79,-3.79,-3.79,-3.79,-3.79,-3.79,0.0,0.0,-3.1386,-3.1386,-3.224,-3.3124,0.0,0.0,0.0,0.0,0.0,0.0,0.0,0.0,0.0,0.0,0.0,0.0,0.0,0.0,0.0,0.0,0.0,0.0,0.0,0.0,0.0,0.0,0.0,0.0,-2.9125,-2.9456,-2.9704,-2.9818,-2.9818,-2.988,-2.9994,-2.9994,-2.9994,-2.9994,-2.9994,-2.9994,-2.9994,-2.9994,-2.9932,-2.9829,-2.9942,-2.9994,-2.9994,-2.9994,-2.9994,-3.0005,-3.0129,-3.017,-3.0222,-3.0688,-3.0864,-3.0915,-3.1257,-3.1516,-3.1692,-3.1692,-3.1857,-3.2033,-3.2033,-3.2033,-3.2089,-3.259,-3.2368,-3.1989,-3.1716,-3.1071,-3.0358,-2.9652,-2.9143,-2.8853,-2.9165,-3.0532,-3.2369,-3.451,-3.5734,-3.6709,-3.7703,-3.79,-3.79,-3.79,-3.79,-3.79,-3.79,-3.79,-3.79,-3.79,-3.79,-3.79,-3.79,-3.79,-3.79,-3.79,-3.79,-3.79,-3.79,-3.79,-3.79,-3.79,-3.79,-3.79,-3.79,-3.79,-3.79,-3.79,-3.79,-3.79,0.0,-3.057,0.0,-3.1386,-3.224,0.0,0.0,0.0,0.0,0.0,0.0,0.0,0.0,0.0,0.0,0.0,0.0,0.0,0.0,0.0,0.0,0.0,0.0,0.0,0.0,0.0,0.0,0.0,0.0,0.0,-2.8649,-2.8669,-2.8887,-2.9332,-2.9342,-2.9549,-2.9994,-2.9994,-2.9994,-2.9994,-2.9994,-2.9994,-2.9994,-2.9994,-2.9756,-2.9363,-2.9808,-2.9994,-2.9994,-2.9994,-2.9994,-3.0036,-3.0481,-3.0646,-3.0708,-3.1174,-3.134,-3.135,-3.1371,-3.1102,-3.076,-3.076,-3.0481,-3.0139,-3.0139,-3.0139,-3.0139,-3.0192,-3.0139,-3.0129,-3.0129,-3.0098,-3.0068,-3.0039,-2.9647,-2.9541,-3.0632,-3.1529,-3.2769,-3.509,-3.6168,-3.6956,-3.7762,-3.79,-3.79,-3.79,-3.79,-3.79,-3.79,-3.79,-3.79,-3.79,-3.79,-3.79,-3.79,-3.79,-3.79,-3.79,-3.79,-3.79,-3.79,-3.79,-3.79,-3.79,-3.79,-3.79,-3.79,-3.79,-3.79,-3.79,-3.79,-3.79,0.0,0.0,0.0,-3.1298,-3.1964,-3.2616,0.0,0.0,0.0,0.0,0.0,0.0,0.0,0.0,0.0,0.0,0.0,0.0,0.0,0.0,0.0,0.0,0.0,0.0,0.0,0.0,0.0,0.0,0.0,0.0,-2.8173,-2.8452,-2.869,-2.8856,-2.8856,-2.8938,-2.9104,-2.9104,-2.9104,-2.9104,-2.9104,-2.9104,-2.9104,-2.9104,-2.9021,-2.8866,-2.9032,-2.9104,-2.9104,-2.9104,-2.9104,-2.9125,-2.929,-2.9352,-2.9373,-2.9539,-2.9601,-2.9601,-2.9601,-2.9684,-2.9798,-2.9798,-2.9891,-2.9994,-2.9994,-2.9994,-2.9994,-2.9994,-2.9994,-2.9922,-2.9632,-2.9332,-2.9119,-2.9176,-2.9031,-2.9313,-3.0651,-3.1493,-3.2546,-3.4333,-3.5459,-3.6257,-3.6661,-3.7063,-3.7325,-3.7325,-3.7652,-3.79,-3.79,-3.79,-3.79,-3.79,-3.79,-3.79,-3.79,-3.79,-3.79,-3.79,-3.79,-3.79,-3.79,-3.79,-3.79,-3.79,-3.79,-3.79,-3.79,-3.79,-3.79,-3.79,-3.79,-3.79,-2.9792,0.0,0.0,0.0,0.0,-3.2315,0.0,0.0,0.0,0.0,0.0,0.0,0.0,0.0,0.0,0.0,0.0,0.0,0.0,0.0,0.0,0.0,0.0,0.0,0.0,0.0,0.0,0.0,0.0,0.0,-2.7696,-2.7997,-2.8224,-2.838,-2.8535,-2.8618,-2.8618,-2.8618,-2.8618,-2.8618,-2.8618,-2.8618,-2.8618,-2.8618,-2.8524,-2.838,-2.838,-2.8473,-2.8618,-2.8618,-2.8618,-2.8618,-2.8618,-2.8618,-2.8618,-2.8618,-2.8618,-2.8618,-2.8618,-2.8711,-2.8835,-2.8835,-2.8949,-2.9073,-2.9073,-2.9073,-2.9073,-2.9073,-2.9073,-2.9001,-2.87,-2.8775,-2.886,-2.8737,-2.9084,-2.9761,-3.0979,-3.1617,-3.2311,-3.3732,-3.4697,-3.543,-3.5815,-3.6304,-3.6622,-3.6622,-3.7175,-3.7599,-3.7599,-3.7782,-3.79,-3.79,-3.79,-3.79,-3.79,-3.79,-3.79,-3.79,-3.79,-3.79,-3.79,-3.79,-3.79,-3.79,-3.79,-3.79,-3.79,-3.79,-3.79,-3.79,-3.79,-3.79,0.0,0.0,0.0,0.0,0.0,0.0,0.0,0.0,0.0,0.0,0.0,0.0,0.0,0.0,0.0,0.0,0.0,0.0,0.0,0.0,0.0,0.0,0.0,0.0,0.0,0.0,0.0,0.0,0.0,-2.7309,-2.7309,-2.7309,-2.7458,-2.7883,-2.8338,-2.8576,-2.8576,-2.8576,-2.8576,-2.8576,-2.8576,-2.8576,-2.8576,-2.8576,-2.8328,-2.7903,-2.7903,-2.8152,-2.8576,-2.8576,-2.8576,-2.8576,-2.8576,-2.8576,-2.8576,-2.8576,-2.8576,-2.8576,-2.8576,-2.8276,-2.7903,-2.7903,-2.7614,-2.7309,-2.7309,-2.7309,-2.7309,-2.7309,-2.7309,-2.7309,-2.7309,-2.8373,-2.9301,-2.8817,-2.9818,-3.108,-3.1857,-3.1866,-3.2101,-3.336,-3.3973,-3.4527,-3.529,-3.5644,-3.5789,-3.5789,-3.646,-3.6985,-3.6972,-3.7508,-3.7874,-3.7874,-3.79,-3.79,-3.79,-3.79,-3.79,-3.79,-3.79,-3.79,-3.79,-3.79,-3.79,-3.79,-3.79,-3.79,-3.79,-3.79,-3.79,-3.79,-3.79,-3.79,-2.9792,0.0,0.0,0.0,0.0,0.0,0.0,0.0,0.0,0.0,0.0,0.0,0.0,0.0,0.0,0.0,0.0,0.0,0.0,0.0,0.0,0.0,0.0,0.0,0.0,0.0,0.0,0.0,0.0,-2.7309,-2.7309,-2.7309,-2.7361,-2.7438,-2.7562,-2.7683,-2.7683,-2.7683,-2.7683,-2.7683,-2.7683,-2.7683,-2.7683,-2.7683,-2.7562,-2.7486,-2.7486,-2.7521,-2.7683,-2.7683,-2.7683,-2.7683,-2.7683,-2.7683,-2.7683,-2.7683,-2.7683,-2.7683,-2.7683,-2.7552,-2.7486,-2.7486,-2.7413,-2.7309,-2.7309,-2.7309,-2.7309,-2.7309,-2.7309,-2.7309,-2.7309,-2.7584,-2.8045,-2.8585,-2.9589,-3.0621,-3.1536,-3.2242,-3.2891,-3.3571,-3.3913,-3.4157,-3.4187,-3.4706,-3.5163,-3.5163,-3.5686,-3.6181,-3.6314,-3.6881,-3.726,-3.726,-3.7639,-3.79,-3.79,-3.79,-3.79,-3.79,-3.79,-3.79,-3.79,-3.79,-3.79,-3.79,-3.79,-3.79,-3.79,-3.79,-3.79,-3.79,-3.79,-3.79,-2.9792,-2.9792,-2.9867,0.0,0.0,0.0,0.0,-3.1888,0.0,0.0,0.0,0.0,0.0,0.0,0.0,0.0,0.0,0.0,0.0,0.0,0.0,0.0,0.0,0.0,0.0,0.0,0.0,0.0,-2.7809,-2.7309,-2.7309,-2.7309,-2.7309,-2.7309,-2.7309,-2.7309,-2.7309,-2.7309,-2.7309,-2.7309,-2.7309,-2.7309,-2.7309,-2.7309,-2.7309,-2.7309,-2.7309,-2.7309,-2.7309,-2.7309,-2.7309,-2.7309,-2.7309,-2.7309,-2.7309,-2.7309,-2.7309,-2.7309,-2.7309,-2.7309,-2.7309,-2.7309,-2.7309,-2.7309,-2.7309,-2.7309,-2.7309,-2.7309,-2.7309,-2.7309,-2.7309,-2.7893,-2.8631,-2.9222,-3.0396,-3.1581,-3.212,-3.2711,-3.3197,-3.3513,-3.3683,-3.3768,-3.3713,-3.4178,-3.4567,-3.4567,-3.5146,-3.5639,-3.577,-3.6279,-3.6619,-3.6619,-3.6946,-3.7155,-3.7155,-3.7377,-3.7521,-3.7521,-3.7769,-3.79,-3.79,-3.79,-3.79,-3.79,-3.79,-3.79,-3.79,-3.79,-3.79,-3.79,-3.79,-3.79,-2.9792,-2.9792,-2.9792,0.0,0.0,0.0,-3.0608,-3.1361,0.0,0.0,0.0,0.0,0.0,0.0,0.0,0.0,0.0,0.0,0.0,0.0,0.0,0.0,0.0,0.0,0.0,0.0,0.0,-2.8945,-2.7893,-2.7309,-2.7309,-2.7309,-2.7309,-2.7309,-2.7309,-2.7309,-2.7309,-2.7309,-2.7309,-2.7309,-2.7309,-2.7309,-2.7309,-2.7309,-2.7309,-2.7309,-2.7309,-2.7309,-2.7309,-2.7309,-2.7309,-2.7309,-2.7309,-2.7309,-2.7309,-2.7309,-2.7309,-2.7309,-2.7309,-2.7309,-2.7309,-2.7309,-2.7309,-2.7309,-2.7309,-2.7309,-2.7309,-2.7309,-2.7404,-2.7441,-2.7441,-2.8806,-3.0215,-3.0215,-3.1625,-3.2939,-3.2939,-3.3025,-3.3154,-3.3356,-3.3398,-3.3484,-3.3641,-3.3852,-3.4034,-3.4034,-3.4656,-3.5109,-3.5109,-3.5635,-3.5961,-3.5961,-3.607,-3.6109,-3.6109,-3.6593,-3.6907,-3.6907,-3.7403,-3.7704,-3.7704,-3.7704,-3.7704,-3.7704,-3.7704,-3.7704,-3.7704,-3.7835,-3.79,-3.79,-3.7835,-3.7808,0.0,0.0,0.0,0.0,0.0,0.0,-3.052,-3.0771,-3.1047,0.0,0.0,0.0,0.0,0.0,0.0,0.0,0.0,0.0,0.0,0.0,0.0,0.0,0.0,0.0,0.0,0.0,-3.0125,-2.9943,-2.8315,-2.7309,-2.7309,-2.7309,-2.7309,-2.7309,-2.7309,-2.7309,-2.7309,-2.7309,-2.7309,-2.7309,-2.7309,-2.7309,-2.7309,-2.7309,-2.7309,-2.7309,-2.7309,-2.7309,-2.7309,-2.7309,-2.7309,-2.7309,-2.7309,-2.7309,-2.7309,-2.7309,-2.7309,-2.7309,-2.7309,-2.7309,-2.7309,-2.7309,-2.7309,-2.7309,-2.7309,-2.7309,-2.7309,-2.7309,-2.7857,-2.8456,-2.8456,-2.9314,-3.0215,-3.0215,-3.108,-3.1901,-3.1901,-3.2537,-3.3154,-3.3356,-3.3398,-3.3398,-3.3441,-3.3484,-3.3611,-3.3768,-3.3785,-3.382,-3.3977,-3.4693,-3.5128,-3.5128,-3.5705,-3.6109,-3.6109,-3.6214,-3.6279,-3.6279,-3.6397,-3.6449,-3.6449,-3.6449,-3.6449,-3.6449,-3.6449,-3.6449,-3.6449,-3.7429,-3.79,-3.79,-3.7403,-3.7181,0.0,0.0,0.0,-2.9792,0.0,0.0,0.0,-3.0419,0.0,0.0,0.0,0.0,0.0,0.0,0.0,0.0,0.0,0.0,0.0,0.0,0.0,0.0,0.0,0.0,0.0,0.0,-3.0486,-2.9532,-2.8538,-2.7809,-2.7309,-2.7309,-2.7309,-2.7309,-2.7309,-2.7309,-2.7309,-2.7309,-2.7309,-2.7309,-2.7309,-2.7309,-2.7309,-2.7309,-2.7309,-2.7309,-2.7309,-2.7309,-2.7309,-2.7309,-2.7309,-2.7309,-2.7309,-2.7309,-2.7309,-2.7309,-2.7309,-2.7309,-2.7309,-2.7309,-2.7309,-2.7309,-2.7309,-2.7309,-2.7309,-2.7631,-2.8081,-2.8631,-2.9084,-2.9441,-2.9441,-3.017,-3.0902,-3.0902,-3.1625,-3.2351,-3.2351,-3.2754,-3.3111,-3.324,-3.324,-3.3313,-3.3513,-3.3556,-3.3598,-3.367,-3.3598,-3.3598,-3.367,-3.4054,-3.4362,-3.4503,-3.4877,-3.5132,-3.5247,-3.5534,-3.5704,-3.5704,-3.5953,-3.6109,-3.6109,-3.6109,-3.6109,-3.6109,-3.6109,-3.6109,-3.6109,-3.6711,-3.6998,-3.6998,-3.6698,-3.6554,0.0,0.0,0.0,0.0,0.0,-2.9792,0.0,0.0,0.0,0.0,0.0,0.0,0.0,0.0,0.0,0.0,0.0,0.0,0.0,0.0,0.0,0.0,0.0,0.0,0.0,0.0,-3.0332,-2.8664,-2.8408,-2.7985,-2.7347,-2.7309,-2.7309,-2.7309,-2.7309,-2.7309,-2.7309,-2.7309,-2.7309,-2.7309,-2.7309,-2.7309,-2.7309,-2.7309,-2.7309,-2.7309,-2.7309,-2.7309,-2.7309,-2.7309,-2.7309,-2.7309,-2.7309,-2.7309,-2.7309,-2.7309,-2.7309,-2.7309,-2.7309,-2.7309,-2.7309,-2.7309,-2.7309,-2.7309,-2.7489,-2.8081,-2.891,-2.9897,-3.0351,-3.0486,-3.0486,-3.1036,-3.1581,-3.1581,-3.222,-3.2797,-3.2797,-3.2939,-3.3124,-3.3124,-3.3124,-3.324,-3.3598,-3.3598,-3.3598,-3.367,-3.367,-3.367,-3.3713,-3.3768,-3.3852,-3.4076,-3.4118,-3.4243,-3.4397,-3.4842,-3.5129,-3.5087,-3.5491,-3.5683,-3.5639,-3.5639,-3.5639,-3.5726,-3.5726,-3.5726,-3.577,-3.577,-3.5887,-3.6109,-3.5992,-3.5953,0.0,0.0,0.0,0.0,-2.9792,0.0,0.0,0.0,0.0,0.0,0.0,0.0,0.0,0.0,0.0,0.0,0.0,0.0,0.0,0.0,0.0,0.0,0.0,0.0,0.0,0.0,0.0,-2.8058,-2.7278,-2.6957,-2.7289,-2.7309,-2.7309,-2.7309,-2.7309,-2.7309,-2.7309,-2.7309,-2.7309,-2.7309,-2.7309,-2.7309,-2.7309,-2.7309,-2.7309,-2.7309,-2.7309,-2.7309,-2.7309,-2.7309,-2.7309,-2.7309,-2.7309,-2.7309,-2.7309,-2.7309,-2.7309,-2.7309,-2.7309,-2.7309,-2.7309,-2.7309,-2.7309,-2.7441,-2.8315,-2.8631,-2.891,-2.9897,-3.08,-3.1448,-3.1448,-3.1536,-3.1581,-3.1581,-3.1681,-3.1769,-3.1769,-3.2481,-3.3124,-3.3124,-3.3124,-3.3154,-3.3398,-3.3283,-3.3283,-3.3641,-3.3556,-3.3513,-3.367,-3.3894,-3.4076,-3.4118,-3.4285,-3.4397,-3.4397,-3.4463,-3.4418,-3.4263,-3.4273,-3.4215,-3.399,-3.3947,-3.4075,-3.4312,-3.4312,-3.4425,-3.4593,-3.4593,-3.5116,-3.6096,-3.5613,-3.5391,0.0,0.0,0.0,0.0,0.0,0.0,-2.9792,0.0,-2.9792,0.0,0.0,0.0,0.0,0.0,0.0,0.0,0.0,0.0,0.0,0.0,0.0,0.0,0.0,0.0,0.0,0.0,0.0,0.0,0.0,-2.7785,-2.7654,-2.7175,-2.7029,-2.7299,-2.7309,-2.7309,-2.7309,-2.7309,-2.7309,-2.7309,-2.7309,-2.7309,-2.7309,-2.7309,-2.7309,-2.7309,-2.7309,-2.7309,-2.7309,-2.7309,-2.7309,-2.7309,-2.7309,-2.7309,-2.7309,-2.7309,-2.7309,-2.7309,-2.7309,-2.7309,-2.7309,-2.7309,-2.7309,-2.7489,-2.8398,-2.913,-2.9761,-3.0722,-3.1315,-3.1581,-3.1581,-3.1214,-3.0812,-3.0812,-3.1214,-3.1581,-3.1581,-3.2394,-3.3124,-3.3124,-3.3124,-3.3111,-3.3197,-3.3154,-3.3154,-3.3313,-3.3283,-3.3283,-3.3356,-3.3441,-3.3581,-3.3696,-3.3768,-3.3852,-3.3966,-3.3966,-3.3979,-3.3852,-3.3852,-3.3894,-3.3937,-3.3937,-3.4021,-3.4285,-3.4285,-3.4314,-3.4397,-3.4397,-3.4646,-3.5103,-3.4881,-3.4776,-2.9792,0.0,0.0,0.0,0.0,0.0,0.0,0.0,0.0,0.0,0.0,0.0,0.0,0.0,0.0,0.0,0.0,0.0,0.0,0.0,0.0,0.0,0.0,0.0,0.0,0.0,0.0,0.0,-2.8374,0.0,-2.7379,-2.6739,-2.6573,-2.6915,-2.705,-2.7123,-2.7123,-2.7247,-2.7309,-2.7309,-2.7309,-2.7309,-2.7309,-2.7309,-2.7309,-2.7309,-2.7309,-2.7309,-2.7309,-2.7309,-2.7309,-2.7309,-2.7309,-2.7309,-2.7309,-2.7309,-2.7309,-2.7309,-2.7309,-2.7309,-2.7309,-2.7309,-2.7309,-2.7489,-2.8398,-2.9222,-2.9988,-3.0946,-3.1214,-3.1214,-3.1214,-3.0498,-2.9806,-2.9806,-3.0306,-3.0902,-3.1169,-3.1989,-3.2754,-3.3038,-3.3124,-3.3124,-3.3124,-3.3124,-3.3124,-3.3154,-3.3197,-3.3197,-3.3283,-3.3283,-3.3313,-3.3471,-3.3471,-3.3556,-3.367,-3.3713,-3.367,-3.3641,-3.3641,-3.3725,-3.3907,-3.3949,-3.4076,-3.4314,-3.4314,-3.4356,-3.4397,-3.4356,-3.4314,-3.4314,-3.4356,-3.4397,0.0,0.0,0.0,-2.9792,0.0,0.0,0.0,0.0,-2.9792,0.0,0.0,0.0,0.0,0.0,-2.9792,-2.9792,0.0,0.0,0.0,0.0,0.0,0.0,0.0,0.0,0.0,0.0,0.0,0.0,-2.626,0.0,-2.592,-2.5941,-2.5906,-2.5916,-2.6407,-2.6635,-2.6635,-2.7081,-2.7309,-2.7309,-2.7309,-2.7309,-2.7309,-2.7309,-2.7309,-2.7309,-2.7309,-2.7309,-2.7309,-2.7309,-2.7309,-2.7309,-2.7309,-2.7309,-2.7309,-2.7309,-2.7309,-2.7309,-2.7309,-2.7309,-2.7309,-2.7309,-2.7309,-2.7489,-2.8398,-2.8724,-2.8945,-2.9943,-3.026,-3.026,-3.026,-2.9486,-2.8771,-2.8771,-2.8771,-2.9037,-3.0034,-3.0991,-3.1945,-3.2896,-3.3124,-3.3124,-3.3124,-3.3124,-3.3154,-3.3356,-3.3398,-3.3484,-3.367,-3.367,-3.367,-3.367,-3.367,-3.367,-3.3713,-3.3713,-3.3641,-3.3441,-3.3398,-3.3398,-3.3441,-3.3598,-3.3852,-3.4118,-3.4118,-3.4202,-3.4397,-3.4202,-3.4118,-3.4118,-3.4314,-3.4397,0.0,0.0,-2.9792,-2.9792,0.0,0.0,0.0,0.0,0.0,0.0,0.0,0.0,0.0,0.0,-2.9792,-2.9792,-2.9792,-2.9792,0.0,0.0,0.0,0.0,0.0,0.0,0.0,0.0,0.0,-2.9099,-2.8028,0.0,0.0,-2.6628,-2.6165,-2.591,-2.603,-2.6304,-2.6615,-2.677,-2.7009,-2.7309,-2.7309,-2.7309,-2.7309,-2.7309,-2.7309,-2.7309,-2.7309,-2.7309,-2.7309,-2.7309,-2.7309,-2.7309,-2.7309,-2.7309,-2.7309,-2.7309,-2.7309,-2.7309,-2.7309,-2.7309,-2.7309,-2.7309,-2.7309,-2.7357,-2.7678,-2.8222,-2.8771,-2.913,-2.9222,-2.9222,-2.9222,-2.8491,-2.7951,-2.8538,-2.9222,-2.9943,-3.0902,-3.1901,-3.2711,-3.3025,-3.3124,-3.3124,-3.3124,-3.3124,-3.3124,-3.3197,-3.3197,-3.324,-3.3283,-3.3313,-3.3313,-3.3313,-3.3313,-3.3313,-3.3313,-3.3313,-3.3283,-3.3197,-3.3197,-3.3283,-3.3398,-3.3471,-3.3598,-3.3852,-3.3852,-3.3852,-3.3937,-3.3852,-3.3852,-3.3852,-3.4076,-3.4105,-2.9792,-2.9792,0.0,0.0,-2.9792,0.0,-2.9792,0.0,0.0,0.0,0.0,0.0,0.0,0.0,-2.9792,-2.9792,-2.9792,-2.9792,0.0,-2.9792,0.0,0.0,0.0,0.0,0.0,0.0,-2.9339,-2.9339,-2.8211,-2.7411,0.0,0.0,-2.5688,-2.5399,-2.5564,-2.5792,-2.6092,-2.6413,-2.677,-2.7061,-2.7226,-2.7309,-2.7309,-2.7309,-2.7309,-2.7309,-2.7309,-2.7309,-2.7309,-2.7309,-2.7309,-2.7309,-2.7309,-2.7309,-2.7309,-2.7309,-2.7309,-2.7309,-2.7309,-2.7309,-2.7309,-2.7309,-2.7309,-2.7309,-2.7309,-2.7715,-2.8222,-2.8222,-2.8222,-2.8222,-2.8222,-2.7998,-2.7951,-2.8538,-2.9452,-3.0441,-3.1392,-3.212,-3.2667,-3.3025,-3.3124,-3.3124,-3.3124,-3.3124,-3.3124,-3.3124,-3.3124,-3.3124,-3.3124,-3.3124,-3.3124,-3.3124,-3.3124,-3.3124,-3.3124,-3.3124,-3.3124,-3.3124,-3.3154,-3.3283,-3.3398,-3.3471,-3.3556,-3.3713,-3.3713,-3.3713,-3.3713,-3.3641,-3.3641,-3.3713,-3.381,-3.381]}]]